Today

Time Wind Dr Wind Spd
mph
Wind Gust
mph
Hum In
%
Humid
%
TempI
F
Temp
F
Raw Bar
in
Tot Rain
in
UV Solar
W/sqm
DailyRain
in
HourRain
in
24HrRain
in
RainRate
in
02/19/19 12:00:36 AM 333 8.0 11.0 24 40 73.4 45.0 30.154 14.09 0.0 0 0.00 0.00 0.00 0.00
02/19/19 12:01:24 AM 319 11.0 15.0 24 40 73.4 45.0 30.154 14.09 0.0 0 0.00 0.00 0.00 0.00
02/19/19 12:02:19 AM 5 4.0 15.0 24 40 73.4 44.9 30.154 14.09 0.0 0 0.00 0.00 0.00 0.00
02/19/19 12:03:29 AM 21 13.0 15.0 24 40 73.4 44.9 30.159 14.09 0.0 0 0.00 0.00 0.00 0.00
02/19/19 12:04:24 AM 345 9.0 15.0 24 39 73.4 44.9 30.159 14.09 0.0 0 0.00 0.00 0.00 0.00
02/19/19 12:05:37 AM 13 8.0 15.0 24 40 73.4 44.9 30.157 14.09 0.0 0 0.00 0.00 0.00 0.00
02/19/19 12:06:29 AM 340 11.0 15.0 24 40 73.4 44.9 30.157 14.09 0.0 0 0.00 0.00 0.00 0.00
02/19/19 12:07:17 AM 319 13.0 18.0 24 40 73.4 44.9 30.157 14.09 0.0 0 0.00 0.00 0.00 0.00
02/19/19 12:08:28 AM 312 13.0 25.0 24 39 73.4 44.9 30.158 14.09 0.0 0 0.00 0.00 0.00 0.00
02/19/19 12:09:19 AM 355 13.0 25.0 24 39 73.4 44.9 30.158 14.09 0.0 0 0.00 0.00 0.00 0.00
02/19/19 12:10:30 AM 25 8.0 25.0 24 39 73.5 45.0 30.156 14.09 0.0 0 0.00 0.00 0.00 0.00
02/19/19 12:11:23 AM 43 10.0 25.0 24 39 73.4 45.0 30.158 14.09 0.0 0 0.00 0.00 0.00 0.00
02/19/19 12:12:32 AM 344 5.0 25.0 24 39 73.4 45.0 30.159 14.09 0.0 0 0.00 0.00 0.00 0.00
02/19/19 12:13:25 AM 308 8.0 25.0 24 39 73.4 45.0 30.160 14.09 0.0 0 0.00 0.00 0.00 0.00
02/19/19 12:14:37 AM 40 5.0 25.0 24 40 73.4 44.9 30.161 14.09 0.0 0 0.00 0.00 0.00 0.00
02/19/19 12:15:33 AM 61 6.0 25.0 24 40 73.4 44.9 30.155 14.09 0.0 0 0.00 0.00 0.00 0.00
02/19/19 12:16:27 AM 57 9.0 25.0 24 40 73.4 44.8 30.159 14.09 0.0 0 0.00 0.00 0.00 0.00
02/19/19 12:17:20 AM 287 2.0 25.0 24 39 73.4 44.8 30.159 14.09 0.0 0 0.00 0.00 0.00 0.00
02/19/19 12:18:29 AM 285 3.0 25.0 24 39 73.4 44.8 30.155 14.09 0.0 0 0.00 0.00 0.00 0.00
02/19/19 12:19:22 AM 312 6.0 25.0 24 39 73.4 44.7 30.155 14.09 0.0 0 0.00 0.00 0.00 0.00
02/19/19 12:20:33 AM 290 10.0 25.0 24 40 73.4 44.7 30.156 14.09 0.0 0 0.00 0.00 0.00 0.00
02/19/19 12:21:27 AM 333 8.0 25.0 24 40 73.4 44.6 30.157 14.09 0.0 0 0.00 0.00 0.00 0.00
02/19/19 12:22:20 AM 340 8.0 25.0 24 40 73.4 44.6 30.157 14.09 0.0 0 0.00 0.00 0.00 0.00
02/19/19 12:23:25 AM 291 5.0 25.0 24 40 73.4 44.6 30.162 14.09 0.0 0 0.00 0.00 0.00 0.00
02/19/19 12:24:19 AM 22 4.0 25.0 24 41 73.4 44.5 30.162 14.09 0.0 0 0.00 0.00 0.00 0.00
02/19/19 12:25:30 AM 306 3.0 25.0 24 40 73.3 44.5 30.161 14.09 0.0 0 0.00 0.00 0.00 0.00
02/19/19 12:26:21 AM 306 3.0 25.0 24 40 73.3 44.5 30.161 14.09 0.0 0 0.00 0.00 0.00 0.00
02/19/19 12:27:35 AM 306 3.0 25.0 24 40 73.4 44.5 30.165 14.09 0.0 0 0.00 0.00 0.00 0.00
02/19/19 12:28:19 AM 355 1.0 25.0 24 40 73.4 44.3 30.165 14.09 0.0 0 0.00 0.00 0.00 0.00
02/19/19 12:29:34 AM 339 4.0 25.0 24 40 73.3 44.3 30.164 14.09 0.0 0 0.00 0.00 0.00 0.00
02/19/19 12:30:30 AM 343 6.0 25.0 24 41 73.4 44.2 30.166 14.09 0.0 0 0.00 0.00 0.00 0.00
02/19/19 12:31:21 AM 350 5.0 25.0 24 42 73.4 44.2 30.166 14.09 0.0 0 0.00 0.00 0.00 0.00
02/19/19 12:32:35 AM 355 4.0 25.0 24 42 73.4 44.1 30.167 14.09 0.0 0 0.00 0.00 0.00 0.00
02/19/19 12:33:25 AM 355 2.0 25.0 24 42 73.3 44.0 30.166 14.09 0.0 0 0.00 0.00 0.00 0.00
02/19/19 12:34:34 AM 314 5.0 25.0 24 43 73.4 43.8 30.168 14.09 0.0 0 0.00 0.00 0.00 0.00
02/19/19 12:35:27 AM 302 2.0 25.0 24 43 73.4 43.7 30.167 14.09 0.0 0 0.00 0.00 0.00 0.00
02/19/19 12:36:20 AM 302 1.0 25.0 24 43 73.4 43.5 30.167 14.09 0.0 0 0.00 0.00 0.00 0.00
02/19/19 12:37:35 AM 302 2.0 25.0 24 44 73.3 43.4 30.168 14.09 0.0 0 0.00 0.00 0.00 0.00
02/19/19 12:38:28 AM 302 2.0 25.0 24 44 73.3 43.2 30.168 14.09 0.0 0 0.00 0.00 0.00 0.00
02/19/19 12:39:37 AM 30 2.0 25.0 24 44 73.3 43.1 30.167 14.09 0.0 0 0.00 0.00 0.00 0.00
02/19/19 12:40:30 AM 44 2.0 25.0 24 44 73.3 43.0 30.166 14.09 0.0 0 0.00 0.00 0.00 0.00
02/19/19 12:41:23 AM 124 3.0 25.0 25 45 73.3 42.9 30.166 14.09 0.0 0 0.00 0.00 0.00 0.00
02/19/19 12:42:35 AM 259 3.0 25.0 25 45 73.3 42.9 30.167 14.09 0.0 0 0.00 0.00 0.00 0.00
02/19/19 12:43:25 AM 269 2.0 25.0 25 45 73.3 42.8 30.167 14.09 0.0 0 0.00 0.00 0.00 0.00
02/19/19 12:44:18 AM 269 2.0 25.0 25 45 73.3 42.8 30.167 14.09 0.0 0 0.00 0.00 0.00 0.00
02/19/19 12:45:30 AM 269 2.0 25.0 25 45 73.3 42.7 30.168 14.09 0.0 0 0.00 0.00 0.00 0.00
02/19/19 12:46:20 AM 269 2.0 25.0 25 45 73.3 42.7 30.167 14.09 0.0 0 0.00 0.00 0.00 0.00
02/19/19 12:47:31 AM 315 2.0 25.0 25 45 73.3 42.6 30.168 14.09 0.0 0 0.00 0.00 0.00 0.00
02/19/19 12:48:22 AM 315 2.0 25.0 25 45 73.3 42.5 30.168 14.09 0.0 0 0.00 0.00 0.00 0.00
02/19/19 12:49:36 AM 315 3.0 25.0 25 46 73.3 42.4 30.168 14.09 0.0 0 0.00 0.00 0.00 0.00
02/19/19 12:50:23 AM 315 2.0 25.0 25 46 73.3 42.3 30.168 14.09 0.0 0 0.00 0.00 0.00 0.00
02/19/19 12:51:35 AM 315 1.0 25.0 25 46 73.3 42.2 30.164 14.09 0.0 0 0.00 0.00 0.00 0.00
02/19/19 12:52:28 AM 315 0.0 25.0 25 46 73.3 42.2 30.166 14.09 0.0 0 0.00 0.00 0.00 0.00
02/19/19 12:53:21 AM 315 0.0 25.0 25 46 73.3 42.1 30.166 14.09 0.0 0 0.00 0.00 0.00 0.00
02/19/19 12:54:36 AM 315 1.0 25.0 25 47 73.3 42.0 30.165 14.09 0.0 0 0.00 0.00 0.00 0.00
02/19/19 12:55:23 AM 315 0.0 25.0 25 47 73.3 41.9 30.167 14.09 0.0 0 0.00 0.00 0.00 0.00
02/19/19 12:56:35 AM 315 0.0 25.0 25 47 73.3 41.7 30.168 14.09 0.0 0 0.00 0.00 0.00 0.00
02/19/19 12:57:28 AM 311 3.0 25.0 25 47 73.3 41.7 30.164 14.09 0.0 0 0.00 0.00 0.00 0.00
02/19/19 12:58:22 AM 311 2.0 25.0 25 47 73.3 41.8 30.164 14.09 0.0 0 0.00 0.00 0.00 0.00
02/19/19 12:59:33 AM 254 3.0 25.0 25 46 73.3 41.9 30.166 14.09 0.0 0 0.00 0.00 0.00 0.00
02/19/19 1:00:30 AM 254 1.0 25.0 25 47 73.3 41.9 30.163 14.09 0.0 0 0.00 0.00 0.00 0.00
02/19/19 1:01:20 AM 288 5.0 25.0 25 46 73.3 42.0 30.163 14.09 0.0 0 0.00 0.00 0.00 0.00
02/19/19 1:02:32 AM 65 3.0 25.0 25 46 73.3 42.1 30.163 14.09 0.0 0 0.00 0.00 0.00 0.00
02/19/19 1:03:28 AM 57 1.0 25.0 25 45 73.3 42.2 30.163 14.09 0.0 0 0.00 0.00 0.00 0.00
02/19/19 1:04:19 AM 57 0.0 25.0 25 46 73.3 42.2 30.163 14.09 0.0 0 0.00 0.00 0.00 0.00
02/19/19 1:05:33 AM 275 2.0 25.0 25 46 73.3 42.1 30.165 14.09 0.0 0 0.00 0.00 0.00 0.00
02/19/19 1:06:20 AM 274 2.0 25.0 25 47 73.3 42.0 30.165 14.09 0.0 0 0.00 0.00 0.00 0.00
02/19/19 1:07:32 AM 208 2.0 25.0 25 47 73.3 41.8 30.163 14.09 0.0 0 0.00 0.00 0.00 0.00
02/19/19 1:08:25 AM 209 1.0 25.0 25 47 73.3 41.8 30.161 14.09 0.0 0 0.00 0.00 0.00 0.00
02/19/19 1:09:19 AM 209 3.0 25.0 25 47 73.3 41.8 30.161 14.09 0.0 0 0.00 0.00 0.00 0.00
02/19/19 1:10:30 AM 273 2.0 25.0 25 47 73.3 41.9 30.166 14.09 0.0 0 0.00 0.00 0.00 0.00
02/19/19 1:11:23 AM 288 3.0 25.0 25 48 73.3 41.8 30.166 14.09 0.0 0 0.00 0.00 0.00 0.00
02/19/19 1:12:32 AM 288 0.0 25.0 25 49 73.3 41.7 30.160 14.09 0.0 0 0.00 0.00 0.00 0.00
02/19/19 1:13:25 AM 288 2.0 25.0 25 49 73.3 41.4 30.160 14.09 0.0 0 0.00 0.00 0.00 0.00
02/19/19 1:14:15 AM 328 1.0 25.0 25 50 73.3 41.2 30.163 14.09 0.0 0 0.00 0.00 0.00 0.00
02/19/19 1:15:36 AM 321 3.0 25.0 25 50 73.3 41.0 30.164 14.09 0.0 0 0.00 0.00 0.00 0.00
02/19/19 1:16:23 AM 179 5.0 25.0 25 49 73.4 40.9 30.163 14.09 0.0 0 0.00 0.00 0.00 0.00
02/19/19 1:17:35 AM 321 3.0 25.0 25 48 73.3 41.0 30.162 14.09 0.0 0 0.00 0.00 0.00 0.00
02/19/19 1:18:25 AM 348 4.0 25.0 25 47 73.3 41.3 30.162 14.09 0.0 0 0.00 0.00 0.00 0.00
02/19/19 1:19:18 AM 348 2.0 25.0 25 47 73.3 41.4 30.162 14.09 0.0 0 0.00 0.00 0.00 0.00
02/19/19 1:20:30 AM 348 1.0 25.0 25 47 73.3 41.5 30.163 14.09 0.0 0 0.00 0.00 0.00 0.00
02/19/19 1:21:23 AM 321 2.0 25.0 25 47 73.3 41.5 30.163 14.09 0.0 0 0.00 0.00 0.00 0.00
02/19/19 1:22:31 AM 321 2.0 25.0 25 47 73.3 41.6 30.162 14.09 0.0 0 0.00 0.00 0.00 0.00
02/19/19 1:23:25 AM 321 2.0 25.0 25 47 73.4 41.7 30.163 14.09 0.0 0 0.00 0.00 0.00 0.00
02/19/19 1:24:18 AM 207 2.0 25.0 25 47 73.4 41.7 30.163 14.09 0.0 0 0.00 0.00 0.00 0.00
02/19/19 1:25:29 AM 207 1.0 25.0 25 47 73.4 41.7 30.163 14.09 0.0 0 0.00 0.00 0.00 0.00
02/19/19 1:26:23 AM 207 0.0 25.0 25 47 73.4 41.7 30.163 14.09 0.0 0 0.00 0.00 0.00 0.00
02/19/19 1:27:37 AM 207 1.0 25.0 25 48 73.4 41.6 30.160 14.09 0.0 0 0.00 0.00 0.00 0.00
02/19/19 1:28:25 AM 207 1.0 25.0 25 49 73.4 41.5 30.160 14.09 0.0 0 0.00 0.00 0.00 0.00
02/19/19 1:29:18 AM 207 0.0 25.0 25 49 73.4 41.3 30.160 14.09 0.0 0 0.00 0.00 0.00 0.00
02/19/19 1:30:36 AM 68 4.0 25.0 25 50 73.4 41.0 30.160 14.09 0.0 0 0.00 0.00 0.00 0.00
02/19/19 1:31:29 AM 71 2.0 25.0 25 50 73.4 40.9 30.164 14.09 0.0 0 0.00 0.00 0.00 0.00
02/19/19 1:32:23 AM 71 1.0 25.0 25 50 73.4 40.7 30.164 14.09 0.0 0 0.00 0.00 0.00 0.00
02/19/19 1:33:31 AM 71 1.0 25.0 25 50 73.4 40.6 30.156 14.09 0.0 0 0.00 0.00 0.00 0.00
02/19/19 1:34:25 AM 71 1.0 25.0 25 51 73.4 40.5 30.158 14.09 0.0 0 0.00 0.00 0.00 0.00
02/19/19 1:35:18 AM 71 0.0 25.0 25 51 73.4 40.4 30.158 14.09 0.0 0 0.00 0.00 0.00 0.00
02/19/19 1:36:33 AM 69 2.0 25.0 25 52 73.3 40.2 30.159 14.09 0.0 0 0.00 0.00 0.00 0.00
02/19/19 1:37:26 AM 96 6.0 25.0 25 52 73.3 40.1 30.159 14.09 0.0 0 0.00 0.00 0.00 0.00
02/19/19 1:38:16 AM 83 7.0 25.0 25 52 73.3 40.0 30.159 14.09 0.0 0 0.00 0.00 0.00 0.00
02/19/19 1:39:25 AM 107 7.0 25.0 25 51 73.4 40.1 30.159 14.09 0.0 0 0.00 0.00 0.00 0.00
02/19/19 1:40:18 AM 32 4.0 25.0 25 51 73.4 40.2 30.159 14.09 0.0 0 0.00 0.00 0.00 0.00
02/19/19 1:41:30 AM 74 3.0 25.0 25 49 73.4 40.4 30.159 14.09 0.0 0 0.00 0.00 0.00 0.00
02/19/19 1:42:23 AM 56 10.0 25.0 25 48 73.4 40.7 30.159 14.09 0.0 0 0.00 0.00 0.00 0.00
02/19/19 1:43:33 AM 304 3.0 25.0 25 48 73.3 41.0 30.160 14.09 0.0 0 0.00 0.00 0.00 0.00
02/19/19 1:44:20 AM 304 2.0 25.0 25 48 73.3 41.1 30.160 14.09 0.0 0 0.00 0.00 0.00 0.00
02/19/19 1:45:38 AM 304 1.0 25.0 25 47 73.4 41.3 30.159 14.09 0.0 0 0.00 0.00 0.00 0.00
02/19/19 1:46:28 AM 309 2.0 25.0 25 47 73.3 41.3 30.164 14.09 0.0 0 0.00 0.00 0.00 0.00
02/19/19 1:47:21 AM 35 4.0 25.0 25 47 73.3 41.5 30.164 14.09 0.0 0 0.00 0.00 0.00 0.00
02/19/19 1:48:36 AM 60 3.0 25.0 25 47 73.4 41.5 30.161 14.09 0.0 0 0.00 0.00 0.00 0.00
02/19/19 1:49:29 AM 63 8.0 25.0 25 47 73.4 41.6 30.160 14.09 0.0 0 0.00 0.00 0.00 0.00
02/19/19 1:50:17 AM 74 3.0 25.0 25 46 73.4 41.6 30.160 14.09 0.0 0 0.00 0.00 0.00 0.00
02/19/19 1:51:31 AM 252 4.0 25.0 25 47 73.4 41.7 30.159 14.09 0.0 0 0.00 0.00 0.00 0.00
02/19/19 1:52:24 AM 92 8.0 25.0 25 46 73.4 41.7 30.159 14.09 0.0 0 0.00 0.00 0.00 0.00
02/19/19 1:53:36 AM 67 6.0 25.0 25 46 73.3 41.9 30.160 14.09 0.0 0 0.00 0.00 0.00 0.00
02/19/19 1:54:29 AM 40 2.0 25.0 25 46 73.4 41.9 30.160 14.09 0.0 0 0.00 0.00 0.00 0.00
02/19/19 1:55:16 AM 340 3.0 25.0 25 46 73.4 42.0 30.160 14.09 0.0 0 0.00 0.00 0.00 0.00
02/19/19 1:56:31 AM 333 0.0 25.0 25 45 73.4 42.1 30.163 14.09 0.0 0 0.00 0.00 0.00 0.00
02/19/19 1:57:22 AM 333 0.0 25.0 25 45 73.4 42.2 30.163 14.09 0.0 0 0.00 0.00 0.00 0.00
02/19/19 1:58:36 AM 333 0.0 25.0 25 44 73.4 42.3 30.160 14.09 0.0 0 0.00 0.00 0.00 0.00
02/19/19 1:59:27 AM 333 0.0 25.0 25 44 73.4 42.4 30.158 14.09 0.0 0 0.00 0.00 0.00 0.00
02/19/19 2:00:23 AM 333 0.0 25.0 25 45 73.4 42.3 30.158 14.09 0.0 0 0.00 0.00 0.00 0.00
02/19/19 2:01:32 AM 333 0.0 25.0 25 46 73.4 42.2 30.159 14.09 0.0 0 0.00 0.00 0.00 0.00
02/19/19 2:02:25 AM 253 3.0 25.0 25 47 73.4 42.0 30.159 14.09 0.0 0 0.00 0.00 0.00 0.00
02/19/19 2:03:19 AM 236 1.0 25.0 25 46 73.4 41.9 30.159 14.09 0.0 0 0.00 0.00 0.00 0.00
02/19/19 2:04:30 AM 236 2.0 25.0 25 46 73.4 41.8 30.159 14.09 0.0 0 0.00 0.00 0.00 0.00
02/19/19 2:05:20 AM 219 3.0 25.0 25 47 73.4 41.7 30.159 14.09 0.0 0 0.00 0.00 0.00 0.00
02/19/19 2:06:32 AM 209 4.0 25.0 25 46 73.4 41.7 30.159 14.09 0.0 0 0.00 0.00 0.00 0.00
02/19/19 2:07:25 AM 266 6.0 25.0 25 46 73.4 41.7 30.161 14.09 0.0 0 0.00 0.00 0.00 0.00
02/19/19 2:08:16 AM 350 8.0 25.0 25 46 73.4 41.6 30.161 14.09 0.0 0 0.00 0.00 0.00 0.00
02/19/19 2:09:30 AM 346 6.0 25.0 25 46 73.4 41.7 30.158 14.09 0.0 0 0.00 0.00 0.00 0.00
02/19/19 2:10:21 AM 300 8.0 25.0 25 45 73.4 41.7 30.158 14.09 0.0 0 0.00 0.00 0.00 0.00
02/19/19 2:11:32 AM 317 14.0 25.0 25 45 73.4 41.9 30.158 14.09 0.0 0 0.00 0.00 0.00 0.00
02/19/19 2:12:23 AM 294 3.0 25.0 25 44 73.4 42.0 30.158 14.09 0.0 0 0.00 0.00 0.00 0.00
02/19/19 2:13:34 AM 313 6.0 25.0 25 44 73.4 42.1 30.159 14.09 0.0 0 0.00 0.00 0.00 0.00
02/19/19 2:14:28 AM 321 5.0 25.0 25 44 73.4 42.2 30.161 14.09 0.0 0 0.00 0.00 0.00 0.00
02/19/19 2:15:24 AM 350 5.0 25.0 25 44 73.4 42.3 30.161 14.09 0.0 0 0.00 0.00 0.00 0.00
02/19/19 2:16:36 AM 346 16.0 25.0 25 44 73.4 42.3 30.161 14.09 0.0 0 0.00 0.00 0.00 0.00
02/19/19 2:17:26 AM 351 8.0 25.0 25 44 73.5 42.4 30.159 14.09 0.0 0 0.00 0.00 0.00 0.00
02/19/19 2:18:16 AM 294 5.0 25.0 25 44 73.5 42.4 30.159 14.09 0.0 0 0.00 0.00 0.00 0.00
02/19/19 2:19:31 AM 342 12.0 25.0 25 44 73.5 42.5 30.161 14.09 0.0 0 0.00 0.00 0.00 0.00
02/19/19 2:20:24 AM 269 4.0 25.0 25 43 73.5 42.7 30.161 14.09 0.0 0 0.00 0.00 0.00 0.00
02/19/19 2:21:36 AM 342 4.0 25.0 25 44 73.4 42.7 30.157 14.09 0.0 0 0.00 0.00 0.00 0.00
02/19/19 2:22:26 AM 5 9.0 25.0 25 44 73.4 42.7 30.159 14.09 0.0 0 0.00 0.00 0.00 0.00
02/19/19 2:23:17 AM 325 15.0 25.0 25 44 73.4 42.7 30.159 14.09 0.0 0 0.00 0.00 0.00 0.00
02/19/19 2:24:28 AM 323 11.0 25.0 25 43 73.4 42.8 30.159 14.09 0.0 0 0.00 0.00 0.00 0.00
02/19/19 2:25:22 AM 298 9.0 25.0 25 43 73.4 42.8 30.159 14.09 0.0 0 0.00 0.00 0.00 0.00
02/19/19 2:26:33 AM 323 21.0 25.0 25 43 73.5 42.8 30.156 14.09 0.0 0 0.00 0.00 0.00 0.00
02/19/19 2:27:24 AM 342 10.0 25.0 25 42 73.5 42.9 30.156 14.09 0.0 0 0.00 0.00 0.00 0.00
02/19/19 2:28:32 AM 338 8.0 25.0 25 42 73.4 43.0 30.159 14.09 0.0 0 0.00 0.00 0.00 0.00
02/19/19 2:29:26 AM 306 9.0 25.0 25 42 73.5 43.1 30.159 14.09 0.0 0 0.00 0.00 0.00 0.00
02/19/19 2:30:22 AM 299 5.0 25.0 25 43 73.5 43.1 30.159 14.09 0.0 0 0.00 0.00 0.00 0.00
02/19/19 2:31:31 AM 292 10.0 25.0 25 43 73.5 43.1 30.158 14.09 0.0 0 0.00 0.00 0.00 0.00
02/19/19 2:32:24 AM 344 9.0 25.0 25 43 73.5 43.1 30.158 14.09 0.0 0 0.00 0.00 0.00 0.00
02/19/19 2:33:33 AM 311 8.0 25.0 25 42 73.5 43.0 30.161 14.09 0.0 0 0.00 0.00 0.00 0.00
02/19/19 2:34:26 AM 323 20.0 25.0 25 42 73.4 43.1 30.158 14.09 0.0 0 0.00 0.00 0.00 0.00
02/19/19 2:35:20 AM 339 11.0 25.0 25 42 73.4 43.1 30.158 14.09 0.0 0 0.00 0.00 0.00 0.00
02/19/19 2:36:31 AM 338 13.0 25.0 25 42 73.4 43.1 30.159 14.09 0.0 0 0.00 0.00 0.00 0.00
02/19/19 2:37:25 AM 294 7.0 25.0 25 41 73.5 43.2 30.161 14.09 0.0 0 0.00 0.00 0.00 0.00
02/19/19 2:38:18 AM 278 6.0 25.0 25 42 73.5 43.2 30.161 14.09 0.0 0 0.00 0.00 0.00 0.00
02/19/19 2:39:27 AM 311 13.0 25.0 25 43 73.5 43.1 30.161 14.09 0.0 0 0.00 0.00 0.00 0.00
02/19/19 2:40:20 AM 335 12.0 25.0 25 42 73.5 43.1 30.161 14.09 0.0 0 0.00 0.00 0.00 0.00
02/19/19 2:41:32 AM 355 16.0 25.0 25 41 73.4 43.1 30.159 14.09 0.0 0 0.00 0.00 0.00 0.00
02/19/19 2:42:25 AM 334 13.0 25.0 25 41 73.4 43.2 30.162 14.09 0.0 0 0.00 0.00 0.00 0.00
02/19/19 2:43:19 AM 323 15.0 25.0 25 41 73.4 43.2 30.162 14.09 0.0 0 0.00 0.00 0.00 0.00
02/19/19 2:44:27 AM 338 11.0 25.0 25 41 73.4 43.3 30.160 14.09 0.0 0 0.00 0.00 0.00 0.00
02/19/19 2:45:24 AM 10 11.0 25.0 25 41 73.4 43.3 30.160 14.09 0.0 0 0.00 0.00 0.00 0.00
02/19/19 2:46:17 AM 340 15.0 25.0 25 41 73.4 43.3 30.160 14.09 0.0 0 0.00 0.00 0.00 0.00
02/19/19 2:47:29 AM 327 15.0 25.0 25 41 73.4 43.3 30.162 14.09 0.0 0 0.00 0.00 0.00 0.00
02/19/19 2:48:22 AM 324 14.0 25.0 25 41 73.4 43.2 30.162 14.09 0.0 0 0.00 0.00 0.00 0.00
02/19/19 2:49:31 AM 300 12.0 25.0 25 41 73.4 43.2 30.159 14.09 0.0 0 0.00 0.00 0.00 0.00
02/19/19 2:50:24 AM 339 12.0 25.0 25 41 73.4 43.2 30.160 14.09 0.0 0 0.00 0.00 0.00 0.00
02/19/19 2:51:17 AM 312 9.0 25.0 25 42 73.4 43.3 30.160 14.09 0.0 0 0.00 0.00 0.00 0.00
02/19/19 2:52:32 AM 323 9.0 25.0 25 43 73.4 43.2 30.162 14.09 0.0 0 0.00 0.00 0.00 0.00
02/19/19 2:53:23 AM 307 8.0 25.0 25 43 73.4 43.1 30.162 14.09 0.0 0 0.00 0.00 0.00 0.00
02/19/19 2:54:16 AM 318 5.0 25.0 25 43 73.4 43.1 30.165 14.09 0.0 0 0.00 0.00 0.00 0.00
02/19/19 2:55:25 AM 311 5.0 25.0 25 43 73.4 42.9 30.164 14.09 0.0 0 0.00 0.00 0.00 0.00
02/19/19 2:56:18 AM 320 13.0 25.0 25 43 73.4 42.8 30.164 14.09 0.0 0 0.00 0.00 0.00 0.00
02/19/19 2:57:30 AM 5 8.0 25.0 25 42 73.4 42.8 30.162 14.09 0.0 0 0.00 0.00 0.00 0.00
02/19/19 2:58:23 AM 331 13.0 25.0 25 42 73.4 42.8 30.162 14.09 0.0 0 0.00 0.00 0.00 0.00
02/19/19 2:59:35 AM 341 10.0 25.0 25 42 73.3 42.9 30.159 14.09 0.0 0 0.00 0.00 0.00 0.00
02/19/19 3:00:28 AM 310 10.0 25.0 25 42 73.4 42.9 30.159 14.09 0.0 0 0.00 0.00 0.00 0.00
02/19/19 3:01:22 AM 304 3.0 25.0 25 42 73.4 42.9 30.159 14.09 0.0 0 0.00 0.00 0.00 0.00
02/19/19 3:02:34 AM 315 4.0 25.0 25 43 73.3 42.9 30.158 14.09 0.0 0 0.00 0.00 0.00 0.00
02/19/19 3:03:24 AM 318 3.0 25.0 25 43 73.4 42.8 30.158 14.09 0.0 0 0.00 0.00 0.00 0.00
02/19/19 3:04:21 AM 299 3.0 25.0 25 43 73.4 42.7 30.158 14.09 0.0 0 0.00 0.00 0.00 0.00
02/19/19 3:05:32 AM 299 3.0 25.0 25 43 73.4 42.6 30.156 14.09 0.0 0 0.00 0.00 0.00 0.00
02/19/19 3:06:20 AM 299 2.0 25.0 25 44 73.4 42.5 30.156 14.09 0.0 0 0.00 0.00 0.00 0.00
02/19/19 3:07:31 AM 299 1.0 25.0 25 44 73.4 42.3 30.156 14.09 0.0 0 0.00 0.00 0.00 0.00
02/19/19 3:08:25 AM 299 0.0 25.0 25 44 73.4 42.2 30.156 14.09 0.0 0 0.00 0.00 0.00 0.00
02/19/19 3:09:15 AM 299 3.0 25.0 25 45 73.4 42.1 30.156 14.09 0.0 0 0.00 0.00 0.00 0.00
02/19/19 3:10:30 AM 311 5.0 25.0 25 46 73.4 41.8 30.155 14.09 0.0 0 0.00 0.00 0.00 0.00
02/19/19 3:11:17 AM 323 4.0 25.0 25 46 73.4 41.7 30.155 14.09 0.0 0 0.00 0.00 0.00 0.00
02/19/19 3:12:32 AM 323 1.0 25.0 25 47 73.4 41.4 30.156 14.09 0.0 0 0.00 0.00 0.00 0.00
02/19/19 3:13:22 AM 323 0.0 25.0 25 47 73.4 41.2 30.156 14.09 0.0 0 0.00 0.00 0.00 0.00
02/19/19 3:14:37 AM 323 0.0 25.0 25 47 73.4 41.0 30.154 14.09 0.0 0 0.00 0.00 0.00 0.00
02/19/19 3:15:33 AM 323 1.0 25.0 25 47 73.3 40.9 30.156 14.09 0.0 0 0.00 0.00 0.00 0.00
02/19/19 3:16:24 AM 323 1.0 25.0 25 48 73.4 40.7 30.155 14.09 0.0 0 0.00 0.00 0.00 0.00
02/19/19 3:17:36 AM 323 0.0 25.0 25 48 73.3 40.5 30.155 14.09 0.0 0 0.00 0.00 0.00 0.00
02/19/19 3:18:29 AM 323 2.0 25.0 25 49 73.4 40.4 30.155 14.09 0.0 0 0.00 0.00 0.00 0.00
02/19/19 3:19:20 AM 323 1.0 25.0 25 49 73.4 40.2 30.155 14.09 0.0 0 0.00 0.00 0.00 0.00
02/19/19 3:20:34 AM 323 1.0 25.0 25 49 73.3 40.1 30.153 14.09 0.0 0 0.00 0.00 0.00 0.00
02/19/19 3:21:28 AM 323 3.0 25.0 25 49 73.3 40.0 30.151 14.09 0.0 0 0.00 0.00 0.00 0.00
02/19/19 3:22:33 AM 323 1.0 25.0 25 49 73.3 40.0 30.150 14.09 0.0 0 0.00 0.00 0.00 0.00
02/19/19 3:23:27 AM 323 0.0 25.0 25 49 73.4 39.9 30.152 14.09 0.0 0 0.00 0.00 0.00 0.00
02/19/19 3:24:20 AM 323 0.0 25.0 25 50 73.4 39.9 30.152 14.09 0.0 0 0.00 0.00 0.00 0.00
02/19/19 3:25:32 AM 323 1.0 25.0 25 50 73.3 39.9 30.151 14.09 0.0 0 0.00 0.00 0.00 0.00
02/19/19 3:26:25 AM 323 2.0 25.0 25 50 73.4 39.7 30.151 14.09 0.0 0 0.00 0.00 0.00 0.00
02/19/19 3:27:16 AM 323 2.0 25.0 25 50 73.4 39.7 30.151 14.09 0.0 0 0.00 0.00 0.00 0.00
02/19/19 3:28:24 AM 323 0.0 25.0 25 51 73.3 39.5 30.150 14.09 0.0 0 0.00 0.00 0.00 0.00
02/19/19 3:29:18 AM 323 0.0 25.0 25 51 73.3 39.3 30.150 14.09 0.0 0 0.00 0.00 0.00 0.00
02/19/19 3:30:36 AM 323 0.0 25.0 25 51 73.3 39.3 30.149 14.09 0.0 0 0.00 0.00 0.00 0.00
02/19/19 3:31:29 AM 323 0.0 25.0 25 51 73.4 39.3 30.147 14.09 0.0 0 0.00 0.00 0.00 0.00
02/19/19 3:32:23 AM 323 0.0 25.0 25 51 73.4 39.4 30.147 14.09 0.0 0 0.00 0.00 0.00 0.00
02/19/19 3:33:31 AM 323 1.0 25.0 25 51 73.4 39.5 30.147 14.09 0.0 0 0.00 0.00 0.00 0.00
02/19/19 3:34:25 AM 323 2.0 25.0 25 51 73.4 39.3 30.147 14.09 0.0 0 0.00 0.00 0.00 0.00
02/19/19 3:35:16 AM 323 0.0 25.0 25 51 73.4 39.3 30.146 14.09 0.0 0 0.00 0.00 0.00 0.00
02/19/19 3:36:27 AM 235 1.0 25.0 25 51 73.4 39.3 30.144 14.09 0.0 0 0.00 0.00 0.00 0.00
02/19/19 3:37:21 AM 169 1.0 25.0 25 50 73.4 39.5 30.144 14.09 0.0 0 0.00 0.00 0.00 0.00
02/19/19 3:38:29 AM 351 4.0 25.0 25 50 73.4 39.7 30.142 14.09 0.0 0 0.00 0.00 0.00 0.00
02/19/19 3:39:20 AM 337 3.0 25.0 25 49 73.4 39.8 30.142 14.09 0.0 0 0.00 0.00 0.00 0.00
02/19/19 3:40:35 AM 336 3.0 25.0 25 49 73.4 39.9 30.142 14.09 0.0 0 0.00 0.00 0.00 0.00
02/19/19 3:41:25 AM 336 2.0 25.0 25 50 73.4 39.9 30.140 14.09 0.0 0 0.00 0.00 0.00 0.00
02/19/19 3:42:19 AM 271 4.0 25.0 25 50 73.4 39.9 30.140 14.09 0.0 0 0.00 0.00 0.00 0.00
02/19/19 3:43:30 AM 269 2.0 25.0 25 49 73.4 40.0 30.140 14.09 0.0 0 0.00 0.00 0.00 0.00
02/19/19 3:44:21 AM 243 4.0 25.0 25 49 73.4 40.1 30.140 14.09 0.0 0 0.00 0.00 0.00 0.00
02/19/19 3:45:39 AM 306 7.0 25.0 25 49 73.4 40.2 30.136 14.09 0.0 0 0.00 0.00 0.00 0.00
02/19/19 3:46:29 AM 273 4.0 25.0 25 49 73.4 40.3 30.137 14.09 0.0 0 0.00 0.00 0.00 0.00
02/19/19 3:47:23 AM 288 3.0 25.0 25 49 73.4 40.4 30.137 14.09 0.0 0 0.00 0.00 0.00 0.00
02/19/19 3:48:34 AM 279 2.0 25.0 25 48 73.4 40.5 30.135 14.09 0.0 0 0.00 0.00 0.00 0.00
02/19/19 3:49:22 AM 279 4.0 25.0 25 48 73.4 40.7 30.135 14.09 0.0 0 0.00 0.00 0.00 0.00
02/19/19 3:50:34 AM 297 7.0 25.0 25 48 73.4 40.8 30.138 14.09 0.0 0 0.00 0.00 0.00 0.00
02/19/19 3:51:28 AM 314 5.0 25.0 25 48 73.4 40.9 30.137 14.09 0.0 0 0.00 0.00 0.00 0.00
02/19/19 3:52:21 AM 310 9.0 25.0 25 48 73.4 40.9 30.137 14.09 0.0 0 0.00 0.00 0.00 0.00
02/19/19 3:53:33 AM 282 1.0 25.0 25 47 73.3 41.1 30.138 14.09 0.0 0 0.00 0.00 0.00 0.00
02/19/19 3:54:27 AM 315 9.0 25.0 25 48 73.4 41.1 30.135 14.09 0.0 0 0.00 0.00 0.00 0.00
02/19/19 3:55:35 AM 327 9.0 25.0 25 47 73.4 41.1 30.135 14.09 0.0 0 0.00 0.00 0.00 0.00
02/19/19 3:56:29 AM 294 7.0 25.0 25 47 73.4 41.2 30.151 14.09 0.0 0 0.00 0.00 0.00 0.00
02/19/19 3:57:22 AM 306 3.0 25.0 25 46 73.4 41.3 30.151 14.09 0.0 0 0.00 0.00 0.00 0.00
02/19/19 3:58:34 AM 280 3.0 25.0 25 46 73.3 41.4 30.134 14.09 0.0 0 0.00 0.00 0.00 0.00
02/19/19 3:59:28 AM 263 3.0 25.0 25 47 73.3 41.4 30.131 14.09 0.0 0 0.00 0.00 0.00 0.00
02/19/19 4:00:22 AM 275 3.0 25.0 25 47 73.3 41.4 30.131 14.09 0.0 0 0.00 0.00 0.00 0.00
02/19/19 4:01:30 AM 288 7.0 25.0 25 47 73.4 41.4 30.131 14.09 0.0 0 0.00 0.00 0.00 0.00
02/19/19 4:02:24 AM 254 2.0 25.0 25 47 73.4 41.4 30.131 14.09 0.0 0 0.00 0.00 0.00 0.00
02/19/19 4:03:18 AM 321 8.0 25.0 25 47 73.4 41.4 30.133 14.09 0.0 0 0.00 0.00 0.00 0.00
02/19/19 4:04:30 AM 307 3.0 25.0 25 47 73.4 41.5 30.132 14.09 0.0 0 0.00 0.00 0.00 0.00
02/19/19 4:05:20 AM 306 5.0 25.0 25 46 73.4 41.5 30.132 14.09 0.0 0 0.00 0.00 0.00 0.00
02/19/19 4:06:29 AM 297 4.0 25.0 25 47 73.3 41.5 30.134 14.09 0.0 0 0.00 0.00 0.00 0.00
02/19/19 4:07:23 AM 281 9.0 25.0 25 47 73.3 41.5 30.134 14.09 0.0 0 0.00 0.00 0.00 0.00
02/19/19 4:08:35 AM 244 4.0 25.0 25 46 73.3 41.5 30.132 14.09 0.0 0 0.00 0.00 0.00 0.00
02/19/19 4:09:28 AM 266 3.0 25.0 25 47 73.3 41.5 30.135 14.09 0.0 0 0.00 0.00 0.00 0.00
02/19/19 4:10:22 AM 264 4.0 25.0 25 47 73.3 41.5 30.135 14.09 0.0 0 0.00 0.00 0.00 0.00
02/19/19 4:11:31 AM 272 7.0 25.0 25 47 73.3 41.5 30.133 14.09 0.0 0 0.00 0.00 0.00 0.00
02/19/19 4:12:24 AM 316 11.0 25.0 25 47 73.3 41.5 30.133 14.09 0.0 0 0.00 0.00 0.00 0.00
02/19/19 4:13:18 AM 307 9.0 25.0 25 47 73.3 41.5 30.140 14.09 0.0 0 0.00 0.00 0.00 0.00
02/19/19 4:14:30 AM 322 1.0 25.0 25 47 73.3 41.5 30.135 14.09 0.0 0 0.00 0.00 0.00 0.00
02/19/19 4:15:27 AM 281 9.0 25.0 25 47 73.3 41.5 30.135 14.09 0.0 0 0.00 0.00 0.00 0.00
02/19/19 4:16:17 AM 259 6.0 25.0 25 47 73.3 41.5 30.138 14.09 0.0 0 0.00 0.00 0.00 0.00
02/19/19 4:17:29 AM 240 5.0 25.0 25 47 73.3 41.5 30.140 14.09 0.0 0 0.00 0.00 0.00 0.00
02/19/19 4:18:19 AM 274 4.0 25.0 25 47 73.3 41.5 30.140 14.09 0.0 0 0.00 0.00 0.00 0.00
02/19/19 4:19:31 AM 251 8.0 25.0 25 47 73.3 41.4 30.140 14.09 0.0 0 0.00 0.00 0.00 0.00
02/19/19 4:20:25 AM 263 6.0 25.0 25 47 73.3 41.4 30.141 14.09 0.0 0 0.00 0.00 0.00 0.00
02/19/19 4:21:18 AM 284 6.0 25.0 25 47 73.3 41.4 30.141 14.09 0.0 0 0.00 0.00 0.00 0.00
02/19/19 4:22:24 AM 277 6.0 25.0 25 47 73.3 41.5 30.143 14.09 0.0 0 0.00 0.00 0.00 0.00
02/19/19 4:23:18 AM 281 7.0 25.0 25 47 73.3 41.5 30.143 14.09 0.0 0 0.00 0.00 0.00 0.00
02/19/19 4:24:33 AM 279 10.0 25.0 25 47 73.3 41.5 30.146 14.09 0.0 0 0.00 0.00 0.00 0.00
02/19/19 4:25:26 AM 302 13.0 25.0 25 47 73.3 41.5 30.146 14.09 0.0 0 0.00 0.00 0.00 0.00
02/19/19 4:26:20 AM 296 9.0 25.0 25 47 73.3 41.5 30.146 14.09 0.0 0 0.00 0.00 0.00 0.00
02/19/19 4:27:29 AM 298 11.0 25.0 25 47 73.3 41.6 30.148 14.09 0.0 0 0.00 0.00 0.00 0.00
02/19/19 4:28:19 AM 297 8.0 25.0 25 47 73.3 41.6 30.148 14.09 0.0 0 0.00 0.00 0.00 0.00
02/19/19 4:29:35 AM 314 8.0 25.0 25 47 73.3 41.7 30.149 14.09 0.0 0 0.00 0.00 0.00 0.00
02/19/19 4:30:31 AM 290 10.0 25.0 25 46 73.3 41.7 30.149 14.09 0.0 0 0.00 0.00 0.00 0.00
02/19/19 4:31:22 AM 271 13.0 25.0 25 46 73.3 41.7 30.149 14.09 0.0 0 0.00 0.00 0.00 0.00
02/19/19 4:32:37 AM 265 8.0 25.0 25 46 73.3 41.8 30.150 14.09 0.0 0 0.00 0.00 0.00 0.00
02/19/19 4:33:24 AM 294 8.0 25.0 25 46 73.3 41.8 30.150 14.09 0.0 0 0.00 0.00 0.00 0.00
02/19/19 4:34:18 AM 292 13.0 25.0 25 46 73.3 41.8 30.151 14.09 0.0 0 0.00 0.00 0.00 0.00
02/19/19 4:35:30 AM 323 12.0 25.0 25 46 73.3 41.8 30.149 14.09 0.0 0 0.00 0.00 0.00 0.00
02/19/19 4:36:20 AM 296 7.0 25.0 25 46 73.3 41.8 30.149 14.09 0.0 0 0.00 0.00 0.00 0.00
02/19/19 4:37:35 AM 276 11.0 25.0 25 46 73.3 41.9 30.152 14.09 0.0 0 0.00 0.00 0.00 0.00
02/19/19 4:38:25 AM 270 7.0 25.0 25 46 73.3 41.8 30.152 14.09 0.0 0 0.00 0.00 0.00 0.00
02/19/19 4:39:19 AM 271 7.0 25.0 25 46 73.3 41.8 30.153 14.09 0.0 0 0.00 0.00 0.00 0.00
02/19/19 4:40:31 AM 315 10.0 25.0 25 46 73.3 41.8 30.153 14.09 0.0 0 0.00 0.00 0.00 0.00
02/19/19 4:41:25 AM 293 10.0 25.0 25 46 73.3 41.8 30.153 14.09 0.0 0 0.00 0.00 0.00 0.00
02/19/19 4:42:36 AM 308 7.0 25.0 25 46 73.3 41.8 30.154 14.09 0.0 0 0.00 0.00 0.00 0.00
02/19/19 4:43:30 AM 302 8.0 25.0 25 46 73.3 41.8 30.155 14.09 0.0 0 0.00 0.00 0.00 0.00
02/19/19 4:44:18 AM 295 7.0 25.0 25 46 73.3 41.8 30.155 14.09 0.0 0 0.00 0.00 0.00 0.00
02/19/19 4:45:36 AM 331 9.0 25.0 25 46 73.3 41.8 30.153 14.09 0.0 0 0.00 0.00 0.00 0.00
02/19/19 4:46:26 AM 320 9.0 25.0 25 46 73.3 41.8 30.157 14.09 0.0 0 0.00 0.00 0.00 0.00
02/19/19 4:47:17 AM 298 7.0 25.0 25 47 73.3 41.8 30.157 14.09 0.0 0 0.00 0.00 0.00 0.00
02/19/19 4:48:32 AM 305 7.0 25.0 25 47 73.3 41.7 30.153 14.09 0.0 0 0.00 0.00 0.00 0.00
02/19/19 4:49:19 AM 292 10.0 25.0 25 47 73.3 41.7 30.153 14.09 0.0 0 0.00 0.00 0.00 0.00
02/19/19 4:50:31 AM 286 9.0 25.0 25 47 73.3 41.6 30.158 14.09 0.0 0 0.00 0.00 0.00 0.00
02/19/19 4:51:25 AM 306 7.0 25.0 25 47 73.3 41.6 30.157 14.09 0.0 0 0.00 0.00 0.00 0.00
02/19/19 4:52:18 AM 302 9.0 25.0 25 47 73.3 41.6 30.157 14.09 0.0 0 0.00 0.00 0.00 0.00
02/19/19 4:53:30 AM 298 11.0 25.0 25 47 73.3 41.5 30.160 14.09 0.0 0 0.00 0.00 0.00 0.00
02/19/19 4:54:24 AM 304 12.0 25.0 25 47 73.3 41.5 30.160 14.09 0.0 0 0.00 0.00 0.00 0.00
02/19/19 4:55:32 AM 316 13.0 25.0 25 47 73.3 41.5 30.157 14.09 0.0 0 0.00 0.00 0.00 0.00
02/19/19 4:56:26 AM 306 13.0 25.0 25 47 73.3 41.5 30.157 14.09 0.0 0 0.00 0.00 0.00 0.00
02/19/19 4:57:17 AM 310 5.0 25.0 25 47 73.3 41.5 30.157 14.09 0.0 0 0.00 0.00 0.00 0.00
02/19/19 4:58:32 AM 323 16.0 25.0 25 47 73.3 41.5 30.159 14.09 0.0 0 0.00 0.00 0.00 0.00
02/19/19 4:59:22 AM 307 11.0 25.0 25 46 73.3 41.5 30.159 14.09 0.0 0 0.00 0.00 0.00 0.00
02/19/19 5:00:34 AM 309 5.0 25.0 25 46 73.3 41.6 30.155 14.09 0.0 0 0.00 0.00 0.00 0.00
02/19/19 5:01:28 AM 323 9.0 25.0 25 46 73.2 41.6 30.161 14.09 0.0 0 0.00 0.00 0.00 0.00
02/19/19 5:02:21 AM 309 7.0 25.0 25 47 73.2 41.6 30.161 14.09 0.0 0 0.00 0.00 0.00 0.00
02/19/19 5:03:33 AM 326 12.0 25.0 25 47 73.3 41.6 30.157 14.09 0.0 0 0.00 0.00 0.00 0.00
02/19/19 5:04:27 AM 321 10.0 25.0 25 47 73.3 41.6 30.154 14.09 0.0 0 0.00 0.00 0.00 0.00
02/19/19 5:05:21 AM 329 10.0 25.0 25 47 73.3 41.5 30.154 14.09 0.0 0 0.00 0.00 0.00 0.00
02/19/19 5:06:27 AM 311 12.0 25.0 25 47 73.2 41.4 30.159 14.09 0.0 0 0.00 0.00 0.00 0.00
02/19/19 5:07:20 AM 323 12.0 25.0 25 47 73.2 41.4 30.159 14.09 0.0 0 0.00 0.00 0.00 0.00
02/19/19 5:08:32 AM 332 11.0 25.0 25 46 73.2 41.4 30.159 14.09 0.0 0 0.00 0.00 0.00 0.00
02/19/19 5:09:23 AM 340 10.0 25.0 25 46 73.2 41.3 30.159 14.09 0.0 0 0.00 0.00 0.00 0.00
02/19/19 5:10:38 AM 296 8.0 25.0 25 46 73.2 41.4 30.157 14.09 0.0 0 0.00 0.00 0.00 0.00
02/19/19 5:11:26 AM 312 11.0 25.0 25 46 73.2 41.4 30.157 14.09 0.0 0 0.00 0.00 0.00 0.00
02/19/19 5:12:20 AM 326 10.0 25.0 25 46 73.2 41.4 30.157 14.09 0.0 0 0.00 0.00 0.00 0.00
02/19/19 5:13:32 AM 335 13.0 25.0 25 46 73.2 41.4 30.158 14.09 0.0 0 0.00 0.00 0.00 0.00
02/19/19 5:14:26 AM 326 10.0 25.0 25 46 73.3 41.4 30.156 14.09 0.0 0 0.00 0.00 0.00 0.00
02/19/19 5:15:23 AM 304 7.0 25.0 25 46 73.3 41.4 30.156 14.09 0.0 0 0.00 0.00 0.00 0.00
02/19/19 5:16:32 AM 317 8.0 25.0 25 47 73.3 41.4 30.158 14.09 0.0 0 0.00 0.00 0.00 0.00
02/19/19 5:17:25 AM 318 12.0 25.0 25 47 73.2 41.3 30.158 14.09 0.0 0 0.00 0.00 0.00 0.00
02/19/19 5:18:19 AM 322 6.0 25.0 25 47 73.2 41.3 30.158 14.09 0.0 0 0.00 0.00 0.00 0.00
02/19/19 5:19:31 AM 327 8.0 25.0 25 46 73.2 41.3 30.158 14.09 0.0 0 0.00 0.00 0.00 0.00
02/19/19 5:20:25 AM 321 17.0 25.0 25 47 73.2 41.3 30.158 14.09 0.0 0 0.00 0.00 0.00 0.00
02/19/19 5:21:16 AM 346 15.0 25.0 25 46 73.2 41.3 30.161 14.09 0.0 0 0.00 0.00 0.00 0.00
02/19/19 5:22:25 AM 345 6.0 25.0 25 44 73.2 41.3 30.157 14.09 0.0 0 0.00 0.00 0.00 0.00
02/19/19 5:23:37 AM 329 8.0 25.0 25 46 73.2 41.4 30.164 14.09 0.0 0 0.00 0.00 0.00 0.00
02/19/19 5:24:28 AM 304 8.0 25.0 25 46 73.2 41.4 30.159 14.09 0.0 0 0.00 0.00 0.00 0.00
02/19/19 5:25:22 AM 298 8.0 25.0 25 46 73.2 41.4 30.159 14.09 0.0 0 0.00 0.00 0.00 0.00
02/19/19 5:26:34 AM 325 8.0 25.0 25 46 73.2 41.4 30.160 14.09 0.0 0 0.00 0.00 0.00 0.00
02/19/19 5:27:21 AM 304 8.0 25.0 25 46 73.2 41.3 30.160 14.09 0.0 0 0.00 0.00 0.00 0.00
02/19/19 5:28:33 AM 294 7.0 25.0 25 46 73.1 41.3 30.164 14.09 0.0 0 0.00 0.00 0.00 0.00
02/19/19 5:29:27 AM 311 9.0 25.0 25 46 73.1 41.3 30.164 14.09 0.0 0 0.00 0.00 0.00 0.00
02/19/19 5:30:24 AM 304 9.0 25.0 25 46 73.1 41.2 30.164 14.09 0.0 0 0.00 0.00 0.00 0.00
02/19/19 5:31:36 AM 326 10.0 25.0 25 46 73.1 41.2 30.160 14.09 0.0 0 0.00 0.00 0.00 0.00
02/19/19 5:32:27 AM 309 9.0 25.0 25 47 73.1 41.2 30.162 14.09 0.0 0 0.00 0.00 0.00 0.00
02/19/19 5:33:33 AM 323 11.0 25.0 25 47 73.1 41.1 30.161 14.09 0.0 0 0.00 0.00 0.00 0.00
02/19/19 5:34:24 AM 308 8.0 25.0 25 47 73.1 41.1 30.164 14.09 0.0 0 0.00 0.00 0.00 0.00
02/19/19 5:35:36 AM 316 12.0 25.0 25 47 73.1 41.1 30.165 14.09 0.0 0 0.00 0.00 0.00 0.00
02/19/19 5:36:30 AM 326 10.0 25.0 25 47 73.1 41.0 30.164 14.09 0.0 0 0.00 0.00 0.00 0.00
02/19/19 5:37:21 AM 323 10.0 25.0 25 47 73.1 41.0 30.164 14.09 0.0 0 0.00 0.00 0.00 0.00
02/19/19 5:38:33 AM 343 6.0 25.0 25 48 73.0 41.0 30.162 14.09 0.0 0 0.00 0.00 0.00 0.00
02/19/19 5:39:24 AM 324 4.0 25.0 25 48 73.0 41.0 30.162 14.09 0.0 0 0.00 0.00 0.00 0.00
02/19/19 5:40:17 AM 323 6.0 25.0 25 48 73.0 40.9 30.164 14.09 0.0 0 0.00 0.00 0.00 0.00
02/19/19 5:41:30 AM 288 10.0 25.0 25 48 73.0 40.9 30.164 14.09 0.0 0 0.00 0.00 0.00 0.00
02/19/19 5:42:23 AM 346 14.0 25.0 25 48 73.0 40.8 30.164 14.09 0.0 0 0.00 0.00 0.00 0.00
02/19/19 5:43:32 AM 300 7.0 25.0 25 48 73.0 40.8 30.165 14.09 0.0 0 0.00 0.00 0.00 0.00
02/19/19 5:44:23 AM 323 8.0 25.0 25 48 72.9 40.8 30.165 14.09 0.0 0 0.00 0.00 0.00 0.00
02/19/19 5:45:23 AM 304 8.0 25.0 25 48 72.9 40.8 30.166 14.09 0.0 0 0.00 0.00 0.00 0.00
02/19/19 5:46:35 AM 337 8.0 25.0 25 48 72.8 40.8 30.165 14.09 0.0 0 0.00 0.00 0.00 0.00
02/19/19 5:47:26 AM 330 5.0 25.0 25 48 72.9 40.8 30.166 14.09 0.0 0 0.00 0.00 0.00 0.00
02/19/19 5:48:20 AM 311 9.0 25.0 25 48 72.9 40.7 30.166 14.09 0.0 0 0.00 0.00 0.00 0.00
02/19/19 5:49:29 AM 317 6.0 25.0 25 48 72.8 40.7 30.165 14.09 0.0 0 0.00 0.00 0.00 0.00
02/19/19 5:50:23 AM 293 4.0 25.0 25 48 72.8 40.7 30.165 14.09 0.0 0 0.00 0.00 0.00 0.00
02/19/19 5:51:35 AM 329 12.0 25.0 25 48 72.8 40.7 30.166 14.09 0.0 0 0.00 0.00 0.00 0.00
02/19/19 5:52:29 AM 318 8.0 25.0 25 48 72.7 40.7 30.169 14.09 0.0 0 0.00 0.00 0.00 0.00
02/19/19 5:53:20 AM 309 10.0 25.0 25 48 72.7 40.7 30.169 14.09 0.0 0 0.00 0.00 0.00 0.00
02/19/19 5:54:29 AM 320 8.0 25.0 25 48 72.7 40.7 30.169 14.09 0.0 0 0.00 0.00 0.00 0.00
02/19/19 5:55:23 AM 338 14.0 25.0 25 48 72.7 40.7 30.169 14.09 0.0 0 0.00 0.00 0.00 0.00
02/19/19 5:56:32 AM 317 9.0 25.0 25 48 72.7 40.7 30.167 14.09 0.0 0 0.00 0.00 0.00 0.00
02/19/19 5:57:26 AM 333 6.0 25.0 25 48 72.7 40.7 30.168 14.09 0.0 0 0.00 0.00 0.00 0.00
02/19/19 5:58:20 AM 326 6.0 25.0 25 49 72.7 40.7 30.168 14.09 0.0 0 0.00 0.00 0.00 0.00
02/19/19 5:59:32 AM 289 11.0 25.0 25 48 72.6 40.7 30.169 14.09 0.0 0 0.00 0.00 0.00 0.00
02/19/19 6:00:23 AM 296 5.0 25.0 25 48 72.6 40.6 30.169 14.09 0.0 0 0.00 0.00 0.00 0.00
02/19/19 6:01:17 AM 290 7.0 25.0 25 49 72.6 40.6 30.168 14.09 0.0 0 0.00 0.00 0.00 0.00
02/19/19 6:02:30 AM 294 7.0 25.0 25 48 72.5 40.6 30.169 14.09 0.0 0 0.00 0.00 0.00 0.00
02/19/19 6:03:23 AM 327 5.0 25.0 25 48 72.5 40.6 30.169 14.09 0.0 0 0.00 0.00 0.00 0.00
02/19/19 6:04:36 AM 327 10.0 25.0 25 48 72.5 40.5 30.165 14.09 0.0 0 0.00 0.00 0.00 0.00
02/19/19 6:05:27 AM 321 8.0 25.0 25 48 72.5 40.6 30.163 14.09 0.0 0 0.00 0.00 0.00 0.00
02/19/19 6:06:18 AM 329 5.0 25.0 25 48 72.5 40.6 30.163 14.09 0.0 0 0.00 0.00 0.00 0.00
02/19/19 6:07:30 AM 327 6.0 25.0 25 49 72.4 40.6 30.165 14.09 0.0 0 0.00 0.00 0.00 0.00
02/19/19 6:08:24 AM 332 8.0 25.0 25 48 72.4 40.6 30.165 14.09 0.0 0 0.00 0.00 0.00 0.00
02/19/19 6:09:33 AM 317 8.0 25.0 25 49 72.4 40.6 30.165 14.09 0.0 0 0.00 0.00 0.00 0.00
02/19/19 6:10:27 AM 319 6.0 25.0 25 49 72.4 40.6 30.166 14.09 0.0 0 0.00 0.00 0.00 0.00
02/19/19 6:11:36 AM 304 7.0 25.0 25 49 72.3 40.5 30.167 14.09 0.0 0 0.00 0.00 0.00 0.00
02/19/19 6:12:27 AM 332 6.0 25.0 25 49 72.3 40.5 30.168 14.09 0.0 0 0.00 0.00 0.00 0.00
02/19/19 6:13:21 AM 315 5.0 25.0 25 49 72.3 40.4 30.168 14.09 0.0 0 0.00 0.00 0.00 0.00
02/19/19 6:14:33 AM 327 11.0 25.0 25 48 72.3 40.4 30.168 14.09 0.0 0 0.00 0.00 0.00 0.00
02/19/19 6:15:27 AM 329 9.0 25.0 25 49 72.3 40.4 30.168 14.09 0.0 0 0.00 0.00 0.00 0.00
02/19/19 6:16:36 AM 313 9.0 25.0 25 49 72.2 40.5 30.166 14.09 0.0 0 0.00 0.00 0.00 0.00
02/19/19 6:17:27 AM 322 5.0 25.0 25 49 72.2 40.4 30.169 14.09 0.0 0 0.00 0.00 0.00 0.00
02/19/19 6:18:21 AM 325 12.0 25.0 25 49 72.2 40.4 30.169 14.09 0.0 0 0.00 0.00 0.00 0.00
02/19/19 6:19:33 AM 344 5.0 25.0 25 49 72.1 40.4 30.167 14.09 0.0 0 0.00 0.00 0.00 0.00
02/19/19 6:20:27 AM 325 11.0 25.0 25 49 72.2 40.4 30.171 14.09 0.0 0 0.00 0.00 0.00 0.00
02/19/19 6:21:21 AM 317 10.0 25.0 25 48 72.2 40.4 30.171 14.09 0.0 0 0.00 0.00 0.00 0.00
02/19/19 6:22:27 AM 321 11.0 25.0 25 47 72.2 40.5 30.172 14.09 0.0 0 0.00 0.00 0.00 0.00
02/19/19 6:23:21 AM 343 8.0 25.0 25 47 72.2 40.5 30.172 14.09 0.0 0 0.00 0.00 0.00 0.00
02/19/19 6:24:33 AM 340 9.0 25.0 25 47 72.1 40.6 30.171 14.09 0.0 0 0.00 0.00 0.00 0.00
02/19/19 6:25:24 AM 341 9.0 25.0 25 47 72.1 40.7 30.171 14.09 0.0 0 0.00 0.00 0.00 0.00
02/19/19 6:26:18 AM 347 9.0 25.0 25 47 72.1 40.7 30.169 14.09 0.0 0 0.00 0.00 0.00 0.00
02/19/19 6:27:24 AM 326 9.0 25.0 25 48 72.1 40.7 30.170 14.09 0.0 0 0.00 0.00 0.00 0.00
02/19/19 6:28:18 AM 334 11.0 25.0 25 48 72.1 40.7 30.174 14.09 0.0 0 0.00 0.00 0.00 0.00
02/19/19 6:29:31 AM 334 8.0 25.0 25 47 72.1 40.8 30.169 14.09 0.0 0 0.00 0.00 0.00 0.00
02/19/19 6:30:28 AM 312 8.0 25.0 25 47 72.1 40.8 30.169 14.09 0.0 0 0.00 0.00 0.00 0.00
02/19/19 6:31:18 AM 341 8.0 25.0 25 47 72.0 40.8 30.170 14.09 0.0 5 0.00 0.00 0.00 0.00
02/19/19 6:32:28 AM 313 8.0 25.0 25 48 72.0 40.8 30.167 14.09 0.0 5 0.00 0.00 0.00 0.00
02/19/19 6:33:19 AM 328 12.0 25.0 25 48 72.0 40.8 30.167 14.09 0.0 5 0.00 0.00 0.00 0.00
02/19/19 6:34:31 AM 325 9.0 25.0 25 46 72.0 40.8 30.169 14.09 0.0 5 0.00 0.00 0.00 0.00
02/19/19 6:35:25 AM 326 8.0 25.0 25 46 72.0 40.9 30.167 14.09 0.0 7 0.00 0.00 0.00 0.00
02/19/19 6:36:16 AM 325 14.0 25.0 25 46 72.0 40.9 30.167 14.09 0.0 7 0.00 0.00 0.00 0.00
02/19/19 6:37:28 AM 340 10.0 25.0 25 46 71.9 41.0 30.167 14.09 0.0 7 0.00 0.00 0.00 0.00
02/19/19 6:38:19 AM 336 4.0 25.0 25 46 71.9 41.0 30.167 14.09 0.0 7 0.00 0.00 0.00 0.00
02/19/19 6:39:31 AM 355 6.0 25.0 25 46 71.9 41.1 30.170 14.09 0.0 7 0.00 0.00 0.00 0.00
02/19/19 6:40:25 AM 336 11.0 25.0 25 46 71.9 41.1 30.171 14.09 0.0 7 0.00 0.00 0.00 0.00
02/19/19 6:41:16 AM 339 12.0 25.0 25 46 71.9 41.1 30.171 14.09 0.0 9 0.00 0.00 0.00 0.00
02/19/19 6:42:32 AM 13 10.0 25.0 25 46 71.9 41.1 30.172 14.09 0.0 9 0.00 0.00 0.00 0.00
02/19/19 6:43:19 AM 331 11.0 25.0 25 46 71.9 41.1 30.172 14.09 0.0 11 0.00 0.00 0.00 0.00
02/19/19 6:44:31 AM 321 11.0 25.0 25 46 71.9 41.1 30.172 14.09 0.0 11 0.00 0.00 0.00 0.00
02/19/19 6:45:29 AM 320 9.0 25.0 25 47 71.9 41.1 30.172 14.09 0.0 11 0.00 0.00 0.00 0.00
02/19/19 6:46:20 AM 341 5.0 25.0 25 47 71.9 41.0 30.171 14.09 0.0 11 0.00 0.00 0.00 0.00
02/19/19 6:47:35 AM 335 9.0 25.0 25 48 71.9 41.0 30.171 14.09 0.0 11 0.00 0.00 0.00 0.00
02/19/19 6:48:29 AM 344 6.0 25.0 25 47 71.8 41.0 30.171 14.09 0.0 11 0.00 0.00 0.00 0.00
02/19/19 6:49:17 AM 346 6.0 25.0 25 47 71.8 41.0 30.171 14.09 0.0 14 0.00 0.00 0.00 0.00
02/19/19 6:50:32 AM 345 5.0 25.0 25 47 71.9 40.9 30.173 14.09 0.0 14 0.00 0.00 0.00 0.00
02/19/19 6:51:23 AM 344 4.0 25.0 25 48 71.9 40.9 30.173 14.09 0.0 14 0.00 0.00 0.00 0.00
02/19/19 6:52:35 AM 302 5.0 25.0 25 47 71.8 40.9 30.173 14.09 0.0 14 0.00 0.00 0.00 0.00
02/19/19 6:53:29 AM 325 9.0 25.0 25 47 71.8 40.9 30.176 14.09 0.0 16 0.00 0.00 0.00 0.00
02/19/19 6:54:20 AM 336 9.0 25.0 25 47 71.8 40.9 30.176 14.09 0.0 16 0.00 0.00 0.00 0.00
02/19/19 6:55:32 AM 319 5.0 25.0 25 47 71.8 40.9 30.174 14.09 0.0 16 0.00 0.00 0.00 0.00
02/19/19 6:56:23 AM 315 10.0 25.0 25 47 71.8 40.9 30.174 14.09 0.0 16 0.00 0.00 0.00 0.00
02/19/19 6:57:17 AM 344 8.0 25.0 25 47 71.8 40.9 30.178 14.09 0.0 16 0.00 0.00 0.00 0.00
02/19/19 6:58:29 AM 325 10.0 25.0 25 47 71.8 40.9 30.174 14.09 0.0 16 0.00 0.00 0.00 0.00
02/19/19 6:59:20 AM 341 11.0 25.0 25 47 71.8 40.9 30.174 14.09 0.0 21 0.00 0.00 0.00 0.00
02/19/19 7:00:36 AM 315 6.0 25.0 25 46 71.8 40.9 30.177 14.09 0.0 25 0.00 0.00 0.00 0.00
02/19/19 7:01:27 AM 330 10.0 25.0 25 47 71.8 41.0 30.178 14.09 0.0 26 0.00 0.00 0.00 0.00
02/19/19 7:02:21 AM 317 8.0 25.0 25 47 71.8 41.0 30.178 14.09 0.0 28 0.00 0.00 0.00 0.00
02/19/19 7:03:33 AM 327 11.0 25.0 25 48 71.8 41.0 30.175 14.09 0.0 28 0.00 0.00 0.00 0.00
02/19/19 7:04:27 AM 327 8.0 25.0 25 47 71.7 41.0 30.176 14.09 0.0 28 0.00 0.00 0.00 0.00
02/19/19 7:05:37 AM 325 17.0 25.0 25 47 71.7 41.0 30.177 14.09 0.0 37 0.00 0.00 0.00 0.00
02/19/19 7:06:28 AM 332 11.0 25.0 25 46 71.8 41.1 30.180 14.09 0.0 37 0.00 0.00 0.00 0.00
02/19/19 7:07:22 AM 308 12.0 25.0 25 45 71.8 41.2 30.180 14.09 0.0 42 0.00 0.00 0.00 0.00
02/19/19 7:08:34 AM 331 12.0 25.0 25 45 71.7 41.3 30.179 14.09 0.0 44 0.00 0.00 0.00 0.00
02/19/19 7:09:28 AM 342 10.0 25.0 25 45 71.7 41.4 30.178 14.09 0.0 47 0.00 0.00 0.00 0.00
02/19/19 7:10:19 AM 321 9.0 25.0 25 45 71.7 41.4 30.178 14.09 0.0 49 0.00 0.00 0.00 0.00
02/19/19 7:11:25 AM 296 10.0 25.0 25 47 71.7 41.5 30.178 14.09 0.0 49 0.00 0.00 0.00 0.00
02/19/19 7:12:19 AM 322 13.0 25.0 25 46 71.7 41.5 30.178 14.09 0.0 54 0.00 0.00 0.00 0.00
02/19/19 7:13:32 AM 343 8.0 25.0 25 45 71.7 41.5 30.182 14.09 0.0 54 0.00 0.00 0.00 0.00
02/19/19 7:14:26 AM 330 10.0 25.0 25 44 71.7 41.6 30.181 14.09 0.0 60 0.00 0.00 0.00 0.00
02/19/19 7:15:23 AM 326 11.0 25.0 25 45 71.7 41.6 30.181 14.09 0.0 60 0.00 0.00 0.00 0.00
02/19/19 7:16:32 AM 5 10.0 25.0 25 45 71.7 41.6 30.180 14.09 0.0 69 0.00 0.00 0.00 0.00
02/19/19 7:17:23 AM 323 15.0 25.0 25 45 71.7 41.6 30.180 14.09 0.0 70 0.00 0.00 0.00 0.00
02/19/19 7:18:35 AM 327 16.0 25.0 25 44 71.7 41.7 30.181 14.09 0.0 70 0.00 0.00 0.00 0.00
02/19/19 7:19:29 AM 333 16.0 25.0 25 44 71.7 41.8 30.185 14.09 0.0 77 0.00 0.00 0.00 0.00
02/19/19 7:20:20 AM 325 23.0 25.0 25 44 71.7 41.8 30.185 14.09 0.0 81 0.00 0.00 0.00 0.00
02/19/19 7:21:30 AM 338 16.0 25.0 25 44 71.7 41.9 30.185 14.09 0.0 84 0.00 0.00 0.00 0.00
02/19/19 7:22:23 AM 5 8.0 25.0 25 43 71.7 41.9 30.185 14.09 0.0 86 0.00 0.00 0.00 0.00
02/19/19 7:23:18 AM 341 12.0 25.0 25 43 71.7 42.0 30.182 14.09 0.0 90 0.00 0.00 0.00 0.00
02/19/19 7:24:27 AM 336 19.0 25.0 25 42 71.7 42.0 30.181 14.09 0.0 90 0.00 0.00 0.00 0.00
02/19/19 7:25:21 AM 351 19.0 25.0 25 42 71.7 42.1 30.181 14.09 0.0 97 0.00 0.00 0.00 0.00
02/19/19 7:26:33 AM 347 11.0 25.0 25 42 71.7 42.2 30.182 14.09 0.0 97 0.00 0.00 0.00 0.00
02/19/19 7:27:24 AM 348 12.0 25.0 25 43 71.7 42.2 30.182 14.09 0.0 104 0.00 0.00 0.00 0.00
02/19/19 7:28:34 AM 330 12.0 25.0 25 43 71.7 42.3 30.185 14.09 0.0 107 0.00 0.00 0.00 0.00
02/19/19 7:29:28 AM 323 11.0 25.0 25 42 71.6 42.3 30.190 14.09 0.0 111 0.00 0.00 0.00 0.00
02/19/19 7:30:25 AM 329 11.0 25.0 25 44 71.6 42.3 30.190 14.09 0.0 111 0.00 0.00 0.00 0.00
02/19/19 7:31:16 AM 330 15.0 25.0 25 43 71.6 42.3 30.183 14.09 0.0 118 0.00 0.00 0.00 0.00
02/19/19 7:32:25 AM 322 11.0 25.0 25 42 71.7 42.4 30.186 14.09 0.0 125 0.00 0.00 0.00 0.00
02/19/19 7:33:19 AM 326 14.0 25.0 25 44 71.7 42.4 30.186 14.09 0.0 128 0.00 0.00 0.00 0.00
02/19/19 7:34:35 AM 360 13.0 25.0 25 44 71.6 42.4 30.184 14.09 0.0 128 0.00 0.00 0.00 0.00
02/19/19 7:35:26 AM 324 18.0 25.0 25 44 71.6 42.4 30.188 14.09 0.0 128 0.00 0.00 0.00 0.00
02/19/19 7:36:20 AM 325 14.0 25.0 25 43 71.6 42.4 30.188 14.09 0.0 141 0.00 0.00 0.00 0.00
02/19/19 7:37:32 AM 336 13.0 25.0 25 43 71.5 42.5 30.187 14.09 0.0 144 0.00 0.00 0.00 0.00
02/19/19 7:38:20 AM 333 14.0 25.0 25 43 71.5 42.5 30.187 14.09 0.0 148 0.00 0.00 0.00 0.00
02/19/19 7:39:33 AM 344 17.0 25.0 25 44 71.6 42.5 30.188 14.09 0.0 151 0.00 0.00 0.00 0.00
02/19/19 7:40:27 AM 329 8.0 25.0 25 43 71.5 42.5 30.186 14.09 0.0 155 0.00 0.00 0.00 0.00
02/19/19 7:41:21 AM 337 16.0 25.0 25 43 71.5 42.5 30.186 14.09 0.0 158 0.00 0.00 0.00 0.00
02/19/19 7:42:31 AM 334 13.0 25.0 25 42 71.5 42.5 30.188 14.09 0.0 162 0.00 0.00 0.00 0.00
02/19/19 7:43:22 AM 348 11.0 25.0 25 44 71.5 42.6 30.188 14.09 0.0 165 0.00 0.00 0.00 0.00
02/19/19 7:44:34 AM 351 17.0 25.0 25 43 71.6 42.6 30.195 14.09 0.0 174 0.00 0.00 0.00 0.00
02/19/19 7:45:28 AM 333 18.0 25.0 25 43 71.5 42.7 30.195 14.09 0.0 174 0.00 0.00 0.00 0.00
02/19/19 7:46:23 AM 344 13.0 25.0 25 44 71.5 42.6 30.189 14.09 0.0 174 0.00 0.00 0.00 0.00
02/19/19 7:47:35 AM 333 14.0 25.0 25 42 71.5 42.7 30.183 14.09 0.0 181 0.00 0.00 0.00 0.00
02/19/19 7:48:26 AM 345 11.0 25.0 25 42 71.5 42.7 30.188 14.09 0.0 181 0.00 0.00 0.00 0.00
02/19/19 7:49:18 AM 319 18.0 25.0 25 44 71.5 42.7 30.188 14.09 0.0 193 0.00 0.00 0.00 0.00
02/19/19 7:50:30 AM 9 10.0 25.0 25 43 71.5 42.8 30.189 14.09 0.0 195 0.00 0.00 0.00 0.00
02/19/19 7:51:24 AM 348 8.0 25.0 25 43 71.5 42.8 30.189 14.09 0.0 199 0.00 0.00 0.00 0.00
02/19/19 7:52:37 AM 316 16.0 25.0 25 43 71.5 42.9 30.193 14.09 0.0 202 0.00 0.00 0.00 0.00
02/19/19 7:53:31 AM 333 18.0 25.0 25 42 71.5 42.9 30.188 14.09 0.0 207 0.00 0.00 0.00 0.00
02/19/19 7:54:19 AM 321 13.0 25.0 25 41 71.5 43.0 30.188 14.09 0.0 207 0.00 0.00 0.00 0.00
02/19/19 7:55:32 AM 355 10.0 25.0 25 39 71.5 43.0 30.188 14.09 0.0 214 0.00 0.00 0.00 0.00
02/19/19 7:56:26 AM 5 10.0 25.0 25 39 71.5 43.1 30.186 14.09 0.0 218 0.00 0.00 0.00 0.00
02/19/19 7:57:17 AM 9 8.0 25.0 25 39 71.5 43.2 30.186 14.09 0.0 221 0.00 0.00 0.00 0.00
02/19/19 7:58:30 AM 360 11.0 25.0 25 39 71.5 43.3 30.192 14.09 0.0 225 0.00 0.00 0.00 0.00
02/19/19 7:59:21 AM 333 11.0 25.0 25 40 71.5 43.4 30.192 14.09 0.0 225 0.00 0.00 0.00 0.00
02/19/19 8:00:34 AM 355 12.0 25.0 25 41 71.5 43.4 30.195 14.09 0.0 225 0.00 0.00 0.00 0.00
02/19/19 8:01:25 AM 22 11.0 25.0 25 40 71.5 43.5 30.195 14.09 0.0 225 0.00 0.00 0.00 0.00
02/19/19 8:02:17 AM 336 11.0 25.0 25 40 71.5 43.5 30.195 14.09 0.0 225 0.00 0.00 0.00 0.00
02/19/19 8:03:29 AM 344 20.0 25.0 25 40 71.5 43.6 30.190 14.09 0.0 241 0.00 0.00 0.00 0.00
02/19/19 8:04:20 AM 336 10.0 25.0 25 38 71.5 43.6 30.190 14.09 0.0 241 0.00 0.00 0.00 0.00
02/19/19 8:05:30 AM 331 10.0 25.0 25 37 71.5 43.7 30.192 14.09 0.5 250 0.00 0.00 0.00 0.00
02/19/19 8:06:24 AM 326 14.0 25.0 25 38 71.5 43.8 30.192 14.09 0.5 250 0.00 0.00 0.00 0.00
02/19/19 8:07:15 AM 311 15.0 25.0 25 40 71.5 43.8 30.198 14.09 0.5 257 0.00 0.00 0.00 0.00
02/19/19 8:08:28 AM 338 14.0 25.0 25 41 71.5 43.8 30.194 14.09 0.5 257 0.00 0.00 0.00 0.00
02/19/19 8:09:19 AM 338 12.0 25.0 25 42 71.5 43.8 30.194 14.09 0.5 264 0.00 0.00 0.00 0.00
02/19/19 8:10:29 AM 328 14.0 25.0 25 41 71.5 43.8 30.197 14.09 0.5 267 0.00 0.00 0.00 0.00
02/19/19 8:11:20 AM 333 9.0 25.0 25 41 71.5 43.8 30.197 14.09 0.5 269 0.00 0.00 0.00 0.00
02/19/19 8:12:32 AM 339 9.0 25.0 25 39 71.5 43.8 30.195 14.09 0.6 269 0.00 0.00 0.00 0.00
02/19/19 8:13:24 AM 350 13.0 25.0 25 42 71.5 43.8 30.195 14.09 0.6 276 0.00 0.00 0.00 0.00
02/19/19 8:14:18 AM 344 16.0 25.0 25 42 71.5 43.8 30.200 14.09 0.6 276 0.00 0.00 0.00 0.00
02/19/19 8:15:34 AM 21 5.0 25.0 25 41 71.5 43.9 30.194 14.09 0.6 287 0.00 0.00 0.00 0.00
02/19/19 8:16:22 AM 355 5.0 25.0 25 41 71.5 43.9 30.194 14.09 0.6 287 0.00 0.00 0.00 0.00
02/19/19 8:17:35 AM 308 18.0 25.0 25 40 71.5 43.9 30.198 14.09 0.6 292 0.00 0.00 0.00 0.00
02/19/19 8:18:29 AM 317 12.0 25.0 25 40 71.5 43.9 30.191 14.09 0.6 295 0.00 0.00 0.00 0.00
02/19/19 8:19:21 AM 333 9.0 25.0 25 42 71.5 43.9 30.191 14.09 0.6 295 0.00 0.00 0.00 0.00
02/19/19 8:20:33 AM 323 14.0 25.0 25 41 71.5 43.9 30.200 14.09 0.6 302 0.00 0.00 0.00 0.00
02/19/19 8:21:21 AM 323 14.0 25.0 25 41 71.5 43.9 30.200 14.09 0.6 306 0.00 0.00 0.00 0.00
02/19/19 8:22:37 AM 5 8.0 25.0 25 41 71.5 44.0 30.200 14.09 0.7 308 0.00 0.00 0.00 0.00
02/19/19 8:23:28 AM 342 12.0 25.0 25 39 71.4 44.0 30.196 14.09 0.7 311 0.00 0.00 0.00 0.00
02/19/19 8:24:22 AM 321 14.0 25.0 25 41 71.4 44.1 30.196 14.09 0.7 311 0.00 0.00 0.00 0.00
02/19/19 8:25:35 AM 343 14.0 25.0 25 40 71.5 44.1 30.197 14.09 0.7 318 0.00 0.00 0.00 0.00
02/19/19 8:26:29 AM 336 9.0 25.0 25 39 71.5 44.2 30.197 14.09 0.7 322 0.00 0.00 0.00 0.00
02/19/19 8:27:18 AM 344 9.0 25.0 25 39 71.5 44.2 30.197 14.09 0.7 323 0.00 0.00 0.00 0.00
02/19/19 8:28:30 AM 340 9.0 25.0 25 40 71.5 44.3 30.192 14.09 0.7 327 0.00 0.00 0.00 0.00
02/19/19 8:29:22 AM 329 22.0 25.0 25 39 71.5 44.4 30.192 14.09 0.8 330 0.00 0.00 0.00 0.00
02/19/19 8:30:40 AM 333 15.0 25.0 25 39 71.5 44.5 30.201 14.09 0.8 338 0.00 0.00 0.00 0.00
02/19/19 8:31:31 AM 326 21.0 25.0 25 39 71.5 44.5 30.200 14.09 0.8 341 0.00 0.00 0.00 0.00
02/19/19 8:32:20 AM 325 22.0 25.0 25 39 71.5 44.5 30.200 14.09 0.8 341 0.00 0.00 0.00 0.00
02/19/19 8:33:36 AM 335 14.0 25.0 25 37 71.5 44.5 30.200 14.09 0.8 346 0.00 0.00 0.00 0.00
02/19/19 8:34:27 AM 339 12.0 25.0 25 37 71.4 44.5 30.200 14.09 0.8 350 0.00 0.00 0.00 0.00
02/19/19 8:35:18 AM 348 12.0 25.0 25 38 71.4 44.5 30.200 14.09 0.8 350 0.00 0.00 0.00 0.00
02/19/19 8:36:31 AM 311 9.0 25.0 25 39 71.5 44.5 30.198 14.09 0.9 355 0.00 0.00 0.00 0.00
02/19/19 8:37:22 AM 325 9.0 25.0 25 39 71.5 44.5 30.198 14.09 0.9 359 0.00 0.00 0.00 0.00
02/19/19 8:38:32 AM 327 16.0 25.0 25 36 71.4 44.5 30.198 14.09 0.9 362 0.00 0.00 0.00 0.00
02/19/19 8:39:23 AM 337 10.0 25.0 25 36 71.4 44.6 30.198 14.09 0.9 364 0.00 0.00 0.00 0.00
02/19/19 8:40:18 AM 10 7.0 25.0 25 36 71.5 44.6 30.203 14.09 0.9 364 0.00 0.00 0.00 0.00
02/19/19 8:41:31 AM 350 3.0 25.0 25 37 71.4 44.7 30.200 14.09 0.9 369 0.00 0.00 0.00 0.00
02/19/19 8:42:22 AM 351 3.0 25.0 25 38 71.4 44.7 30.200 14.09 0.9 369 0.00 0.00 0.00 0.00
02/19/19 8:43:32 AM 349 8.0 25.0 25 37 71.5 44.7 30.200 14.09 1.0 376 0.00 0.00 0.00 0.00
02/19/19 8:44:23 AM 335 13.0 25.0 25 39 71.5 44.8 30.200 14.09 1.0 378 0.00 0.00 0.00 0.00
02/19/19 8:45:20 AM 340 12.0 25.0 25 36 71.5 44.8 30.198 14.09 1.0 381 0.00 0.00 0.00 0.00
02/19/19 8:46:33 AM 25 3.0 25.0 25 37 71.5 44.8 30.202 14.09 1.0 388 0.00 0.00 0.00 0.00
02/19/19 8:47:27 AM 303 8.0 25.0 25 38 71.5 44.9 30.198 14.09 1.0 390 0.00 0.00 0.00 0.00
02/19/19 8:48:19 AM 323 6.0 25.0 25 37 71.5 44.9 30.198 14.09 1.0 390 0.00 0.00 0.00 0.00
02/19/19 8:49:28 AM 321 20.0 25.0 25 38 71.5 45.0 30.200 14.09 1.0 397 0.00 0.00 0.00 0.00
02/19/19 8:50:20 AM 322 14.0 25.0 25 36 71.5 45.1 30.200 14.09 1.0 397 0.00 0.00 0.00 0.00
02/19/19 8:51:32 AM 320 14.0 25.0 25 35 71.5 45.1 30.202 14.09 1.1 397 0.00 0.00 0.00 0.00
02/19/19 8:52:24 AM 323 9.0 25.0 25 35 71.5 45.2 30.202 14.09 1.1 406 0.00 0.00 0.00 0.00
02/19/19 8:53:18 AM 30 8.0 25.0 25 35 71.5 45.2 30.200 14.09 1.1 410 0.00 0.00 0.00 0.00
02/19/19 8:54:28 AM 355 9.0 25.0 25 34 71.5 45.2 30.203 14.09 1.1 410 0.00 0.00 0.00 0.00
02/19/19 8:55:16 AM 28 13.0 25.0 25 34 71.5 45.2 30.203 14.09 1.1 415 0.00 0.00 0.00 0.00
02/19/19 8:56:32 AM 360 10.0 25.0 25 34 71.5 45.2 30.201 14.09 1.2 415 0.00 0.00 0.00 0.00
02/19/19 8:57:23 AM 348 6.0 25.0 25 34 71.5 45.2 30.201 14.09 1.2 422 0.00 0.00 0.00 0.00
02/19/19 8:58:17 AM 290 12.0 25.0 25 34 71.5 45.2 30.202 14.09 1.2 424 0.00 0.00 0.00 0.00
02/19/19 8:59:24 AM 313 2.0 25.0 25 34 71.5 45.3 30.203 14.09 1.2 424 0.00 0.00 0.00 0.00
02/19/19 9:00:22 AM 319 4.0 25.0 25 34 71.5 45.2 30.203 14.09 1.2 431 0.00 0.00 0.00 0.00
02/19/19 9:01:35 AM 335 4.0 25.0 25 33 71.5 45.2 30.203 14.09 1.2 432 0.00 0.00 0.00 0.00
02/19/19 9:02:29 AM 270 2.0 25.0 25 32 71.5 45.3 30.201 14.09 1.2 438 0.00 0.00 0.00 0.00
02/19/19 9:03:17 AM 46 4.0 25.0 25 32 71.5 45.3 30.201 14.09 1.3 441 0.00 0.00 0.00 0.00
02/19/19 9:04:33 AM 333 8.0 25.0 25 32 71.5 45.2 30.206 14.09 1.3 441 0.00 0.00 0.00 0.00
02/19/19 9:05:21 AM 323 3.0 25.0 25 35 71.5 45.3 30.206 14.09 1.3 446 0.00 0.00 0.00 0.00
02/19/19 9:06:34 AM 327 6.0 25.0 25 33 71.5 45.4 30.205 14.09 1.3 446 0.00 0.00 0.00 0.00
02/19/19 9:07:25 AM 350 4.0 25.0 25 34 71.5 45.4 30.205 14.09 1.3 450 0.00 0.00 0.00 0.00
02/19/19 9:08:35 AM 50 7.0 25.0 25 35 71.5 45.5 30.206 14.09 1.3 454 0.00 0.00 0.00 0.00
02/19/19 9:09:26 AM 19 11.0 25.0 25 34 71.5 45.5 30.204 14.09 1.3 457 0.00 0.00 0.00 0.00
02/19/19 9:10:18 AM 360 2.0 25.0 25 34 71.5 45.4 30.204 14.09 1.4 457 0.00 0.00 0.00 0.00
02/19/19 9:11:31 AM 333 5.0 25.0 25 36 71.5 45.3 30.203 14.09 1.4 457 0.00 0.00 0.00 0.00
02/19/19 9:12:22 AM 10 3.0 25.0 25 36 71.5 45.4 30.203 14.09 1.4 466 0.00 0.00 0.00 0.00
02/19/19 9:13:35 AM 23 6.0 25.0 25 36 71.5 45.6 30.202 14.09 1.4 468 0.00 0.00 0.00 0.00
02/19/19 9:14:26 AM 21 2.0 25.0 25 37 71.5 45.7 30.206 14.09 1.4 468 0.00 0.00 0.00 0.00
02/19/19 9:15:24 AM 330 4.0 25.0 25 35 71.5 45.8 30.206 14.09 1.4 471 0.00 0.00 0.00 0.00
02/19/19 9:16:31 AM 322 17.0 25.0 25 36 71.4 45.8 30.205 14.09 1.4 480 0.00 0.00 0.00 0.00
02/19/19 9:17:22 AM 26 9.0 25.0 25 35 71.4 45.8 30.205 14.09 1.5 482 0.00 0.00 0.00 0.00
02/19/19 9:18:35 AM 345 5.0 25.0 25 35 71.4 45.8 30.199 14.09 1.5 485 0.00 0.00 0.00 0.00
02/19/19 9:19:26 AM 355 0.0 25.0 25 33 71.4 45.7 30.201 14.09 1.5 485 0.00 0.00 0.00 0.00
02/19/19 9:20:21 AM 28 6.0 25.0 25 35 71.4 45.6 30.201 14.09 1.5 489 0.00 0.00 0.00 0.00
02/19/19 9:21:28 AM 349 9.0 25.0 25 35 71.5 45.6 30.203 14.09 1.6 492 0.00 0.00 0.00 0.00
02/19/19 9:22:22 AM 11 4.0 25.0 25 35 71.5 45.7 30.203 14.09 1.6 496 0.00 0.00 0.00 0.00
02/19/19 9:23:35 AM 88 5.0 25.0 25 34 71.5 45.7 30.200 14.09 1.6 496 0.00 0.00 0.00 0.00
02/19/19 9:24:26 AM 355 6.0 25.0 25 34 71.4 45.8 30.200 14.09 1.6 499 0.00 0.00 0.00 0.00
02/19/19 9:25:17 AM 333 15.0 25.0 25 34 71.4 45.9 30.206 14.09 1.6 503 0.00 0.00 0.00 0.00
02/19/19 9:26:27 AM 325 6.0 25.0 25 33 71.5 46.0 30.203 14.09 1.6 506 0.00 0.00 0.00 0.00
02/19/19 9:27:19 AM 355 3.0 25.0 25 34 71.5 46.0 30.203 14.09 1.7 508 0.00 0.00 0.00 0.00
02/19/19 9:28:31 AM 22 6.0 25.0 25 36 71.5 46.0 30.206 14.09 1.7 508 0.00 0.00 0.00 0.00
02/19/19 9:29:26 AM 5 3.0 25.0 25 36 71.5 46.1 30.205 14.09 1.7 513 0.00 0.00 0.00 0.00
02/19/19 9:30:23 AM 5 0.0 25.0 25 36 71.5 46.1 30.205 14.09 1.7 515 0.00 0.00 0.00 0.00
02/19/19 9:31:36 AM 348 3.0 25.0 25 34 71.5 46.1 30.204 14.09 1.7 519 0.00 0.00 0.00 0.00
02/19/19 9:32:24 AM 350 2.0 25.0 25 34 71.5 46.1 30.204 14.09 1.7 522 0.00 0.00 0.00 0.00
02/19/19 9:33:16 AM 304 8.0 25.0 25 36 71.5 46.2 30.207 14.09 1.7 522 0.00 0.00 0.00 0.00
02/19/19 9:34:28 AM 308 7.0 25.0 25 34 71.5 46.4 30.202 14.09 1.8 522 0.00 0.00 0.00 0.00
02/19/19 9:35:20 AM 315 5.0 25.0 25 35 71.5 46.5 30.202 14.09 1.8 522 0.00 0.00 0.00 0.00
02/19/19 9:36:33 AM 327 4.0 25.0 25 33 71.5 46.6 30.206 14.09 1.8 522 0.00 0.00 0.00 0.00
02/19/19 9:37:21 AM 318 4.0 25.0 25 33 71.5 46.6 30.206 14.09 1.8 522 0.00 0.00 0.00 0.00
02/19/19 9:38:34 AM 323 10.0 25.0 25 35 71.5 46.7 30.204 14.09 1.9 538 0.00 0.00 0.00 0.00
02/19/19 9:39:25 AM 324 15.0 25.0 25 35 71.5 46.7 30.207 14.09 1.9 538 0.00 0.00 0.00 0.00
02/19/19 9:40:17 AM 350 6.0 25.0 25 35 71.5 46.8 30.207 14.09 1.9 543 0.00 0.00 0.00 0.00
02/19/19 9:41:30 AM 338 14.0 25.0 25 34 71.5 46.7 30.204 14.09 1.9 543 0.00 0.00 0.00 0.00
02/19/19 9:42:24 AM 360 6.0 25.0 25 32 71.5 46.5 30.204 14.09 1.9 543 0.00 0.00 0.00 0.00
02/19/19 9:43:34 AM 26 3.0 25.0 25 33 71.5 46.2 30.203 14.09 1.9 550 0.00 0.00 0.00 0.00
02/19/19 9:44:26 AM 81 4.0 25.0 25 33 71.5 46.1 30.205 14.09 1.9 552 0.00 0.00 0.00 0.00
02/19/19 9:45:24 AM 34 3.0 25.0 25 34 71.5 46.1 30.205 14.09 1.9 555 0.00 0.00 0.00 0.00
02/19/19 9:46:33 AM 348 8.0 25.0 25 35 71.5 46.4 30.207 14.09 1.9 559 0.00 0.00 0.00 0.00
02/19/19 9:47:25 AM 350 10.0 25.0 25 36 71.5 46.5 30.207 14.09 2.0 563 0.00 0.00 0.00 0.00
02/19/19 9:48:34 AM 304 5.0 25.0 25 36 71.5 46.7 30.205 14.09 2.0 564 0.00 0.00 0.00 0.00
02/19/19 9:49:26 AM 302 4.0 25.0 25 34 71.5 46.8 30.203 14.09 2.0 564 0.00 0.00 0.00 0.00
02/19/19 9:50:21 AM 360 3.0 25.0 25 33 71.5 46.7 30.203 14.09 2.1 568 0.00 0.00 0.00 0.00
02/19/19 9:51:34 AM 350 4.0 25.0 25 36 71.5 46.7 30.205 14.09 2.1 571 0.00 0.00 0.00 0.00
02/19/19 9:52:25 AM 355 6.0 25.0 25 34 71.5 46.7 30.205 14.09 2.1 571 0.00 0.00 0.00 0.00
02/19/19 9:53:17 AM 323 8.0 25.0 25 36 71.5 46.8 30.207 14.09 2.1 575 0.00 0.00 0.00 0.00
02/19/19 9:54:27 AM 308 14.0 25.0 25 33 71.5 46.9 30.211 14.09 2.1 578 0.00 0.00 0.00 0.00
02/19/19 9:55:21 AM 342 8.0 25.0 25 35 71.5 46.9 30.211 14.09 2.2 582 0.00 0.00 0.00 0.00
02/19/19 9:56:35 AM 17 4.0 25.0 25 32 71.5 46.7 30.208 14.09 2.2 584 0.00 0.00 0.00 0.00
02/19/19 9:57:26 AM 77 8.0 25.0 25 33 71.5 46.7 30.205 14.09 2.2 585 0.00 0.00 0.00 0.00
02/19/19 9:58:18 AM 44 11.0 25.0 25 32 71.5 46.7 30.205 14.09 2.2 587 0.00 0.00 0.00 0.00
02/19/19 9:59:28 AM 339 6.0 25.0 25 34 71.5 46.8 30.208 14.09 2.2 587 0.00 0.00 0.00 0.00
02/19/19 10:00:25 AM 31 12.0 25.0 25 33 71.5 46.9 30.208 14.09 2.2 587 0.00 0.00 0.00 0.00
02/19/19 10:01:36 AM 22 9.0 25.0 25 31 71.5 46.9 30.214 14.09 2.2 596 0.00 0.00 0.00 0.00
02/19/19 10:02:27 AM 17 8.0 25.0 25 32 71.6 46.9 30.209 14.09 2.2 599 0.00 0.00 0.00 0.00
02/19/19 10:03:22 AM 5 5.0 25.0 25 31 71.6 46.8 30.209 14.09 2.3 599 0.00 0.00 0.00 0.00
02/19/19 10:04:29 AM 28 8.0 25.0 25 31 71.6 46.7 30.208 14.09 2.3 603 0.00 0.00 0.00 0.00
02/19/19 10:05:24 AM 30 10.0 25.0 25 31 71.6 46.9 30.208 14.09 2.3 605 0.00 0.00 0.00 0.00
02/19/19 10:06:36 AM 360 10.0 25.0 25 32 71.6 46.9 30.212 14.09 2.3 606 0.00 0.00 0.00 0.00
02/19/19 10:07:28 AM 355 5.0 25.0 25 33 71.6 46.9 30.208 14.09 2.3 606 0.00 0.00 0.00 0.00
02/19/19 10:08:22 AM 351 8.0 25.0 25 31 71.6 46.9 30.208 14.09 2.3 606 0.00 0.00 0.00 0.00
02/19/19 10:09:35 AM 19 7.0 25.0 25 32 71.6 46.8 30.212 14.09 2.3 612 0.00 0.00 0.00 0.00
02/19/19 10:10:20 AM 334 13.0 25.0 25 32 71.6 46.8 30.212 14.09 2.4 615 0.00 0.00 0.00 0.00
02/19/19 10:11:33 AM 335 5.0 25.0 25 31 71.6 46.9 30.216 14.09 2.4 617 0.00 0.00 0.00 0.00
02/19/19 10:12:28 AM 144 2.0 25.0 25 32 71.6 46.9 30.210 14.09 2.4 617 0.00 0.00 0.00 0.00
02/19/19 10:13:19 AM 32 5.0 25.0 25 32 71.6 46.9 30.210 14.09 2.4 619 0.00 0.00 0.00 0.00
02/19/19 10:14:32 AM 42 12.0 25.0 25 31 71.7 46.9 30.209 14.09 2.4 624 0.00 0.00 0.00 0.00
02/19/19 10:15:24 AM 42 11.0 25.0 25 31 71.7 46.9 30.209 14.09 2.4 624 0.00 0.00 0.00 0.00
02/19/19 10:16:37 AM 45 11.0 25.0 25 31 71.7 46.9 30.207 14.09 2.5 628 0.00 0.00 0.00 0.00
02/19/19 10:17:28 AM 42 12.0 25.0 25 32 71.7 47.0 30.204 14.09 2.5 629 0.00 0.00 0.00 0.00
02/19/19 10:18:20 AM 13 10.0 25.0 25 32 71.7 47.0 30.204 14.09 2.5 633 0.00 0.00 0.00 0.00
02/19/19 10:19:33 AM 42 5.0 25.0 25 30 71.7 47.0 30.210 14.09 2.5 635 0.00 0.00 0.00 0.00
02/19/19 10:20:24 AM 29 8.0 25.0 25 30 71.7 47.0 30.210 14.09 2.5 635 0.00 0.00 0.00 0.00
02/19/19 10:21:34 AM 360 11.0 25.0 25 31 71.7 47.1 30.208 14.09 2.5 636 0.00 0.00 0.00 0.00
02/19/19 10:22:26 AM 326 9.0 25.0 25 31 71.7 47.1 30.207 14.09 2.6 638 0.00 0.00 0.00 0.00
02/19/19 10:23:17 AM 344 5.0 25.0 25 29 71.7 47.0 30.207 14.09 2.6 640 0.00 0.00 0.00 0.00
02/19/19 10:24:30 AM 22 9.0 25.0 25 32 71.7 47.0 30.209 14.09 2.6 640 0.00 0.00 0.00 0.00
02/19/19 10:25:25 AM 5 3.0 25.0 25 32 71.7 47.0 30.209 14.09 2.6 640 0.00 0.00 0.00 0.00
02/19/19 10:26:32 AM 57 10.0 25.0 25 30 71.7 47.1 30.208 14.09 2.6 647 0.00 0.00 0.00 0.00
02/19/19 10:27:23 AM 20 10.0 25.0 25 30 71.7 47.1 30.208 14.09 2.6 649 0.00 0.00 0.00 0.00
02/19/19 10:28:18 AM 28 6.0 25.0 25 30 71.7 47.3 30.208 14.09 2.6 650 0.00 0.00 0.00 0.00
02/19/19 10:29:31 AM 355 6.0 25.0 25 30 71.7 47.3 30.206 14.09 2.6 652 0.00 0.00 0.00 0.00
02/19/19 10:30:28 AM 5 11.0 25.0 25 31 71.7 47.4 30.206 14.09 2.7 652 0.00 0.00 0.00 0.00
02/19/19 10:31:20 AM 23 11.0 25.0 25 31 71.7 47.4 30.208 14.09 2.7 652 0.00 0.00 0.00 0.00
02/19/19 10:32:27 AM 23 11.0 25.0 25 31 71.7 47.4 30.207 14.09 2.7 652 0.00 0.00 0.00 0.00
02/19/19 10:33:22 AM 23 11.0 25.0 25 31 71.7 47.4 30.207 14.09 2.7 652 0.00 0.00 0.00 0.00
02/19/19 10:35:57 AM 26 11.0 25.0 25 31 71.8 47.2 30.209 14.09 2.7 652 0.00 0.00 0.00 0.00
02/19/19 10:36:31 AM 70 3.0 25.0 25 31 71.9 47.2 30.204 14.09 2.8 664 0.00 0.00 0.00 0.00
02/19/19 10:37:22 AM 47 16.0 25.0 25 30 71.9 47.3 30.204 14.09 2.8 664 0.00 0.00 0.00 0.00
02/19/19 10:38:32 AM 34 14.0 25.0 25 31 71.8 47.5 30.207 14.09 2.8 668 0.00 0.00 0.00 0.00
02/19/19 10:39:24 AM 28 6.0 25.0 25 31 71.8 47.6 30.207 14.09 2.8 668 0.00 0.00 0.00 0.00
02/19/19 10:40:18 AM 38 12.0 25.0 25 30 71.8 47.7 30.210 14.09 2.8 671 0.00 0.00 0.00 0.00
02/19/19 10:41:28 AM 41 10.0 25.0 25 29 71.8 47.6 30.210 14.09 2.8 673 0.00 0.00 0.00 0.00
02/19/19 10:42:23 AM 321 9.0 25.0 25 29 71.8 47.6 30.210 14.09 2.8 673 0.00 0.00 0.00 0.00
02/19/19 10:43:32 AM 313 5.0 25.0 25 30 71.7 47.5 30.211 14.09 2.8 675 0.00 0.00 0.00 0.00
02/19/19 10:44:23 AM 333 15.0 25.0 25 32 71.7 47.5 30.211 14.09 2.9 677 0.00 0.00 0.00 0.00
02/19/19 10:45:41 AM 323 19.0 25.0 25 29 71.7 47.7 30.209 14.09 2.9 677 0.00 0.00 0.00 0.00
02/19/19 10:46:33 AM 336 13.0 25.0 25 30 71.7 47.7 30.210 14.09 2.9 682 0.00 0.00 0.00 0.00
02/19/19 10:47:27 AM 21 8.0 25.0 25 30 71.7 47.8 30.210 14.09 2.9 684 0.00 0.00 0.00 0.00
02/19/19 10:48:18 AM 22 14.0 25.0 25 29 71.7 47.8 30.210 14.09 2.9 686 0.00 0.00 0.00 0.00
02/19/19 10:49:28 AM 27 11.0 25.0 25 30 71.7 47.7 30.206 14.09 2.9 686 0.00 0.00 0.00 0.00
02/19/19 10:50:22 AM 101 10.0 25.0 25 30 71.7 47.7 30.206 14.09 2.9 686 0.00 0.00 0.00 0.00
02/19/19 10:51:35 AM 65 8.0 25.0 25 30 71.7 47.8 30.205 14.09 2.9 687 0.00 0.00 0.00 0.00
02/19/19 10:52:26 AM 36 5.0 25.0 25 32 71.7 48.1 30.205 14.09 3.0 689 0.00 0.00 0.00 0.00
02/19/19 10:53:18 AM 355 6.0 25.0 25 32 71.7 48.3 30.207 14.09 3.0 689 0.00 0.00 0.00 0.00
02/19/19 10:54:28 AM 36 4.0 25.0 25 28 71.7 48.3 30.203 14.09 3.0 693 0.00 0.00 0.00 0.00
02/19/19 10:55:20 AM 54 6.0 25.0 25 27 71.7 48.2 30.203 14.09 3.0 693 0.00 0.00 0.00 0.00
02/19/19 10:56:33 AM 36 11.0 25.0 25 29 71.7 48.3 30.210 14.09 3.0 694 0.00 0.00 0.00 0.00
02/19/19 10:57:24 AM 45 13.0 25.0 25 29 71.7 48.4 30.210 14.09 3.0 694 0.00 0.00 0.00 0.00
02/19/19 10:58:37 AM 36 7.0 25.0 25 30 71.7 48.5 30.206 14.09 3.1 700 0.00 0.00 0.00 0.00
02/19/19 10:59:28 AM 61 3.0 25.0 25 29 71.7 48.5 30.204 14.09 3.1 700 0.00 0.00 0.00 0.00
02/19/19 11:00:23 AM 38 10.0 25.0 25 30 71.7 48.4 30.204 14.09 3.1 700 0.00 0.00 0.00 0.00
02/19/19 11:01:36 AM 51 4.0 25.0 25 29 71.7 48.3 30.204 14.09 3.1 703 0.00 0.00 0.00 0.00
02/19/19 11:02:27 AM 19 7.0 25.0 25 31 71.8 48.4 30.201 14.09 3.1 703 0.00 0.00 0.00 0.00
02/19/19 11:03:22 AM 27 4.0 25.0 25 28 71.8 48.3 30.201 14.09 3.1 705 0.00 0.00 0.00 0.00
02/19/19 11:04:38 AM 336 16.0 25.0 25 29 71.8 48.3 30.204 14.09 3.1 705 0.00 0.00 0.00 0.00
02/19/19 11:05:23 AM 5 9.0 25.0 25 29 71.8 48.3 30.204 14.09 3.1 707 0.00 0.00 0.00 0.00
02/19/19 11:06:21 AM 78 10.0 25.0 25 29 71.8 48.3 30.204 14.09 3.1 707 0.00 0.00 0.00 0.00
02/19/19 11:07:31 AM 66 12.0 25.0 25 29 71.8 48.4 30.199 14.09 3.1 708 0.00 0.00 0.00 0.00
02/19/19 11:08:26 AM 55 11.0 25.0 25 29 71.8 48.5 30.199 14.09 3.1 710 0.00 0.00 0.00 0.00
02/19/19 11:09:18 AM 38 11.0 25.0 25 28 71.8 48.5 30.200 14.09 3.1 710 0.00 0.00 0.00 0.00
02/19/19 11:10:31 AM 21 10.0 25.0 25 28 71.8 48.6 30.200 14.09 3.2 714 0.00 0.00 0.00 0.00
02/19/19 11:11:19 AM 65 14.0 25.0 25 30 71.8 48.7 30.200 14.09 3.2 714 0.00 0.00 0.00 0.00
02/19/19 11:12:32 AM 329 9.0 25.0 25 32 71.8 49.1 30.208 14.09 3.2 717 0.00 0.00 0.00 0.00
02/19/19 11:13:24 AM 315 14.0 25.0 25 30 71.8 49.2 30.208 14.09 3.2 715 0.00 0.00 0.00 0.00
02/19/19 11:14:18 AM 52 6.0 25.0 25 30 71.8 49.2 30.206 14.09 3.2 717 0.00 0.00 0.00 0.00
02/19/19 11:15:35 AM 9 10.0 25.0 25 28 71.8 49.1 30.200 14.09 3.2 719 0.00 0.00 0.00 0.00
02/19/19 11:16:23 AM 284 3.0 25.0 25 26 71.8 48.9 30.200 14.09 3.2 719 0.00 0.00 0.00 0.00
02/19/19 11:17:15 AM 344 2.0 25.0 25 28 71.8 48.7 30.200 14.09 3.2 721 0.00 0.00 0.00 0.00
02/19/19 11:18:28 AM 327 9.0 25.0 25 27 71.8 48.5 30.210 14.09 3.2 721 0.00 0.00 0.00 0.00
02/19/19 11:19:20 AM 24 6.0 25.0 25 27 71.8 48.5 30.210 14.09 3.2 722 0.00 0.00 0.00 0.00
02/19/19 11:20:34 AM 57 13.0 25.0 25 29 71.8 48.6 30.198 14.09 3.2 722 0.00 0.00 0.00 0.00
02/19/19 11:21:25 AM 45 7.0 25.0 25 26 71.8 48.6 30.198 14.09 3.3 722 0.00 0.00 0.00 0.00
02/19/19 11:22:35 AM 341 14.0 25.0 25 28 71.8 48.6 30.197 14.09 3.3 726 0.00 0.00 0.00 0.00
02/19/19 11:23:27 AM 277 3.0 25.0 25 29 71.8 48.8 30.198 14.09 3.3 726 0.00 0.00 0.00 0.00
02/19/19 11:24:19 AM 5 5.0 25.0 25 29 71.8 48.8 30.198 14.09 3.3 726 0.00 0.00 0.00 0.00
02/19/19 11:25:32 AM 51 9.0 25.0 25 28 71.8 48.8 30.197 14.09 3.3 726 0.00 0.00 0.00 0.00
02/19/19 11:26:24 AM 69 16.0 25.0 25 28 71.8 48.8 30.197 14.09 3.3 726 0.00 0.00 0.00 0.00
02/19/19 11:27:34 AM 24 17.0 25.0 25 29 71.8 49.0 30.196 14.09 3.3 728 0.00 0.00 0.00 0.00
02/19/19 11:28:26 AM 346 13.0 25.0 25 28 71.8 49.1 30.196 14.09 3.3 731 0.00 0.00 0.00 0.00
02/19/19 11:29:18 AM 324 3.0 25.0 25 25 71.8 49.0 30.196 14.09 3.3 731 0.00 0.00 0.00 0.00
02/19/19 11:30:34 AM 338 5.0 25.0 25 27 71.9 48.8 30.198 14.09 3.3 731 0.00 0.00 0.00 0.00
02/19/19 11:31:26 AM 325 4.0 25.0 25 27 71.8 48.7 30.193 14.09 3.3 733 0.00 0.00 0.00 0.00
02/19/19 11:32:18 AM 343 8.0 25.0 25 31 71.8 48.7 30.193 14.09 3.3 733 0.00 0.00 0.00 0.00
02/19/19 11:33:28 AM 355 5.0 25.0 25 29 71.8 48.9 30.188 14.09 3.3 733 0.00 0.00 0.00 0.00
02/19/19 11:34:20 AM 315 8.0 25.0 25 28 71.8 49.0 30.188 14.09 3.3 735 0.00 0.00 0.00 0.00
02/19/19 11:35:33 AM 56 9.0 25.0 25 27 71.9 49.1 30.189 14.09 3.3 737 0.00 0.00 0.00 0.00
02/19/19 11:36:25 AM 169 5.0 25.0 25 26 71.8 49.0 30.189 14.09 3.3 737 0.00 0.00 0.00 0.00
02/19/19 11:37:17 AM 20 11.0 25.0 25 26 71.8 48.9 30.189 14.09 3.3 737 0.00 0.00 0.00 0.00
02/19/19 11:38:27 AM 5 13.0 25.0 25 27 71.9 48.8 30.189 14.09 3.3 737 0.00 0.00 0.00 0.00
02/19/19 11:39:19 AM 5 10.0 25.0 25 27 71.9 49.0 30.189 14.09 3.3 737 0.00 0.00 0.00 0.00
02/19/19 11:40:32 AM 59 11.0 25.0 25 27 71.9 49.0 30.189 14.09 3.4 738 0.00 0.00 0.00 0.00
02/19/19 11:41:24 AM 327 6.0 25.0 25 27 71.9 49.0 30.189 14.09 3.4 738 0.00 0.00 0.00 0.00
02/19/19 11:42:19 AM 327 9.0 25.0 25 27 71.9 49.0 30.186 14.09 3.4 738 0.00 0.00 0.00 0.00
02/19/19 11:43:29 AM 347 10.0 25.0 25 27 71.9 49.1 30.184 14.09 3.4 738 0.00 0.00 0.00 0.00
02/19/19 11:44:21 AM 14 9.0 25.0 25 28 71.9 49.2 30.184 14.09 3.4 740 0.00 0.00 0.00 0.00
02/19/19 11:45:40 AM 14 16.0 25.0 25 26 71.9 49.4 30.185 14.09 3.4 738 0.00 0.00 0.00 0.00
02/19/19 11:46:32 AM 331 11.0 25.0 25 26 71.9 49.4 30.186 14.09 3.4 738 0.00 0.00 0.00 0.00
02/19/19 11:47:25 AM 327 8.0 25.0 25 25 71.9 49.3 30.186 14.09 3.4 738 0.00 0.00 0.00 0.00
02/19/19 11:48:17 AM 351 11.0 25.0 25 26 71.9 49.2 30.183 14.09 3.4 744 0.00 0.00 0.00 0.00
02/19/19 11:49:27 AM 59 11.0 25.0 25 25 71.9 49.3 30.182 14.09 3.4 744 0.00 0.00 0.00 0.00
02/19/19 11:50:19 AM 24 14.0 25.0 25 25 71.9 49.3 30.182 14.09 3.4 744 0.00 0.00 0.00 0.00
02/19/19 11:51:32 AM 338 18.0 25.0 25 26 71.9 49.3 30.179 14.09 3.4 745 0.00 0.00 0.00 0.00
02/19/19 11:52:24 AM 336 19.0 25.0 25 25 71.9 49.3 30.179 14.09 3.4 745 0.00 0.00 0.00 0.00
02/19/19 11:53:15 AM 337 9.0 25.0 25 26 71.9 49.3 30.184 14.09 3.4 745 0.00 0.00 0.00 0.00
02/19/19 11:54:25 AM 323 15.0 25.0 25 26 71.9 49.3 30.183 14.09 3.4 745 0.00 0.00 0.00 0.00
02/19/19 11:55:17 AM 360 11.0 25.0 25 26 71.9 49.3 30.183 14.09 3.4 745 0.00 0.00 0.00 0.00
02/19/19 11:56:31 AM 360 6.0 25.0 25 27 71.9 49.3 30.182 14.09 3.4 745 0.00 0.00 0.00 0.00
02/19/19 11:57:26 AM 351 6.0 25.0 25 28 71.9 49.4 30.182 14.09 3.4 745 0.00 0.00 0.00 0.00
02/19/19 11:58:18 AM 24 10.0 25.0 25 25 71.9 49.6 30.179 14.09 3.4 745 0.00 0.00 0.00 0.00
02/19/19 11:59:31 AM 35 14.0 25.0 25 24 71.9 49.6 30.179 14.09 3.4 747 0.00 0.00 0.00 0.00
02/19/19 12:00:23 PM 16 8.0 25.0 25 26 71.9 49.6 30.179 14.09 3.4 747 0.00 0.00 0.00 0.00
02/19/19 12:01:15 PM 69 10.0 25.0 25 24 72.0 49.6 30.175 14.09 3.4 749 0.00 0.00 0.00 0.00
02/19/19 12:02:28 PM 293 8.0 25.0 25 26 71.9 49.5 30.184 14.09 3.4 749 0.00 0.00 0.00 0.00
02/19/19 12:03:23 PM 355 16.0 25.0 25 26 71.9 49.5 30.184 14.09 3.4 749 0.00 0.00 0.00 0.00
02/19/19 12:04:36 PM 291 16.0 25.0 25 26 72.0 49.5 30.178 14.09 3.4 747 0.00 0.00 0.00 0.00
02/19/19 12:05:25 PM 38 9.0 25.0 25 26 72.0 49.5 30.178 14.09 3.4 747 0.00 0.00 0.00 0.00
02/19/19 12:06:17 PM 44 11.0 25.0 25 25 72.0 49.5 30.178 14.09 3.4 749 0.00 0.00 0.00 0.00
02/19/19 12:07:30 PM 53 17.0 25.0 25 26 72.0 49.5 30.174 14.09 3.4 749 0.00 0.00 0.00 0.00
02/19/19 12:08:22 PM 328 13.0 25.0 25 26 72.0 49.5 30.174 14.09 3.4 749 0.00 0.00 0.00 0.00
02/19/19 12:09:35 PM 24 8.0 25.0 25 26 72.0 49.6 30.178 14.09 3.4 749 0.00 0.00 0.00 0.00
02/19/19 12:10:30 PM 31 11.0 25.0 25 25 72.0 49.5 30.172 14.09 3.4 749 0.00 0.00 0.00 0.00
02/19/19 12:11:18 PM 328 10.0 25.0 25 25 72.0 49.5 30.172 14.09 3.4 749 0.00 0.00 0.00 0.00
02/19/19 12:12:32 PM 51 7.0 25.0 25 28 72.0 49.6 30.171 14.09 3.4 749 0.00 0.00 0.00 0.00
02/19/19 12:13:23 PM 338 15.0 25.0 25 28 72.0 49.6 30.171 14.09 3.4 749 0.00 0.00 0.00 0.00
02/19/19 12:14:37 PM 11 10.0 25.0 25 27 72.1 49.9 30.173 14.09 3.4 749 0.00 0.00 0.00 0.00
02/19/19 12:15:34 PM 339 5.0 25.0 25 27 72.1 49.9 30.172 14.09 3.4 747 0.00 0.00 0.00 0.00
02/19/19 12:16:23 PM 37 10.0 25.0 25 27 72.1 50.0 30.172 14.09 3.4 747 0.00 0.00 0.00 0.00
02/19/19 12:17:33 PM 355 9.0 25.0 25 26 72.0 49.9 30.170 14.09 3.4 749 0.00 0.00 0.00 0.00
02/19/19 12:18:28 PM 5 8.0 25.0 25 26 72.1 49.9 30.169 14.09 3.4 747 0.00 0.00 0.00 0.00
02/19/19 12:19:20 PM 65 6.0 25.0 25 27 72.1 49.9 30.169 14.09 3.4 747 0.00 0.00 0.00 0.00
02/19/19 12:20:33 PM 40 7.0 25.0 25 25 72.1 50.0 30.170 14.09 3.4 747 0.00 0.00 0.00 0.00
02/19/19 12:21:27 PM 22 6.0 25.0 25 25 72.0 50.1 30.166 14.09 3.4 747 0.00 0.00 0.00 0.00
02/19/19 12:22:34 PM 48 17.0 25.0 25 25 72.1 50.1 30.166 14.09 3.4 747 0.00 0.00 0.00 0.00
02/19/19 12:23:26 PM 50 16.0 25.0 25 24 72.1 50.1 30.166 14.09 3.4 749 0.00 0.00 0.00 0.00
02/19/19 12:24:18 PM 321 9.0 25.0 25 25 72.1 50.0 30.168 14.09 3.4 747 0.00 0.00 0.00 0.00
02/19/19 12:25:31 PM 331 19.0 26.0 25 26 72.1 50.1 30.170 14.09 3.4 749 0.00 0.00 0.00 0.00
02/19/19 12:26:22 PM 25 9.0 26.0 25 26 72.1 50.1 30.170 14.09 3.3 745 0.00 0.00 0.00 0.00
02/19/19 12:27:32 PM 59 9.0 26.0 25 25 72.1 50.1 30.167 14.09 3.3 745 0.00 0.00 0.00 0.00
02/19/19 12:28:24 PM 34 16.0 26.0 25 25 72.1 50.1 30.167 14.09 3.3 745 0.00 0.00 0.00 0.00
02/19/19 12:29:16 PM 5 6.0 26.0 25 26 72.1 50.2 30.166 14.09 3.3 745 0.00 0.00 0.00 0.00
02/19/19 12:30:35 PM 29 11.0 26.0 25 25 72.1 50.3 30.168 14.09 3.3 744 0.00 0.00 0.00 0.00
02/19/19 12:31:27 PM 317 5.0 26.0 25 26 72.1 50.3 30.168 14.09 3.3 744 0.00 0.00 0.00 0.00
02/19/19 12:32:19 PM 336 5.0 26.0 25 27 72.1 50.4 30.168 14.09 3.3 744 0.00 0.00 0.00 0.00
02/19/19 12:33:29 PM 22 9.0 26.0 25 28 72.1 50.4 30.164 14.09 3.3 744 0.00 0.00 0.00 0.00
02/19/19 12:34:21 PM 9 15.0 26.0 25 25 72.1 50.4 30.164 14.09 3.3 744 0.00 0.00 0.00 0.00
02/19/19 12:35:34 PM 74 9.0 26.0 25 25 72.1 50.3 30.162 14.09 3.3 744 0.00 0.00 0.00 0.00
02/19/19 12:36:26 PM 11 9.0 26.0 25 25 72.1 50.1 30.162 14.09 3.3 742 0.00 0.00 0.00 0.00
02/19/19 12:37:18 PM 335 13.0 26.0 25 25 72.1 50.1 30.164 14.09 3.3 742 0.00 0.00 0.00 0.00
02/19/19 12:38:27 PM 336 6.0 26.0 25 29 72.1 50.3 30.164 14.09 3.3 742 0.00 0.00 0.00 0.00
02/19/19 12:39:19 PM 53 5.0 26.0 25 26 72.1 50.3 30.164 14.09 3.3 740 0.00 0.00 0.00 0.00
02/19/19 12:40:32 PM 72 3.0 26.0 25 28 72.2 50.6 30.162 14.09 3.3 738 0.00 0.00 0.00 0.00
02/19/19 12:41:27 PM 39 5.0 26.0 25 28 72.2 50.6 30.165 14.09 3.3 738 0.00 0.00 0.00 0.00
02/19/19 12:42:19 PM 18 13.0 26.0 25 27 72.2 50.6 30.165 14.09 3.3 738 0.00 0.00 0.00 0.00
02/19/19 12:43:26 PM 39 11.0 26.0 25 26 72.2 50.8 30.162 14.09 3.3 738 0.00 0.00 0.00 0.00
02/19/19 12:44:21 PM 340 10.0 26.0 25 24 72.2 50.8 30.162 14.09 3.3 737 0.00 0.00 0.00 0.00
02/19/19 12:45:37 PM 49 9.0 26.0 25 24 72.2 50.7 30.158 14.09 3.3 737 0.00 0.00 0.00 0.00
02/19/19 12:46:26 PM 5 16.0 26.0 25 24 72.2 50.8 30.158 14.09 3.2 735 0.00 0.00 0.00 0.00
02/19/19 12:47:18 PM 32 10.0 26.0 25 25 72.2 50.8 30.158 14.09 3.2 735 0.00 0.00 0.00 0.00
02/19/19 12:48:34 PM 11 5.0 26.0 25 26 72.2 50.8 30.159 14.09 3.2 733 0.00 0.00 0.00 0.00
02/19/19 12:49:23 PM 82 4.0 26.0 25 26 72.2 50.8 30.159 14.09 3.2 733 0.00 0.00 0.00 0.00
02/19/19 12:50:18 PM 309 4.0 26.0 25 24 72.2 50.7 30.159 14.09 3.2 733 0.00 0.00 0.00 0.00
02/19/19 12:51:31 PM 5 9.0 26.0 25 25 72.2 50.8 30.157 14.09 3.2 731 0.00 0.00 0.00 0.00
02/19/19 12:52:23 PM 78 5.0 26.0 25 25 72.2 50.8 30.157 14.09 3.2 731 0.00 0.00 0.00 0.00
02/19/19 12:53:33 PM 55 10.0 26.0 25 27 72.2 51.0 30.155 14.09 3.2 729 0.00 0.00 0.00 0.00
02/19/19 12:54:22 PM 91 10.0 26.0 25 26 72.2 51.1 30.155 14.09 3.2 729 0.00 0.00 0.00 0.00
02/19/19 12:55:35 PM 98 10.0 26.0 25 26 72.2 51.3 30.153 14.09 3.2 729 0.00 0.00 0.00 0.00
02/19/19 12:56:30 PM 349 10.0 26.0 25 29 72.3 51.4 30.153 14.09 3.1 728 0.00 0.00 0.00 0.00
02/19/19 12:57:22 PM 25 8.0 26.0 25 29 72.3 51.7 30.153 14.09 3.1 726 0.00 0.00 0.00 0.00
02/19/19 12:58:35 PM 86 10.0 26.0 25 26 72.3 51.6 30.148 14.09 3.1 724 0.00 0.00 0.00 0.00
02/19/19 12:59:27 PM 355 8.0 26.0 25 27 72.3 51.7 30.148 14.09 3.1 724 0.00 0.00 0.00 0.00
02/19/19 1:00:40 PM 35 3.0 26.0 25 25 72.2 51.8 30.150 14.09 3.1 722 0.00 0.00 0.00 0.00
02/19/19 1:01:32 PM 128 3.0 26.0 25 25 72.3 51.7 30.151 14.09 3.1 721 0.00 0.00 0.00 0.00
02/19/19 1:02:27 PM 29 11.0 26.0 25 26 72.3 51.6 30.148 14.09 3.1 721 0.00 0.00 0.00 0.00
02/19/19 1:03:16 PM 342 12.0 26.0 25 24 72.3 51.5 30.148 14.09 3.1 721 0.00 0.00 0.00 0.00
02/19/19 1:04:29 PM 337 15.0 26.0 25 25 72.3 51.3 30.151 14.09 3.1 719 0.00 0.00 0.00 0.00
02/19/19 1:05:18 PM 29 14.0 26.0 25 27 72.3 51.3 30.151 14.09 3.1 717 0.00 0.00 0.00 0.00
02/19/19 1:06:34 PM 360 12.0 26.0 25 24 72.3 51.3 30.151 14.09 3.0 717 0.00 0.00 0.00 0.00
02/19/19 1:07:25 PM 329 9.0 26.0 25 26 72.3 51.3 30.151 14.09 3.0 715 0.00 0.00 0.00 0.00
02/19/19 1:08:17 PM 20 5.0 26.0 25 24 72.3 51.2 30.151 14.09 3.0 714 0.00 0.00 0.00 0.00
02/19/19 1:09:30 PM 80 5.0 26.0 25 26 72.4 51.4 30.151 14.09 3.0 714 0.00 0.00 0.00 0.00
02/19/19 1:10:22 PM 50 11.0 26.0 25 26 72.4 51.5 30.151 14.09 3.0 714 0.00 0.00 0.00 0.00
02/19/19 1:11:32 PM 27 10.0 26.0 25 25 72.4 51.6 30.149 14.09 3.0 710 0.00 0.00 0.00 0.00
02/19/19 1:12:24 PM 49 15.0 26.0 25 24 72.4 51.7 30.149 14.09 3.0 708 0.00 0.00 0.00 0.00
02/19/19 1:13:19 PM 18 11.0 26.0 25 24 72.4 51.6 30.148 14.09 3.0 708 0.00 0.00 0.00 0.00
02/19/19 1:14:32 PM 323 8.0 26.0 25 25 72.4 51.7 30.154 14.09 3.0 708 0.00 0.00 0.00 0.00
02/19/19 1:15:30 PM 286 15.0 26.0 25 27 72.4 51.6 30.154 14.09 2.9 707 0.00 0.00 0.00 0.00
02/19/19 1:16:16 PM 313 20.0 26.0 25 25 72.4 51.5 30.151 14.09 2.9 705 0.00 0.00 0.00 0.00
02/19/19 1:17:29 PM 26 6.0 26.0 25 23 72.4 51.4 30.151 14.09 2.9 701 0.00 0.00 0.00 0.00
02/19/19 1:18:24 PM 333 6.0 26.0 25 24 72.4 51.3 30.151 14.09 2.9 701 0.00 0.00 0.00 0.00
02/19/19 1:19:37 PM 317 8.0 26.0 25 24 72.4 51.4 30.146 14.09 2.9 701 0.00 0.00 0.00 0.00
02/19/19 1:20:29 PM 348 6.0 26.0 25 24 72.4 51.7 30.148 14.09 2.9 696 0.00 0.00 0.00 0.00
02/19/19 1:21:18 PM 74 12.0 26.0 25 27 72.4 51.8 30.148 14.09 2.9 696 0.00 0.00 0.00 0.00
02/19/19 1:22:28 PM 26 9.0 26.0 25 23 72.4 52.0 30.145 14.09 2.9 696 0.00 0.00 0.00 0.00
02/19/19 1:23:20 PM 29 12.0 26.0 25 26 72.4 52.2 30.145 14.09 2.8 696 0.00 0.00 0.00 0.00
02/19/19 1:24:33 PM 53 5.0 26.0 25 23 72.5 52.1 30.143 14.09 2.8 694 0.00 0.00 0.00 0.00
02/19/19 1:25:28 PM 66 15.0 26.0 25 24 72.5 52.1 30.146 14.09 2.8 691 0.00 0.00 0.00 0.00
02/19/19 1:26:20 PM 50 12.0 26.0 25 24 72.5 52.0 30.146 14.09 2.8 691 0.00 0.00 0.00 0.00
02/19/19 1:27:31 PM 348 5.0 26.0 25 26 72.4 52.0 30.144 14.09 2.8 691 0.00 0.00 0.00 0.00
02/19/19 1:28:22 PM 347 3.0 26.0 25 26 72.4 51.9 30.144 14.09 2.8 687 0.00 0.00 0.00 0.00
02/19/19 1:29:36 PM 64 6.0 26.0 25 25 72.5 51.9 30.144 14.09 2.8 686 0.00 0.00 0.00 0.00
02/19/19 1:30:31 PM 360 8.0 26.0 25 25 72.5 52.0 30.142 14.09 2.7 686 0.00 0.00 0.00 0.00
02/19/19 1:31:23 PM 12 8.0 26.0 25 27 72.5 52.2 30.142 14.09 2.7 684 0.00 0.00 0.00 0.00
02/19/19 1:32:33 PM 81 4.0 26.0 25 25 72.5 52.2 30.141 14.09 2.7 684 0.00 0.00 0.00 0.00
02/19/19 1:33:25 PM 88 4.0 26.0 25 24 72.5 52.1 30.141 14.09 2.7 684 0.00 0.00 0.00 0.00
02/19/19 1:34:17 PM 65 3.0 26.0 25 26 72.5 52.3 30.143 14.09 2.7 680 0.00 0.00 0.00 0.00
02/19/19 1:35:30 PM 17 3.0 26.0 25 25 72.5 52.4 30.143 14.09 2.6 680 0.00 0.00 0.00 0.00
02/19/19 1:36:25 PM 315 2.0 26.0 25 26 72.5 52.5 30.143 14.09 2.6 680 0.00 0.00 0.00 0.00
02/19/19 1:37:17 PM 319 5.0 26.0 25 25 72.5 52.5 30.143 14.09 2.6 675 0.00 0.00 0.00 0.00
02/19/19 1:38:28 PM 325 9.0 26.0 25 24 72.5 52.5 30.142 14.09 2.6 675 0.00 0.00 0.00 0.00
02/19/19 1:39:19 PM 302 4.0 26.0 25 24 72.5 52.6 30.142 14.09 2.6 675 0.00 0.00 0.00 0.00
02/19/19 1:40:33 PM 283 3.0 26.0 25 27 72.6 52.8 30.140 14.09 2.6 670 0.00 0.00 0.00 0.00
02/19/19 1:41:25 PM 327 9.0 26.0 25 25 72.6 52.9 30.140 14.09 2.6 666 0.00 0.00 0.00 0.00
02/19/19 1:42:17 PM 310 7.0 26.0 25 25 72.6 52.9 30.142 14.09 2.6 666 0.00 0.00 0.00 0.00
02/19/19 1:43:27 PM 330 8.0 26.0 25 25 72.6 52.8 30.138 14.09 2.5 666 0.00 0.00 0.00 0.00
02/19/19 1:44:19 PM 311 6.0 26.0 25 28 72.6 52.9 30.138 14.09 2.5 663 0.00 0.00 0.00 0.00
02/19/19 1:45:35 PM 329 8.0 26.0 25 25 72.7 53.0 30.139 14.09 2.5 661 0.00 0.00 0.00 0.00
02/19/19 1:46:27 PM 300 9.0 26.0 25 26 72.6 52.9 30.141 14.09 2.5 657 0.00 0.00 0.00 0.00
02/19/19 1:47:19 PM 315 8.0 26.0 25 23 72.6 52.8 30.141 14.09 2.5 657 0.00 0.00 0.00 0.00
02/19/19 1:48:33 PM 331 6.0 26.0 25 23 72.6 52.5 30.142 14.09 2.4 657 0.00 0.00 0.00 0.00
02/19/19 1:49:22 PM 311 8.0 26.0 25 23 72.6 52.4 30.142 14.09 2.4 652 0.00 0.00 0.00 0.00
02/19/19 1:50:35 PM 292 3.0 26.0 25 28 72.7 52.5 30.141 14.09 2.4 650 0.00 0.00 0.00 0.00
02/19/19 1:51:27 PM 303 8.0 26.0 25 28 72.7 52.4 30.143 14.09 2.4 650 0.00 0.00 0.00 0.00
02/19/19 1:52:19 PM 318 10.0 26.0 25 24 72.7 52.4 30.143 14.09 2.4 650 0.00 0.00 0.00 0.00
02/19/19 1:53:33 PM 313 8.0 26.0 25 24 72.7 52.6 30.138 14.09 2.4 647 0.00 0.00 0.00 0.00
02/19/19 1:54:22 PM 327 5.0 26.0 25 24 72.7 52.5 30.138 14.09 2.4 645 0.00 0.00 0.00 0.00
02/19/19 1:55:33 PM 314 8.0 26.0 25 25 72.8 52.5 30.133 14.09 2.3 642 0.00 0.00 0.00 0.00
02/19/19 1:56:28 PM 292 7.0 26.0 25 28 72.8 52.5 30.136 14.09 2.3 640 0.00 0.00 0.00 0.00
02/19/19 1:57:17 PM 269 9.0 26.0 25 26 72.8 52.6 30.136 14.09 2.3 638 0.00 0.00 0.00 0.00
02/19/19 1:58:30 PM 295 3.0 26.0 25 23 72.8 52.6 30.133 14.09 2.3 636 0.00 0.00 0.00 0.00
02/19/19 1:59:23 PM 292 8.0 26.0 25 24 72.8 52.6 30.133 14.09 2.3 636 0.00 0.00 0.00 0.00
02/19/19 2:00:39 PM 299 9.0 26.0 25 25 72.8 52.6 30.131 14.09 2.3 631 0.00 0.00 0.00 0.00
02/19/19 2:01:28 PM 332 9.0 26.0 25 26 72.8 52.8 30.134 14.09 2.3 628 0.00 0.00 0.00 0.00
02/19/19 2:02:20 PM 313 11.0 26.0 25 25 72.8 52.9 30.134 14.09 2.2 628 0.00 0.00 0.00 0.00
02/19/19 2:03:34 PM 308 11.0 26.0 25 24 72.8 52.9 30.133 14.09 2.2 626 0.00 0.00 0.00 0.00
02/19/19 2:04:26 PM 293 8.0 26.0 25 23 72.8 52.9 30.132 14.09 2.2 624 0.00 0.00 0.00 0.00
02/19/19 2:05:18 PM 252 7.0 26.0 25 24 72.8 52.8 30.132 14.09 2.2 622 0.00 0.00 0.00 0.00
02/19/19 2:06:29 PM 234 5.0 26.0 25 28 72.8 52.9 30.129 14.09 2.2 622 0.00 0.00 0.00 0.00
02/19/19 2:07:21 PM 244 3.0 26.0 25 26 72.8 52.8 30.129 14.09 2.2 619 0.00 0.00 0.00 0.00
02/19/19 2:08:34 PM 290 2.0 26.0 25 23 72.8 52.8 30.131 14.09 2.2 617 0.00 0.00 0.00 0.00
02/19/19 2:09:26 PM 290 3.0 26.0 25 23 72.9 52.6 30.130 14.09 2.2 617 0.00 0.00 0.00 0.00
02/19/19 2:10:21 PM 226 3.0 26.0 25 24 72.9 52.5 30.130 14.09 2.1 617 0.00 0.00 0.00 0.00
02/19/19 2:11:28 PM 226 2.0 26.0 25 25 72.9 52.6 30.131 14.09 2.1 612 0.00 0.00 0.00 0.00
02/19/19 2:12:20 PM 226 4.0 26.0 25 27 72.9 52.7 30.131 14.09 2.1 610 0.00 0.00 0.00 0.00
02/19/19 2:13:34 PM 259 2.0 26.0 25 24 72.9 52.9 30.125 14.09 2.1 608 0.00 0.00 0.00 0.00
02/19/19 2:14:29 PM 284 8.0 26.0 25 25 72.9 53.1 30.126 14.09 2.1 608 0.00 0.00 0.00 0.00
02/19/19 2:15:24 PM 300 9.0 26.0 25 25 72.9 53.2 30.126 14.09 2.1 608 0.00 0.00 0.00 0.00
02/19/19 2:16:34 PM 296 7.0 26.0 25 26 72.9 53.3 30.126 14.09 2.1 599 0.00 0.00 0.00 0.00
02/19/19 2:17:26 PM 318 10.0 26.0 25 26 72.9 53.2 30.126 14.09 2.0 598 0.00 0.00 0.00 0.00
02/19/19 2:18:18 PM 290 12.0 26.0 25 26 72.9 53.2 30.129 14.09 2.0 596 0.00 0.00 0.00 0.00
02/19/19 2:19:34 PM 311 10.0 26.0 25 25 73.0 53.3 30.125 14.09 2.0 592 0.00 0.00 0.00 0.00
02/19/19 2:20:23 PM 323 10.0 26.0 25 24 73.0 53.3 30.125 14.09 2.0 591 0.00 0.00 0.00 0.00
02/19/19 2:21:34 PM 298 5.0 26.0 25 25 73.0 53.2 30.129 14.09 1.9 587 0.00 0.00 0.00 0.00
02/19/19 2:22:26 PM 281 8.0 26.0 25 23 73.0 53.1 30.129 14.09 1.9 584 0.00 0.00 0.00 0.00
02/19/19 2:23:18 PM 274 6.0 26.0 25 24 73.0 53.0 30.128 14.09 1.9 584 0.00 0.00 0.00 0.00
02/19/19 2:24:31 PM 294 4.0 26.0 25 26 73.0 52.9 30.127 14.09 1.9 580 0.00 0.00 0.00 0.00
02/19/19 2:25:23 PM 309 3.0 26.0 25 26 73.0 53.0 30.127 14.09 1.9 578 0.00 0.00 0.00 0.00
02/19/19 2:26:36 PM 295 5.0 26.0 25 29 73.0 53.2 30.131 14.09 1.9 578 0.00 0.00 0.00 0.00
02/19/19 2:27:25 PM 324 12.0 26.0 25 26 73.0 53.4 30.131 14.09 1.9 575 0.00 0.00 0.00 0.00
02/19/19 2:28:35 PM 317 8.0 26.0 25 26 73.0 53.5 30.127 14.09 1.8 570 0.00 0.00 0.00 0.00
02/19/19 2:29:30 PM 292 4.0 26.0 25 27 73.1 53.6 30.127 14.09 1.8 570 0.00 0.00 0.00 0.00
02/19/19 2:30:25 PM 315 9.0 26.0 25 27 73.1 53.7 30.127 14.09 1.8 568 0.00 0.00 0.00 0.00
02/19/19 2:31:17 PM 317 10.0 26.0 25 25 73.0 53.7 30.128 14.09 1.8 568 0.00 0.00 0.00 0.00
02/19/19 2:32:24 PM 307 10.0 26.0 25 25 73.0 53.6 30.124 14.09 1.8 563 0.00 0.00 0.00 0.00
02/19/19 2:33:16 PM 330 9.0 26.0 25 24 73.0 53.6 30.126 14.09 1.8 563 0.00 0.00 0.00 0.00
02/19/19 2:34:30 PM 308 8.0 26.0 25 24 73.0 53.4 30.123 14.09 1.7 557 0.00 0.00 0.00 0.00
02/19/19 2:35:22 PM 323 11.0 26.0 25 24 73.0 53.3 30.123 14.09 1.7 555 0.00 0.00 0.00 0.00
02/19/19 2:36:35 PM 299 5.0 26.0 25 25 73.1 53.2 30.124 14.09 1.7 555 0.00 0.00 0.00 0.00
02/19/19 2:37:24 PM 327 12.0 26.0 25 27 73.1 53.3 30.124 14.09 1.7 550 0.00 0.00 0.00 0.00
02/19/19 2:38:35 PM 317 8.0 26.0 25 27 73.1 53.5 30.123 14.09 1.7 547 0.00 0.00 0.00 0.00
02/19/19 2:39:27 PM 321 12.0 26.0 25 28 73.1 53.5 30.123 14.09 1.7 547 0.00 0.00 0.00 0.00
02/19/19 2:40:19 PM 336 10.0 26.0 25 24 73.1 53.5 30.121 14.09 1.6 543 0.00 0.00 0.00 0.00
02/19/19 2:41:32 PM 331 10.0 26.0 25 24 73.1 53.4 30.121 14.09 1.6 541 0.00 0.00 0.00 0.00
02/19/19 2:42:24 PM 330 10.0 26.0 25 24 73.1 53.5 30.121 14.09 1.6 541 0.00 0.00 0.00 0.00
02/19/19 2:43:34 PM 300 8.0 26.0 25 23 73.1 53.4 30.118 14.09 1.6 536 0.00 0.00 0.00 0.00
02/19/19 2:44:26 PM 320 6.0 26.0 25 25 73.1 53.3 30.121 14.09 1.6 534 0.00 0.00 0.00 0.00
02/19/19 2:45:24 PM 321 8.0 26.0 25 26 73.1 53.3 30.121 14.09 1.6 531 0.00 0.00 0.00 0.00
02/19/19 2:46:34 PM 331 11.0 26.0 25 26 73.2 53.4 30.121 14.09 1.6 531 0.00 0.00 0.00 0.00
02/19/19 2:47:27 PM 344 4.0 26.0 25 25 73.2 53.4 30.122 14.09 1.5 522 0.00 0.00 0.00 0.00
02/19/19 2:48:19 PM 313 6.0 26.0 25 26 73.2 53.5 30.122 14.09 1.5 520 0.00 0.00 0.00 0.00
02/19/19 2:49:26 PM 315 8.0 26.0 25 28 73.2 53.5 30.117 14.09 1.5 519 0.00 0.00 0.00 0.00
02/19/19 2:50:19 PM 341 3.0 26.0 25 22 73.2 53.5 30.117 14.09 1.5 515 0.00 0.00 0.00 0.00
02/19/19 2:51:33 PM 318 6.0 26.0 25 26 73.3 53.5 30.115 14.09 1.5 512 0.00 0.00 0.00 0.00
02/19/19 2:52:25 PM 322 5.0 26.0 25 24 73.3 53.5 30.115 14.09 1.5 510 0.00 0.00 0.00 0.00
02/19/19 2:53:35 PM 325 11.0 26.0 25 24 73.3 53.7 30.118 14.09 1.4 506 0.00 0.00 0.00 0.00
02/19/19 2:54:24 PM 325 12.0 26.0 25 24 73.3 53.7 30.118 14.09 1.4 506 0.00 0.00 0.00 0.00
02/19/19 2:55:17 PM 329 11.0 26.0 25 25 73.3 53.7 30.121 14.09 1.4 503 0.00 0.00 0.00 0.00
02/19/19 2:56:31 PM 311 8.0 26.0 25 23 73.3 53.7 30.119 14.09 1.4 499 0.00 0.00 0.00 0.00
02/19/19 2:57:23 PM 338 13.0 26.0 25 23 73.3 53.6 30.119 14.09 1.4 496 0.00 0.00 0.00 0.00
02/19/19 2:58:37 PM 340 13.0 26.0 25 25 73.3 53.6 30.115 14.09 1.4 492 0.00 0.00 0.00 0.00
02/19/19 2:59:26 PM 325 11.0 26.0 25 22 73.3 53.6 30.115 14.09 1.4 492 0.00 0.00 0.00 0.00
02/19/19 3:00:21 PM 335 14.0 26.0 25 23 73.3 53.5 30.119 14.09 1.4 490 0.00 0.00 0.00 0.00
02/19/19 3:01:35 PM 355 9.0 26.0 25 22 73.3 53.4 30.117 14.09 1.3 485 0.00 0.00 0.00 0.00
02/19/19 3:02:28 PM 317 11.0 26.0 25 24 73.3 53.3 30.119 14.09 1.3 485 0.00 0.00 0.00 0.00
02/19/19 3:03:20 PM 323 11.0 26.0 25 25 73.3 53.3 30.119 14.09 1.3 480 0.00 0.00 0.00 0.00
02/19/19 3:04:31 PM 329 10.0 26.0 25 29 73.3 53.5 30.116 14.09 1.3 480 0.00 0.00 0.00 0.00
02/19/19 3:05:17 PM 345 10.0 26.0 25 25 73.3 53.5 30.116 14.09 1.3 480 0.00 0.00 0.00 0.00
02/19/19 3:06:35 PM 343 8.0 26.0 25 26 73.4 53.4 30.116 14.09 1.2 471 0.00 0.00 0.00 0.00
02/19/19 3:07:27 PM 325 14.0 26.0 25 26 73.4 53.4 30.115 14.09 1.2 468 0.00 0.00 0.00 0.00
02/19/19 3:08:19 PM 309 10.0 26.0 25 25 73.4 53.4 30.115 14.09 1.2 468 0.00 0.00 0.00 0.00
02/19/19 3:09:33 PM 330 11.0 26.0 25 26 73.4 53.3 30.116 14.09 1.2 462 0.00 0.00 0.00 0.00
02/19/19 3:10:20 PM 336 10.0 26.0 25 26 73.4 53.3 30.116 14.09 1.2 461 0.00 0.00 0.00 0.00
02/19/19 3:11:34 PM 346 4.0 26.0 25 23 73.4 53.3 30.114 14.09 1.2 457 0.00 0.00 0.00 0.00
02/19/19 3:12:29 PM 339 9.0 26.0 25 26 73.4 53.3 30.113 14.09 1.2 457 0.00 0.00 0.00 0.00
02/19/19 3:13:22 PM 328 12.0 26.0 25 26 73.4 53.4 30.113 14.09 1.1 452 0.00 0.00 0.00 0.00
02/19/19 3:14:36 PM 296 11.0 26.0 25 24 73.4 53.3 30.111 14.09 1.1 446 0.00 0.00 0.00 0.00
02/19/19 3:15:31 PM 333 6.0 26.0 25 24 73.5 53.2 30.110 14.09 1.1 446 0.00 0.00 0.00 0.00
02/19/19 3:16:20 PM 326 8.0 26.0 25 26 73.5 53.2 30.110 14.09 1.1 446 0.00 0.00 0.00 0.00
02/19/19 3:17:31 PM 325 9.0 26.0 25 26 73.5 53.2 30.110 14.09 1.1 438 0.00 0.00 0.00 0.00
02/19/19 3:18:24 PM 327 8.0 26.0 25 25 73.5 53.3 30.110 14.09 1.1 438 0.00 0.00 0.00 0.00
02/19/19 3:19:38 PM 344 4.0 26.0 25 24 73.5 53.2 30.110 14.09 1.0 432 0.00 0.00 0.00 0.00
02/19/19 3:20:30 PM 336 8.0 26.0 25 26 73.5 53.3 30.109 14.09 1.0 429 0.00 0.00 0.00 0.00
02/19/19 3:21:19 PM 360 6.0 26.0 25 25 73.5 53.3 30.109 14.09 1.0 425 0.00 0.00 0.00 0.00
02/19/19 3:22:30 PM 309 4.0 26.0 25 25 73.5 53.3 30.110 14.09 1.0 424 0.00 0.00 0.00 0.00
02/19/19 3:23:23 PM 325 2.0 26.0 25 25 73.5 53.4 30.110 14.09 1.0 420 0.00 0.00 0.00 0.00
02/19/19 3:24:15 PM 329 4.0 26.0 25 25 73.5 53.5 30.113 14.09 1.0 420 0.00 0.00 0.00 0.00
02/19/19 3:25:29 PM 346 8.0 26.0 25 24 73.5 53.6 30.114 14.09 1.0 415 0.00 0.00 0.00 0.00
02/19/19 3:26:22 PM 336 11.0 26.0 25 24 73.5 53.6 30.114 14.09 1.0 411 0.00 0.00 0.00 0.00
02/19/19 3:27:30 PM 325 10.0 26.0 25 25 73.5 53.6 30.115 14.09 0.9 408 0.00 0.00 0.00 0.00
02/19/19 3:28:22 PM 337 5.0 26.0 25 23 73.5 53.6 30.115 14.09 0.9 406 0.00 0.00 0.00 0.00
02/19/19 3:29:37 PM 308 12.0 26.0 25 24 73.5 53.5 30.115 14.09 0.9 401 0.00 0.00 0.00 0.00
02/19/19 3:30:32 PM 326 9.0 26.0 25 25 73.5 53.5 30.112 14.09 0.9 401 0.00 0.00 0.00 0.00
02/19/19 3:31:25 PM 329 15.0 26.0 25 26 73.5 53.5 30.112 14.09 0.9 397 0.00 0.00 0.00 0.00
02/19/19 3:32:32 PM 350 8.0 26.0 25 24 73.6 53.5 30.110 14.09 0.9 394 0.00 0.00 0.00 0.00
02/19/19 3:33:25 PM 348 8.0 26.0 25 23 73.6 53.4 30.110 14.09 0.9 394 0.00 0.00 0.00 0.00
02/19/19 3:34:17 PM 327 12.0 26.0 25 23 73.6 53.3 30.110 14.09 0.9 385 0.00 0.00 0.00 0.00
02/19/19 3:35:31 PM 350 5.0 26.0 25 23 73.6 53.3 30.111 14.09 0.8 381 0.00 0.00 0.00 0.00
02/19/19 3:36:24 PM 331 10.0 26.0 25 23 73.6 53.3 30.111 14.09 0.8 378 0.00 0.00 0.00 0.00
02/19/19 3:37:31 PM 327 9.0 26.0 25 22 73.6 53.2 30.112 14.09 0.8 376 0.00 0.00 0.00 0.00
02/19/19 3:38:27 PM 339 8.0 26.0 25 23 73.5 53.2 30.112 14.09 0.8 373 0.00 0.00 0.00 0.00
02/19/19 3:39:16 PM 30 6.0 26.0 25 23 73.5 53.1 30.112 14.09 0.8 369 0.00 0.00 0.00 0.00
02/19/19 3:40:30 PM 303 8.0 26.0 25 23 73.6 53.1 30.112 14.09 0.8 366 0.00 0.00 0.00 0.00
02/19/19 3:41:22 PM 318 10.0 26.0 25 24 73.6 53.2 30.112 14.09 0.7 362 0.00 0.00 0.00 0.00
02/19/19 3:42:36 PM 9 5.0 26.0 25 24 73.6 53.2 30.109 14.09 0.7 362 0.00 0.00 0.00 0.00
02/19/19 3:43:25 PM 15 7.0 26.0 25 23 73.6 53.2 30.109 14.09 0.7 362 0.00 0.00 0.00 0.00
02/19/19 3:44:37 PM 317 5.0 26.0 25 23 73.6 53.1 30.109 14.09 0.7 350 0.00 0.00 0.00 0.00
02/19/19 3:45:35 PM 329 9.0 26.0 25 24 73.6 53.1 30.110 14.09 0.7 350 0.00 0.00 0.00 0.00
02/19/19 3:46:22 PM 311 10.0 26.0 25 26 73.6 53.1 30.110 14.09 0.7 350 0.00 0.00 0.00 0.00
02/19/19 3:47:34 PM 325 12.0 26.0 25 24 73.7 53.1 30.110 14.09 0.7 341 0.00 0.00 0.00 0.00
02/19/19 3:48:24 PM 342 9.0 26.0 25 21 73.7 53.2 30.110 14.09 0.7 338 0.00 0.00 0.00 0.00
02/19/19 3:49:16 PM 347 8.0 26.0 25 22 73.6 53.2 30.110 14.09 0.6 334 0.00 0.00 0.00 0.00
02/19/19 3:50:30 PM 5 3.0 26.0 25 23 73.7 53.2 30.111 14.09 0.6 330 0.00 0.00 0.00 0.00
02/19/19 3:51:22 PM 355 6.0 26.0 25 24 73.7 53.2 30.111 14.09 0.6 330 0.00 0.00 0.00 0.00
02/19/19 3:52:18 PM 9 7.0 26.0 25 25 73.7 53.3 30.111 14.09 0.6 330 0.00 0.00 0.00 0.00
02/19/19 3:53:29 PM 30 5.0 26.0 25 25 73.7 53.3 30.110 14.09 0.6 320 0.00 0.00 0.00 0.00
02/19/19 3:54:18 PM 315 8.0 26.0 25 23 73.7 53.3 30.110 14.09 0.6 318 0.00 0.00 0.00 0.00
02/19/19 3:55:32 PM 342 9.0 26.0 25 23 73.7 53.3 30.112 14.09 0.6 315 0.00 0.00 0.00 0.00
02/19/19 3:56:24 PM 13 5.0 26.0 25 23 73.7 53.3 30.112 14.09 0.6 315 0.00 0.00 0.00 0.00
02/19/19 3:57:17 PM 325 8.0 26.0 25 23 73.7 53.3 30.110 14.09 0.5 315 0.00 0.00 0.00 0.00
02/19/19 3:58:29 PM 332 9.0 26.0 25 23 73.7 53.3 30.110 14.09 0.5 304 0.00 0.00 0.00 0.00
02/19/19 3:59:37 PM 325 10.0 26.0 25 21 73.7 53.3 30.111 14.09 0.5 297 0.00 0.00 0.00 0.00
02/19/19 4:00:33 PM 327 15.0 26.0 25 23 73.7 53.2 30.107 14.09 0.5 295 0.00 0.00 0.00 0.00
02/19/19 4:01:25 PM 330 5.0 26.0 25 23 73.7 53.2 30.107 14.09 0.5 295 0.00 0.00 0.00 0.00
02/19/19 4:02:18 PM 317 10.0 26.0 25 23 73.8 53.1 30.108 14.09 0.5 295 0.00 0.00 0.00 0.00
02/19/19 4:03:32 PM 327 8.0 26.0 25 22 73.8 53.1 30.107 14.09 0.5 285 0.00 0.00 0.00 0.00
02/19/19 4:04:24 PM 306 8.0 26.0 25 23 73.8 53.1 30.107 14.09 0.5 279 0.00 0.00 0.00 0.00
02/19/19 4:05:35 PM 332 8.0 26.0 25 24 73.8 53.1 30.104 14.09 0.5 276 0.00 0.00 0.00 0.00
02/19/19 4:06:27 PM 328 4.0 26.0 25 25 73.8 53.1 30.104 14.09 0.0 276 0.00 0.00 0.00 0.00
02/19/19 4:07:20 PM 338 6.0 26.0 25 23 73.8 53.1 30.104 14.09 0.0 269 0.00 0.00 0.00 0.00
02/19/19 4:08:34 PM 327 6.0 26.0 25 23 73.8 53.1 30.108 14.09 0.0 265 0.00 0.00 0.00 0.00
02/19/19 4:09:26 PM 333 11.0 26.0 25 23 73.8 53.1 30.108 14.09 0.0 264 0.00 0.00 0.00 0.00
02/19/19 4:10:34 PM 340 10.0 26.0 25 23 73.8 53.1 30.108 14.09 0.0 264 0.00 0.00 0.00 0.00
02/19/19 4:11:26 PM 332 8.0 26.0 25 22 73.8 53.1 30.104 14.09 0.0 255 0.00 0.00 0.00 0.00
02/19/19 4:12:21 PM 332 6.0 26.0 25 21 73.8 53.0 30.104 14.09 0.0 255 0.00 0.00 0.00 0.00
02/19/19 4:13:32 PM 310 5.0 26.0 25 23 73.8 53.0 30.106 14.09 0.0 248 0.00 0.00 0.00 0.00
02/19/19 4:14:24 PM 337 12.0 26.0 25 24 73.8 53.0 30.106 14.09 0.0 244 0.00 0.00 0.00 0.00
02/19/19 4:15:20 PM 335 10.0 26.0 25 23 73.8 53.0 30.108 14.09 0.0 239 0.00 0.00 0.00 0.00
02/19/19 4:16:30 PM 340 9.0 26.0 25 22 73.8 52.9 30.106 14.09 0.0 239 0.00 0.00 0.00 0.00
02/19/19 4:17:20 PM 333 9.0 26.0 25 22 73.8 52.9 30.106 14.09 0.0 229 0.00 0.00 0.00 0.00
02/19/19 4:18:33 PM 318 10.0 26.0 25 22 73.8 52.8 30.109 14.09 0.0 225 0.00 0.00 0.00 0.00
02/19/19 4:19:26 PM 323 8.0 26.0 25 23 73.8 52.9 30.109 14.09 0.0 221 0.00 0.00 0.00 0.00
02/19/19 4:20:18 PM 331 4.0 26.0 25 20 73.8 52.8 30.105 14.09 0.0 216 0.00 0.00 0.00 0.00
02/19/19 4:21:25 PM 313 4.0 26.0 25 20 73.8 52.8 30.104 14.09 0.0 216 0.00 0.00 0.00 0.00
02/19/19 4:22:18 PM 324 4.0 26.0 25 23 73.8 52.8 30.105 14.09 0.0 216 0.00 0.00 0.00 0.00
02/19/19 4:23:31 PM 328 8.0 26.0 25 23 73.9 52.8 30.103 14.09 0.0 204 0.00 0.00 0.00 0.00
02/19/19 4:24:24 PM 331 3.0 26.0 25 23 73.9 52.8 30.103 14.09 0.0 200 0.00 0.00 0.00 0.00
02/19/19 4:25:19 PM 340 3.0 26.0 25 21 73.8 52.8 30.103 14.09 0.0 197 0.00 0.00 0.00 0.00
02/19/19 4:26:27 PM 333 9.0 26.0 25 21 73.8 52.9 30.101 14.09 0.0 192 0.00 0.00 0.00 0.00
02/19/19 4:27:19 PM 321 8.0 26.0 25 21 73.8 52.9 30.101 14.09 0.0 190 0.00 0.00 0.00 0.00
02/19/19 4:28:33 PM 329 3.0 26.0 25 21 73.8 53.0 30.100 14.09 0.0 185 0.00 0.00 0.00 0.00
02/19/19 4:29:22 PM 330 6.0 26.0 25 22 73.8 53.0 30.100 14.09 0.0 181 0.00 0.00 0.00 0.00
02/19/19 4:30:21 PM 319 6.0 26.0 25 22 73.8 53.0 30.101 14.09 0.0 181 0.00 0.00 0.00 0.00
02/19/19 4:31:31 PM 360 3.0 26.0 25 22 73.9 53.0 30.101 14.09 0.0 169 0.00 0.00 0.00 0.00
02/19/19 4:32:20 PM 331 3.0 26.0 25 22 73.9 53.0 30.101 14.09 0.0 169 0.00 0.00 0.00 0.00
02/19/19 4:33:34 PM 291 8.0 26.0 25 24 73.9 53.0 30.104 14.09 0.0 165 0.00 0.00 0.00 0.00
02/19/19 4:34:27 PM 321 11.0 26.0 25 26 73.8 52.9 30.103 14.09 0.0 156 0.00 0.00 0.00 0.00
02/19/19 4:35:19 PM 340 11.0 26.0 25 25 73.8 52.9 30.103 14.09 0.0 156 0.00 0.00 0.00 0.00
02/19/19 4:36:33 PM 317 9.0 26.0 25 25 73.9 52.8 30.104 14.09 0.0 156 0.00 0.00 0.00 0.00
02/19/19 4:37:22 PM 325 6.0 26.0 25 26 73.9 52.7 30.104 14.09 0.0 156 0.00 0.00 0.00 0.00
02/19/19 4:38:33 PM 312 8.0 26.0 25 26 73.9 52.6 30.103 14.09 0.0 156 0.00 0.00 0.00 0.00
02/19/19 4:39:26 PM 319 4.0 26.0 25 25 73.9 52.5 30.103 14.09 0.0 156 0.00 0.00 0.00 0.00
02/19/19 4:40:18 PM 326 8.0 26.0 25 25 73.9 52.4 30.103 14.09 0.0 134 0.00 0.00 0.00 0.00
02/19/19 4:41:29 PM 330 5.0 26.0 25 26 73.8 52.4 30.102 14.09 0.0 130 0.00 0.00 0.00 0.00
02/19/19 4:42:21 PM 318 6.0 26.0 25 25 73.8 52.4 30.102 14.09 0.0 127 0.00 0.00 0.00 0.00
02/19/19 4:43:32 PM 337 9.0 26.0 25 25 73.9 52.3 30.104 14.09 0.0 123 0.00 0.00 0.00 0.00
02/19/19 4:44:24 PM 317 9.0 26.0 25 26 73.9 52.3 30.104 14.09 0.0 123 0.00 0.00 0.00 0.00
02/19/19 4:45:20 PM 313 9.0 26.0 25 26 73.9 52.2 30.105 14.09 0.0 116 0.00 0.00 0.00 0.00
02/19/19 4:46:34 PM 327 12.0 26.0 25 25 73.9 52.2 30.105 14.09 0.0 113 0.00 0.00 0.00 0.00
02/19/19 4:47:26 PM 318 9.0 26.0 25 25 73.9 52.2 30.103 14.09 0.0 105 0.00 0.00 0.00 0.00
02/19/19 4:48:37 PM 336 9.0 26.0 25 25 73.9 52.1 30.105 14.09 0.0 102 0.00 0.00 0.00 0.00
02/19/19 4:49:29 PM 323 11.0 26.0 25 26 73.9 52.1 30.104 14.09 0.0 102 0.00 0.00 0.00 0.00
02/19/19 4:50:21 PM 321 6.0 26.0 25 26 73.9 52.1 30.104 14.09 0.0 95 0.00 0.00 0.00 0.00
02/19/19 4:51:32 PM 331 8.0 26.0 25 25 73.9 52.1 30.102 14.09 0.0 93 0.00 0.00 0.00 0.00
02/19/19 4:52:27 PM 335 10.0 26.0 25 25 73.9 52.1 30.102 14.09 0.0 90 0.00 0.00 0.00 0.00
02/19/19 4:53:17 PM 336 10.0 26.0 25 25 73.9 52.0 30.103 14.09 0.0 86 0.00 0.00 0.00 0.00
02/19/19 4:54:27 PM 337 5.0 26.0 25 24 73.9 52.0 30.104 14.09 0.0 83 0.00 0.00 0.00 0.00
02/19/19 4:55:20 PM 334 8.0 26.0 25 24 73.9 52.0 30.104 14.09 0.0 79 0.00 0.00 0.00 0.00
02/19/19 4:56:33 PM 348 6.0 26.0 25 22 73.9 52.1 30.104 14.09 0.0 76 0.00 0.00 0.00 0.00
02/19/19 4:57:23 PM 360 2.0 26.0 25 22 73.9 52.1 30.104 14.09 0.0 72 0.00 0.00 0.00 0.00
02/19/19 4:58:19 PM 346 5.0 26.0 25 22 73.9 52.2 30.107 14.09 0.0 70 0.00 0.00 0.00 0.00
02/19/19 4:59:27 PM 350 4.0 26.0 25 24 73.9 52.2 30.103 14.09 0.0 67 0.00 0.00 0.00 0.00
02/19/19 5:00:25 PM 343 4.0 26.0 25 24 73.9 52.2 30.103 14.09 0.0 67 0.00 0.00 0.00 0.00
02/19/19 5:01:36 PM 341 5.0 26.0 25 25 73.9 52.1 30.105 14.09 0.0 58 0.00 0.00 0.00 0.00
02/19/19 5:02:28 PM 336 5.0 26.0 25 26 73.9 52.0 30.104 14.09 0.0 54 0.00 0.00 0.00 0.00
02/19/19 5:03:21 PM 331 5.0 26.0 25 25 73.9 51.9 30.104 14.09 0.0 53 0.00 0.00 0.00 0.00
02/19/19 5:04:32 PM 324 4.0 26.0 25 25 73.9 51.8 30.103 14.09 0.0 49 0.00 0.00 0.00 0.00
02/19/19 5:05:24 PM 314 5.0 26.0 25 26 73.9 51.8 30.103 14.09 0.0 47 0.00 0.00 0.00 0.00
02/19/19 5:06:16 PM 309 7.0 26.0 25 26 73.9 51.7 30.103 14.09 0.0 44 0.00 0.00 0.00 0.00
02/19/19 5:07:30 PM 310 4.0 26.0 25 26 73.9 51.6 30.107 14.09 0.0 42 0.00 0.00 0.00 0.00
02/19/19 5:08:22 PM 317 6.0 26.0 25 28 73.9 51.4 30.107 14.09 0.0 39 0.00 0.00 0.00 0.00
02/19/19 5:09:36 PM 324 9.0 26.0 25 27 73.9 51.3 30.105 14.09 0.0 35 0.00 0.00 0.00 0.00
02/19/19 5:10:22 PM 319 8.0 26.0 25 27 73.9 51.2 30.105 14.09 0.0 35 0.00 0.00 0.00 0.00
02/19/19 5:11:15 PM 333 6.0 26.0 25 27 73.9 51.2 30.105 14.09 0.0 32 0.00 0.00 0.00 0.00
02/19/19 5:12:29 PM 325 5.0 26.0 25 27 73.9 51.2 30.105 14.09 0.0 32 0.00 0.00 0.00 0.00
02/19/19 5:13:21 PM 319 6.0 26.0 25 27 73.9 51.1 30.105 14.09 0.0 26 0.00 0.00 0.00 0.00
02/19/19 5:14:32 PM 320 3.0 26.0 25 28 73.9 51.0 30.106 14.09 0.0 25 0.00 0.00 0.00 0.00
02/19/19 5:15:24 PM 316 3.0 26.0 25 28 73.9 50.9 30.106 14.09 0.0 23 0.00 0.00 0.00 0.00
02/19/19 5:16:17 PM 315 4.0 26.0 25 28 73.9 50.9 30.105 14.09 0.0 23 0.00 0.00 0.00 0.00
02/19/19 5:17:27 PM 321 5.0 26.0 25 28 73.9 50.7 30.106 14.09 0.0 19 0.00 0.00 0.00 0.00
02/19/19 5:18:22 PM 324 5.0 26.0 25 28 73.9 50.6 30.106 14.09 0.0 16 0.00 0.00 0.00 0.00
02/19/19 5:19:33 PM 341 5.0 26.0 25 29 73.9 50.5 30.107 14.09 0.0 14 0.00 0.00 0.00 0.00
02/19/19 5:20:28 PM 347 3.0 26.0 25 27 73.9 50.5 30.106 14.09 0.0 14 0.00 0.00 0.00 0.00
02/19/19 5:21:36 PM 340 6.0 26.0 25 27 73.9 50.5 30.107 14.09 0.0 14 0.00 0.00 0.00 0.00
02/19/19 5:22:28 PM 342 8.0 26.0 25 28 73.9 50.5 30.108 14.09 0.0 14 0.00 0.00 0.00 0.00
02/19/19 5:23:20 PM 341 8.0 26.0 25 27 73.9 50.5 30.108 14.09 0.0 14 0.00 0.00 0.00 0.00
02/19/19 5:24:34 PM 342 6.0 26.0 25 26 73.9 50.5 30.107 14.09 0.0 12 0.00 0.00 0.00 0.00
02/19/19 5:25:26 PM 343 5.0 26.0 25 27 73.9 50.5 30.107 14.09 0.0 12 0.00 0.00 0.00 0.00
02/19/19 5:26:34 PM 5 3.0 26.0 25 27 73.9 50.5 30.107 14.09 0.0 11 0.00 0.00 0.00 0.00
02/19/19 5:27:29 PM 342 5.0 26.0 25 28 73.9 50.5 30.109 14.09 0.0 11 0.00 0.00 0.00 0.00
02/19/19 5:28:22 PM 338 5.0 26.0 25 28 73.9 50.5 30.109 14.09 0.0 11 0.00 0.00 0.00 0.00
02/19/19 5:29:32 PM 340 4.0 26.0 25 27 73.8 50.5 30.108 14.09 0.0 9 0.00 0.00 0.00 0.00
02/19/19 5:30:28 PM 325 4.0 26.0 25 27 73.8 50.5 30.108 14.09 0.0 9 0.00 0.00 0.00 0.00
02/19/19 5:31:20 PM 325 1.0 26.0 25 27 73.9 50.4 30.106 14.09 0.0 9 0.00 0.00 0.00 0.00
02/19/19 5:32:31 PM 324 2.0 26.0 25 27 73.8 50.3 30.107 14.09 0.0 7 0.00 0.00 0.00 0.00
02/19/19 5:33:24 PM 312 3.0 26.0 25 29 73.8 50.1 30.107 14.09 0.0 7 0.00 0.00 0.00 0.00
02/19/19 5:34:16 PM 313 2.0 26.0 25 29 73.8 50.0 30.104 14.09 0.0 7 0.00 0.00 0.00 0.00
02/19/19 5:35:30 PM 313 1.0 26.0 25 29 73.8 49.8 30.105 14.09 0.0 7 0.00 0.00 0.00 0.00
02/19/19 5:36:22 PM 316 5.0 26.0 25 30 73.8 49.7 30.105 14.09 0.0 5 0.00 0.00 0.00 0.00
02/19/19 5:37:30 PM 318 1.0 26.0 25 30 73.8 49.4 30.104 14.09 0.0 5 0.00 0.00 0.00 0.00
02/19/19 5:38:22 PM 317 1.0 26.0 25 30 73.8 49.4 30.104 14.09 0.0 0 0.00 0.00 0.00 0.00
02/19/19 5:39:36 PM 317 2.0 26.0 25 30 73.8 49.4 30.109 14.09 0.0 0 0.00 0.00 0.00 0.00
02/19/19 5:40:26 PM 317 0.0 26.0 25 30 73.8 49.3 30.106 14.09 0.0 0 0.00 0.00 0.00 0.00
02/19/19 5:41:21 PM 317 1.0 26.0 25 30 73.8 49.2 30.106 14.09 0.0 0 0.00 0.00 0.00 0.00
02/19/19 5:42:29 PM 317 2.0 26.0 25 30 73.8 49.2 30.106 14.09 0.0 0 0.00 0.00 0.00 0.00
02/19/19 5:43:21 PM 317 3.0 26.0 25 29 73.8 49.1 30.106 14.09 0.0 0 0.00 0.00 0.00 0.00
02/19/19 5:44:35 PM 317 2.0 26.0 25 29 73.8 49.0 30.106 14.09 0.0 0 0.00 0.00 0.00 0.00
02/19/19 5:45:30 PM 317 1.0 26.0 25 30 73.8 49.0 30.107 14.09 0.0 0 0.00 0.00 0.00 0.00
02/19/19 5:46:23 PM 319 1.0 26.0 25 30 73.8 48.9 30.107 14.09 0.0 0 0.00 0.00 0.00 0.00
02/19/19 5:47:18 PM 14 3.0 26.0 25 29 73.8 48.8 30.106 14.09 0.0 0 0.00 0.00 0.00 0.00
02/19/19 5:48:26 PM 14 3.0 26.0 25 29 73.8 48.7 30.108 14.09 0.0 0 0.00 0.00 0.00 0.00
02/19/19 5:49:21 PM 14 2.0 26.0 25 29 73.8 48.7 30.108 14.09 0.0 0 0.00 0.00 0.00 0.00
02/19/19 5:50:35 PM 336 2.0 26.0 25 29 73.8 48.5 30.110 14.09 0.0 0 0.00 0.00 0.00 0.00
02/19/19 5:51:28 PM 336 2.0 26.0 25 30 73.8 48.5 30.109 14.09 0.0 0 0.00 0.00 0.00 0.00
02/19/19 5:52:20 PM 336 3.0 26.0 25 31 73.8 48.4 30.109 14.09 0.0 0 0.00 0.00 0.00 0.00
02/19/19 5:53:28 PM 336 3.0 26.0 25 32 73.8 48.2 30.108 14.09 0.0 0 0.00 0.00 0.00 0.00
02/19/19 5:54:17 PM 336 3.0 26.0 25 32 73.8 48.1 30.108 14.09 0.0 0 0.00 0.00 0.00 0.00
02/19/19 5:55:31 PM 336 2.0 26.0 25 33 73.8 47.9 30.113 14.09 0.0 0 0.00 0.00 0.00 0.00
02/19/19 5:56:27 PM 336 2.0 26.0 25 32 73.8 47.8 30.113 14.09 0.0 0 0.00 0.00 0.00 0.00
02/19/19 5:57:20 PM 336 2.0 26.0 25 32 73.7 47.6 30.111 14.09 0.0 0 0.00 0.00 0.00 0.00
02/19/19 5:58:30 PM 336 3.0 26.0 25 32 73.7 47.5 30.117 14.09 0.0 0 0.00 0.00 0.00 0.00
02/19/19 5:59:20 PM 313 4.0 26.0 25 32 73.7 47.4 30.117 14.09 0.0 0 0.00 0.00 0.00 0.00
02/19/19 6:00:37 PM 312 3.0 26.0 25 32 73.7 47.4 30.115 14.09 0.0 0 0.00 0.00 0.00 0.00
02/19/19 6:01:29 PM 312 3.0 26.0 25 32 73.7 47.3 30.112 14.09 0.0 0 0.00 0.00 0.00 0.00
02/19/19 6:02:21 PM 313 4.0 26.0 25 33 73.7 47.3 30.112 14.09 0.0 0 0.00 0.00 0.00 0.00
02/19/19 6:03:35 PM 320 2.0 26.0 25 33 73.7 47.2 30.114 14.09 0.0 0 0.00 0.00 0.00 0.00
02/19/19 6:04:22 PM 320 3.0 26.0 25 33 73.7 47.2 30.114 14.09 0.0 0 0.00 0.00 0.00 0.00
02/19/19 6:05:36 PM 320 2.0 26.0 25 34 73.7 47.0 30.114 14.09 0.0 0 0.00 0.00 0.00 0.00
02/19/19 6:06:28 PM 320 2.0 26.0 25 34 73.7 46.9 30.114 14.09 0.0 0 0.00 0.00 0.00 0.00
02/19/19 6:07:21 PM 320 2.0 26.0 25 35 73.7 46.8 30.114 14.09 0.0 0 0.00 0.00 0.00 0.00
02/19/19 6:08:35 PM 318 2.0 26.0 25 35 73.7 46.6 30.113 14.09 0.0 0 0.00 0.00 0.00 0.00
02/19/19 6:09:27 PM 298 3.0 26.0 25 35 73.6 46.5 30.116 14.09 0.0 0 0.00 0.00 0.00 0.00
02/19/19 6:10:35 PM 299 2.0 26.0 25 34 73.6 46.4 30.114 14.09 0.0 0 0.00 0.00 0.00 0.00
02/19/19 6:11:30 PM 299 2.0 26.0 25 33 73.6 46.4 30.117 14.09 0.0 0 0.00 0.00 0.00 0.00
02/19/19 6:12:23 PM 298 3.0 26.0 25 34 73.6 46.4 30.117 14.09 0.0 0 0.00 0.00 0.00 0.00
02/19/19 6:13:34 PM 298 3.0 26.0 25 34 73.5 46.4 30.118 14.09 0.0 0 0.00 0.00 0.00 0.00
02/19/19 6:14:29 PM 257 4.0 26.0 25 35 73.5 46.3 30.120 14.09 0.0 0 0.00 0.00 0.00 0.00
02/19/19 6:15:40 PM 258 2.0 26.0 25 35 73.5 46.3 30.119 14.09 0.0 0 0.00 0.00 0.00 0.00
02/19/19 6:16:32 PM 298 4.0 26.0 25 35 73.5 46.3 30.120 14.09 0.0 0 0.00 0.00 0.00 0.00
02/19/19 6:17:25 PM 299 3.0 26.0 25 34 73.5 46.4 30.120 14.09 0.0 0 0.00 0.00 0.00 0.00
02/19/19 6:18:17 PM 298 3.0 26.0 25 34 73.5 46.4 30.122 14.09 0.0 0 0.00 0.00 0.00 0.00
02/19/19 6:19:31 PM 298 2.0 26.0 25 34 73.4 46.5 30.124 14.09 0.0 0 0.00 0.00 0.00 0.00
02/19/19 6:20:24 PM 298 1.0 26.0 25 34 73.4 46.5 30.124 14.09 0.0 0 0.00 0.00 0.00 0.00
02/19/19 6:21:31 PM 298 3.0 26.0 25 34 73.4 46.4 30.122 14.09 0.0 0 0.00 0.00 0.00 0.00
02/19/19 6:22:24 PM 299 2.0 26.0 25 34 73.4 46.4 30.122 14.09 0.0 0 0.00 0.00 0.00 0.00
02/19/19 6:23:17 PM 304 4.0 26.0 25 35 73.4 46.4 30.123 14.09 0.0 0 0.00 0.00 0.00 0.00
02/19/19 6:24:31 PM 312 3.0 26.0 25 36 73.4 46.3 30.124 14.09 0.0 0 0.00 0.00 0.00 0.00
02/19/19 6:25:23 PM 311 2.0 26.0 25 36 73.4 46.3 30.124 14.09 0.0 0 0.00 0.00 0.00 0.00
02/19/19 6:26:34 PM 311 2.0 26.0 25 37 73.4 46.2 30.125 14.09 0.0 0 0.00 0.00 0.00 0.00
02/19/19 6:27:23 PM 315 4.0 26.0 25 36 73.4 46.1 30.125 14.09 0.0 0 0.00 0.00 0.00 0.00
02/19/19 6:28:34 PM 315 3.0 26.0 25 36 73.3 46.2 30.125 14.09 0.0 0 0.00 0.00 0.00 0.00
02/19/19 6:29:27 PM 315 2.0 26.0 25 36 73.3 46.2 30.126 14.09 0.0 0 0.00 0.00 0.00 0.00
02/19/19 6:30:25 PM 315 1.0 26.0 25 36 73.3 46.3 30.126 14.09 0.0 0 0.00 0.00 0.00 0.00
02/19/19 6:31:18 PM 316 4.0 26.0 25 37 73.3 46.4 30.126 14.09 0.0 0 0.00 0.00 0.00 0.00
02/19/19 6:32:25 PM 316 1.0 26.0 25 37 73.3 46.4 30.126 14.09 0.0 0 0.00 0.00 0.00 0.00
02/19/19 6:33:18 PM 293 4.0 26.0 25 37 73.3 46.5 30.126 14.09 0.0 0 0.00 0.00 0.00 0.00
02/19/19 6:34:32 PM 293 3.0 26.0 25 37 73.3 46.5 30.127 14.09 0.0 0 0.00 0.00 0.00 0.00
02/19/19 6:35:24 PM 293 3.0 26.0 25 37 73.3 46.5 30.127 14.09 0.0 0 0.00 0.00 0.00 0.00
02/19/19 6:36:17 PM 294 3.0 26.0 25 37 73.3 46.5 30.128 14.09 0.0 0 0.00 0.00 0.00 0.00
02/19/19 6:37:27 PM 313 4.0 26.0 25 38 73.2 46.5 30.128 14.09 0.0 0 0.00 0.00 0.00 0.00
02/19/19 6:38:20 PM 313 3.0 26.0 25 38 73.2 46.5 30.128 14.09 0.0 0 0.00 0.00 0.00 0.00
02/19/19 6:39:31 PM 313 2.0 26.0 25 40 73.2 46.4 30.131 14.09 0.0 0 0.00 0.00 0.00 0.00
02/19/19 6:40:23 PM 313 2.0 26.0 25 40 73.2 46.4 30.131 14.09 0.0 0 0.00 0.00 0.00 0.00
02/19/19 6:41:34 PM 313 2.0 26.0 25 40 73.2 46.4 30.130 14.09 0.0 0 0.00 0.00 0.00 0.00
02/19/19 6:42:24 PM 313 3.0 26.0 25 41 73.2 46.3 30.130 14.09 0.0 0 0.00 0.00 0.00 0.00
02/19/19 6:43:16 PM 313 2.0 26.0 25 41 73.1 46.3 30.131 14.09 0.0 0 0.00 0.00 0.00 0.00
02/19/19 6:44:30 PM 313 2.0 26.0 25 41 73.2 46.3 30.132 14.09 0.0 0 0.00 0.00 0.00 0.00
02/19/19 6:45:28 PM 313 1.0 26.0 25 42 73.2 46.2 30.132 14.09 0.0 0 0.00 0.00 0.00 0.00
02/19/19 6:46:18 PM 318 4.0 26.0 25 42 73.2 46.2 30.132 14.09 0.0 0 0.00 0.00 0.00 0.00
02/19/19 6:47:32 PM 318 3.0 26.0 25 43 73.2 46.2 30.133 14.09 0.0 0 0.00 0.00 0.00 0.00
02/19/19 6:48:21 PM 316 2.0 26.0 25 44 73.2 46.2 30.133 14.09 0.0 0 0.00 0.00 0.00 0.00
02/19/19 6:49:32 PM 316 3.0 26.0 25 44 73.1 46.1 30.133 14.09 0.0 0 0.00 0.00 0.00 0.00
02/19/19 6:50:25 PM 316 1.0 26.0 25 44 73.1 46.1 30.133 14.09 0.0 0 0.00 0.00 0.00 0.00
02/19/19 6:51:36 PM 316 1.0 26.0 25 44 73.2 46.1 30.132 14.09 0.0 0 0.00 0.00 0.00 0.00
02/19/19 6:52:28 PM 316 2.0 26.0 25 44 73.2 46.1 30.134 14.09 0.0 0 0.00 0.00 0.00 0.00
02/19/19 6:53:36 PM 316 1.0 26.0 25 45 73.1 46.2 30.133 14.09 0.0 0 0.00 0.00 0.00 0.00
02/19/19 6:54:29 PM 317 2.0 26.0 25 46 73.1 46.2 30.132 14.09 0.0 0 0.00 0.00 0.00 0.00
02/19/19 6:55:21 PM 317 1.0 26.0 25 46 73.1 46.2 30.132 14.09 0.0 0 0.00 0.00 0.00 0.00
02/19/19 6:56:35 PM 317 1.0 26.0 25 46 73.2 46.1 30.132 14.09 0.0 0 0.00 0.00 0.00 0.00
02/19/19 6:57:30 PM 317 2.0 26.0 25 47 73.3 46.2 30.131 14.09 0.0 0 0.00 0.00 0.00 0.00
02/19/19 6:58:20 PM 317 1.0 26.0 25 47 73.3 46.2 30.131 14.09 0.0 0 0.00 0.00 0.00 0.00
02/19/19 6:59:31 PM 317 0.0 26.0 25 47 73.3 46.2 30.134 14.09 0.0 0 0.00 0.00 0.00 0.00
02/19/19 7:00:30 PM 324 4.0 26.0 25 47 73.3 46.3 30.134 14.09 0.0 0 0.00 0.00 0.00 0.00
02/19/19 7:01:19 PM 324 1.0 26.0 25 49 73.2 46.3 30.137 14.09 0.0 0 0.00 0.00 0.00 0.00
02/19/19 7:02:33 PM 324 0.0 26.0 25 50 73.3 46.3 30.136 14.09 0.0 0 0.00 0.00 0.00 0.00
02/19/19 7:03:26 PM 324 0.0 26.0 25 50 73.3 46.3 30.136 14.09 0.0 0 0.00 0.00 0.00 0.00
02/19/19 7:04:31 PM 324 1.0 26.0 25 50 73.2 46.2 30.139 14.09 0.0 0 0.00 0.00 0.00 0.00
02/19/19 7:05:26 PM 324 1.0 26.0 25 50 73.2 46.2 30.139 14.09 0.0 0 0.00 0.00 0.00 0.00
02/19/19 7:06:18 PM 324 0.0 26.0 25 50 73.3 46.1 30.140 14.09 0.0 0 0.00 0.00 0.00 0.00
02/19/19 7:07:29 PM 324 0.0 26.0 25 50 73.3 46.0 30.140 14.09 0.0 0 0.00 0.00 0.00 0.00
02/19/19 7:08:22 PM 324 1.0 26.0 25 49 73.3 45.9 30.140 14.09 0.0 0 0.00 0.00 0.00 0.00
02/19/19 7:09:30 PM 329 2.0 26.0 25 51 73.3 45.8 30.139 14.09 0.0 0 0.00 0.00 0.00 0.00
02/19/19 7:10:23 PM 58 1.0 26.0 25 51 73.3 45.8 30.139 14.09 0.0 0 0.00 0.00 0.00 0.00
02/19/19 7:11:34 PM 58 0.0 26.0 25 52 73.3 45.6 30.142 14.09 0.0 0 0.00 0.00 0.00 0.00
02/19/19 7:12:26 PM 58 0.0 26.0 25 52 73.3 45.5 30.140 14.09 0.0 0 0.00 0.00 0.00 0.00
02/19/19 7:13:22 PM 58 0.0 26.0 25 52 73.3 45.4 30.140 14.09 0.0 0 0.00 0.00 0.00 0.00
02/19/19 7:14:33 PM 10 2.0 26.0 25 53 73.3 45.3 30.144 14.09 0.0 0 0.00 0.00 0.00 0.00
02/19/19 7:15:22 PM 9 2.0 26.0 25 53 73.3 45.2 30.144 14.09 0.0 0 0.00 0.00 0.00 0.00
02/19/19 7:16:33 PM 13 1.0 26.0 25 53 73.3 45.2 30.145 14.09 0.0 0 0.00 0.00 0.00 0.00
02/19/19 7:17:26 PM 13 3.0 26.0 25 53 73.3 45.2 30.139 14.09 0.0 0 0.00 0.00 0.00 0.00
02/19/19 7:18:19 PM 13 1.0 26.0 25 54 73.3 45.1 30.139 14.09 0.0 0 0.00 0.00 0.00 0.00
02/19/19 7:19:33 PM 13 1.0 26.0 25 55 73.4 45.1 30.142 14.09 0.0 0 0.00 0.00 0.00 0.00
02/19/19 7:20:19 PM 13 1.0 26.0 25 55 73.4 44.9 30.142 14.09 0.0 0 0.00 0.00 0.00 0.00
02/19/19 7:21:33 PM 13 1.0 26.0 25 55 73.3 44.7 30.140 14.09 0.0 0 0.00 0.00 0.00 0.00
02/19/19 7:22:26 PM 13 2.0 26.0 25 56 73.3 44.7 30.140 14.09 0.0 0 0.00 0.00 0.00 0.00
02/19/19 7:23:19 PM 13 1.0 26.0 25 57 73.3 44.6 30.140 14.09 0.0 0 0.00 0.00 0.00 0.00
02/19/19 7:24:33 PM 13 0.0 26.0 25 56 73.3 44.5 30.145 14.09 0.0 0 0.00 0.00 0.00 0.00
02/19/19 7:25:25 PM 13 0.0 26.0 25 56 73.3 44.6 30.145 14.09 0.0 0 0.00 0.00 0.00 0.00
02/19/19 7:26:33 PM 13 2.0 26.0 25 56 73.3 44.7 30.147 14.09 0.0 0 0.00 0.00 0.00 0.00
02/19/19 7:27:25 PM 138 4.0 26.0 25 55 73.3 44.9 30.147 14.09 0.0 0 0.00 0.00 0.00 0.00
02/19/19 7:28:18 PM 84 7.0 26.0 25 55 73.3 45.0 30.146 14.09 0.0 0 0.00 0.00 0.00 0.00
02/19/19 7:29:32 PM 81 1.0 26.0 25 55 73.3 45.1 30.148 14.09 0.0 0 0.00 0.00 0.00 0.00
02/19/19 7:30:28 PM 81 1.0 26.0 25 55 73.3 45.3 30.148 14.09 0.0 0 0.00 0.00 0.00 0.00
02/19/19 7:31:36 PM 261 1.0 26.0 25 55 73.4 45.4 30.147 14.09 0.0 0 0.00 0.00 0.00 0.00
02/19/19 7:32:28 PM 306 4.0 26.0 25 54 73.4 45.6 30.149 14.09 0.0 0 0.00 0.00 0.00 0.00
02/19/19 7:33:18 PM 306 2.0 26.0 25 54 73.4 45.7 30.149 14.09 0.0 0 0.00 0.00 0.00 0.00
02/19/19 7:34:32 PM 306 2.0 26.0 25 54 73.4 45.6 30.151 14.09 0.0 0 0.00 0.00 0.00 0.00
02/19/19 7:35:24 PM 306 0.0 26.0 25 54 73.4 45.5 30.151 14.09 0.0 0 0.00 0.00 0.00 0.00
02/19/19 7:36:17 PM 306 0.0 26.0 25 54 73.4 45.3 30.150 14.09 0.0 0 0.00 0.00 0.00 0.00
02/19/19 7:37:25 PM 306 0.0 26.0 25 54 73.3 45.1 30.150 14.09 0.0 0 0.00 0.00 0.00 0.00
02/19/19 7:38:20 PM 306 1.0 26.0 25 54 73.3 45.1 30.150 14.09 0.0 0 0.00 0.00 0.00 0.00
02/19/19 7:39:31 PM 306 1.0 26.0 25 54 73.3 44.9 30.153 14.09 0.0 0 0.00 0.00 0.00 0.00
02/19/19 7:40:24 PM 305 2.0 26.0 25 54 73.3 45.0 30.153 14.09 0.0 0 0.00 0.00 0.00 0.00
02/19/19 7:41:16 PM 305 3.0 26.0 25 54 73.4 45.0 30.152 14.09 0.0 0 0.00 0.00 0.00 0.00
02/19/19 7:42:27 PM 305 0.0 26.0 25 54 73.3 45.0 30.151 14.09 0.0 0 0.00 0.00 0.00 0.00
02/19/19 7:43:20 PM 305 1.0 26.0 25 54 73.3 45.1 30.151 14.09 0.0 0 0.00 0.00 0.00 0.00
02/19/19 7:44:31 PM 305 0.0 26.0 25 55 73.4 45.0 30.154 14.09 0.0 0 0.00 0.00 0.00 0.00
02/19/19 7:45:27 PM 305 0.0 26.0 25 55 73.4 44.9 30.154 14.09 0.0 0 0.00 0.00 0.00 0.00
02/19/19 7:46:20 PM 305 0.0 26.0 25 56 73.4 44.7 30.155 14.09 0.0 0 0.00 0.00 0.00 0.00
02/19/19 7:47:25 PM 305 1.0 26.0 25 56 73.3 44.5 30.155 14.09 0.0 0 0.00 0.00 0.00 0.00
02/19/19 7:48:18 PM 305 1.0 26.0 25 56 73.3 44.4 30.153 14.09 0.0 0 0.00 0.00 0.00 0.00
02/19/19 7:49:29 PM 305 2.0 26.0 25 57 73.4 44.2 30.156 14.09 0.0 0 0.00 0.00 0.00 0.00
02/19/19 7:50:21 PM 305 1.0 26.0 25 57 73.4 44.1 30.156 14.09 0.0 0 0.00 0.00 0.00 0.00
02/19/19 7:51:35 PM 305 0.0 26.0 25 57 73.3 44.0 30.156 14.09 0.0 0 0.00 0.00 0.00 0.00
02/19/19 7:52:28 PM 305 1.0 26.0 25 57 73.4 44.0 30.158 14.09 0.0 0 0.00 0.00 0.00 0.00
02/19/19 7:53:18 PM 305 0.0 26.0 25 58 73.4 44.0 30.158 14.09 0.0 0 0.00 0.00 0.00 0.00
02/19/19 7:54:31 PM 306 1.0 26.0 25 58 73.4 44.1 30.156 14.09 0.0 0 0.00 0.00 0.00 0.00
02/19/19 7:55:24 PM 306 1.0 26.0 25 58 73.4 44.2 30.156 14.09 0.0 0 0.00 0.00 0.00 0.00
02/19/19 7:56:35 PM 306 0.0 26.0 25 59 73.3 44.2 30.156 14.09 0.0 0 0.00 0.00 0.00 0.00
02/19/19 7:57:31 PM 306 1.0 26.0 25 59 73.4 44.1 30.155 14.09 0.0 0 0.00 0.00 0.00 0.00
02/19/19 7:58:20 PM 306 0.0 26.0 25 59 73.4 44.1 30.155 14.09 0.0 0 0.00 0.00 0.00 0.00
02/19/19 7:59:35 PM 306 0.0 26.0 25 59 73.4 44.0 30.154 14.09 0.0 0 0.00 0.00 0.00 0.00
02/19/19 8:00:25 PM 306 0.0 26.0 25 59 73.4 43.9 30.154 14.09 0.0 0 0.00 0.00 0.00 0.00
02/19/19 8:01:36 PM 306 0.0 26.0 25 59 73.4 43.8 30.155 14.09 0.0 0 0.00 0.00 0.00 0.00
02/19/19 8:02:31 PM 306 0.0 26.0 25 60 73.3 43.7 30.156 14.09 0.0 0 0.00 0.00 0.00 0.00
02/19/19 8:03:21 PM 306 0.0 26.0 25 60 73.3 43.7 30.156 14.09 0.0 0 0.00 0.00 0.00 0.00
02/19/19 8:04:32 PM 355 0.0 26.0 25 60 73.3 43.6 30.159 14.09 0.0 0 0.00 0.00 0.00 0.00
02/19/19 8:05:24 PM 355 0.0 26.0 25 60 73.3 43.6 30.159 14.09 0.0 0 0.00 0.00 0.00 0.00
02/19/19 8:06:17 PM 355 3.0 26.0 25 60 73.4 43.5 30.158 14.09 0.0 0 0.00 0.00 0.00 0.00
02/19/19 8:07:31 PM 355 0.0 26.0 25 61 73.4 43.4 30.160 14.09 0.0 0 0.00 0.00 0.00 0.00
02/19/19 8:08:24 PM 355 1.0 26.0 25 61 73.4 43.3 30.160 14.09 0.0 0 0.00 0.00 0.00 0.00
02/19/19 8:09:35 PM 355 1.0 26.0 25 61 73.4 43.4 30.158 14.09 0.0 0 0.00 0.00 0.00 0.00
02/19/19 8:10:28 PM 355 1.0 26.0 25 61 73.4 43.4 30.159 14.09 0.0 0 0.00 0.00 0.00 0.00
02/19/19 8:11:20 PM 355 1.0 26.0 25 61 73.4 43.6 30.159 14.09 0.0 0 0.00 0.00 0.00 0.00
02/19/19 8:12:32 PM 355 1.0 26.0 25 60 73.5 43.6 30.161 14.09 0.0 0 0.00 0.00 0.00 0.00
02/19/19 8:13:24 PM 355 0.0 26.0 25 60 73.5 43.6 30.161 14.09 0.0 0 0.00 0.00 0.00 0.00
02/19/19 8:14:17 PM 355 0.0 26.0 25 60 73.5 43.6 30.162 14.09 0.0 0 0.00 0.00 0.00 0.00
02/19/19 8:15:28 PM 355 0.0 26.0 25 60 73.5 43.6 30.160 14.09 0.0 0 0.00 0.00 0.00 0.00
02/19/19 8:16:17 PM 355 0.0 26.0 25 60 73.5 43.6 30.161 14.09 0.0 0 0.00 0.00 0.00 0.00
02/19/19 8:17:32 PM 355 0.0 26.0 25 60 73.5 43.6 30.163 14.09 0.0 0 0.00 0.00 0.00 0.00
02/19/19 8:18:24 PM 355 2.0 26.0 25 60 73.5 43.8 30.163 14.09 0.0 0 0.00 0.00 0.00 0.00
02/19/19 8:19:35 PM 355 0.0 26.0 25 60 73.6 44.0 30.161 14.09 0.0 0 0.00 0.00 0.00 0.00
02/19/19 8:20:25 PM 355 3.0 26.0 25 59 73.6 44.2 30.161 14.09 0.0 0 0.00 0.00 0.00 0.00
02/19/19 8:21:18 PM 355 3.0 26.0 25 59 73.6 44.3 30.162 14.09 0.0 0 0.00 0.00 0.00 0.00
02/19/19 8:22:29 PM 355 0.0 26.0 25 59 73.7 44.2 30.164 14.09 0.0 0 0.00 0.00 0.00 0.00
02/19/19 8:23:19 PM 355 2.0 26.0 25 59 73.7 44.1 30.164 14.09 0.0 0 0.00 0.00 0.00 0.00
02/19/19 8:24:33 PM 355 2.0 26.0 25 59 73.7 44.2 30.166 14.09 0.0 0 0.00 0.00 0.00 0.00
02/19/19 8:25:20 PM 355 2.0 26.0 25 59 73.7 44.2 30.166 14.09 0.0 0 0.00 0.00 0.00 0.00
02/19/19 8:26:34 PM 355 3.0 26.0 25 59 73.7 44.2 30.165 14.09 0.0 0 0.00 0.00 0.00 0.00
02/19/19 8:27:27 PM 355 2.0 26.0 25 59 73.7 44.1 30.165 14.09 0.0 0 0.00 0.00 0.00 0.00
02/19/19 8:28:20 PM 355 2.0 26.0 25 59 73.8 44.1 30.165 14.09 0.0 0 0.00 0.00 0.00 0.00
02/19/19 8:29:31 PM 355 2.0 26.0 25 59 73.8 44.2 30.163 14.09 0.0 0 0.00 0.00 0.00 0.00
02/19/19 8:30:27 PM 355 2.0 26.0 25 59 73.8 44.2 30.163 14.09 0.0 0 0.00 0.00 0.00 0.00
02/19/19 8:31:34 PM 355 1.0 26.0 25 59 73.8 44.2 30.165 14.09 0.0 0 0.00 0.00 0.00 0.00
02/19/19 8:32:27 PM 355 1.0 26.0 25 59 73.9 44.1 30.167 14.09 0.0 0 0.00 0.00 0.00 0.00
02/19/19 8:33:20 PM 355 1.0 26.0 25 59 73.9 44.1 30.167 14.09 0.0 0 0.00 0.00 0.00 0.00
02/19/19 8:34:34 PM 355 1.0 26.0 25 60 73.9 43.9 30.166 14.09 0.0 0 0.00 0.00 0.00 0.00
02/19/19 8:35:26 PM 355 1.0 26.0 25 60 73.9 43.8 30.167 14.09 0.0 0 0.00 0.00 0.00 0.00
02/19/19 8:36:38 PM 355 1.0 26.0 25 60 74.0 43.8 30.165 14.09 0.0 0 0.00 0.00 0.00 0.00
02/19/19 8:37:30 PM 355 1.0 26.0 25 60 74.0 43.7 30.164 14.09 0.0 0 0.00 0.00 0.00 0.00
02/19/19 8:38:23 PM 355 2.0 26.0 25 61 74.0 43.6 30.164 14.09 0.0 0 0.00 0.00 0.00 0.00
02/19/19 8:39:37 PM 355 3.0 26.0 25 61 74.0 43.5 30.169 14.09 0.0 0 0.00 0.00 0.00 0.00
02/19/19 8:40:27 PM 355 1.0 26.0 25 61 74.1 43.4 30.167 14.09 0.0 0 0.00 0.00 0.00 0.00
02/19/19 8:41:20 PM 355 1.0 26.0 25 61 74.1 43.4 30.167 14.09 0.0 0 0.00 0.00 0.00 0.00
02/19/19 8:42:28 PM 355 0.0 26.0 25 61 74.1 43.5 30.167 14.09 0.0 0 0.00 0.00 0.00 0.00
02/19/19 8:43:21 PM 355 1.0 26.0 25 60 74.1 43.7 30.167 14.09 0.0 0 0.00 0.00 0.00 0.00
02/19/19 8:44:33 PM 355 1.0 26.0 25 60 74.1 43.7 30.167 14.09 0.0 0 0.00 0.00 0.00 0.00
02/19/19 8:45:28 PM 355 0.0 26.0 25 61 74.1 43.6 30.167 14.09 0.0 0 0.00 0.00 0.00 0.00
02/19/19 8:46:18 PM 355 0.0 26.0 25 61 74.2 43.5 30.166 14.09 0.0 0 0.00 0.00 0.00 0.00
02/19/19 8:47:26 PM 355 0.0 26.0 25 61 74.2 43.4 30.167 14.09 0.0 0 0.00 0.00 0.00 0.00
02/19/19 8:48:19 PM 355 0.0 26.0 25 62 74.2 43.3 30.167 14.09 0.0 0 0.00 0.00 0.00 0.00
02/19/19 8:49:33 PM 5 0.0 26.0 25 62 74.3 43.3 30.164 14.09 0.0 0 0.00 0.00 0.00 0.00
02/19/19 8:50:23 PM 5 0.0 26.0 25 62 74.3 43.3 30.164 14.09 0.0 0 0.00 0.00 0.00 0.00
02/19/19 8:51:34 PM 5 0.0 26.0 25 62 74.3 43.3 30.164 14.09 0.0 0 0.00 0.00 0.00 0.00
02/19/19 8:52:20 PM 5 0.0 26.0 25 62 74.3 43.3 30.164 14.09 0.0 0 0.00 0.00 0.00 0.00
02/19/19 8:53:35 PM 5 0.0 26.0 25 62 74.3 43.3 30.166 14.09 0.0 0 0.00 0.00 0.00 0.00
02/19/19 8:54:27 PM 5 0.0 26.0 25 62 74.3 43.1 30.167 14.09 0.0 0 0.00 0.00 0.00 0.00
02/19/19 8:55:20 PM 5 0.0 26.0 25 62 74.3 42.9 30.167 14.09 0.0 0 0.00 0.00 0.00 0.00
02/19/19 8:56:31 PM 355 0.0 26.0 25 63 74.3 42.7 30.167 14.09 0.0 0 0.00 0.00 0.00 0.00
02/19/19 8:57:26 PM 355 0.0 26.0 25 63 74.3 42.6 30.167 14.09 0.0 0 0.00 0.00 0.00 0.00
02/19/19 8:58:32 PM 355 0.0 26.0 25 64 74.4 42.5 30.169 14.09 0.0 0 0.00 0.00 0.00 0.00
02/19/19 8:59:25 PM 355 0.0 26.0 25 64 74.4 42.5 30.169 14.09 0.0 0 0.00 0.00 0.00 0.00
02/19/19 9:00:20 PM 355 0.0 26.0 25 64 74.5 42.6 30.169 14.09 0.0 0 0.00 0.00 0.00 0.00
02/19/19 9:01:32 PM 19 2.0 26.0 25 64 74.4 42.7 30.167 14.09 0.0 0 0.00 0.00 0.00 0.00
02/19/19 9:02:24 PM 19 1.0 26.0 25 64 74.4 42.7 30.167 14.09 0.0 0 0.00 0.00 0.00 0.00
02/19/19 9:04:57 PM 19 2.0 26.0 25 64 74.5 42.5 30.172 14.09 0.0 0 0.00 0.00 0.00 0.00
02/19/19 9:05:29 PM 19 1.0 26.0 25 64 74.5 42.5 30.175 14.09 0.0 0 0.00 0.00 0.00 0.00
02/19/19 9:06:22 PM 19 0.0 26.0 25 64 74.5 42.3 30.175 14.09 0.0 0 0.00 0.00 0.00 0.00
02/19/19 9:07:36 PM 19 0.0 26.0 25 65 74.6 42.0 30.174 14.09 0.0 0 0.00 0.00 0.00 0.00
02/19/19 9:08:29 PM 19 0.0 26.0 25 65 74.6 41.9 30.174 14.09 0.0 0 0.00 0.00 0.00 0.00
02/19/19 9:09:22 PM 19 1.0 26.0 25 65 74.6 41.9 30.174 14.09 0.0 0 0.00 0.00 0.00 0.00
02/19/19 9:10:30 PM 19 0.0 26.0 25 66 74.6 41.6 30.174 14.09 0.0 0 0.00 0.00 0.00 0.00
02/19/19 9:11:20 PM 19 1.0 26.0 25 66 74.6 41.5 30.174 14.09 0.0 0 0.00 0.00 0.00 0.00
02/19/19 9:12:34 PM 19 0.0 26.0 25 66 74.6 41.5 30.173 14.09 0.0 0 0.00 0.00 0.00 0.00
02/19/19 9:13:26 PM 19 0.0 26.0 25 66 74.6 41.6 30.173 14.09 0.0 0 0.00 0.00 0.00 0.00
02/19/19 9:14:19 PM 19 1.0 26.0 25 66 74.7 41.6 30.175 14.09 0.0 0 0.00 0.00 0.00 0.00
02/19/19 9:15:30 PM 17 1.0 26.0 25 66 74.7 41.6 30.176 14.09 0.0 0 0.00 0.00 0.00 0.00
02/19/19 9:16:23 PM 17 0.0 26.0 25 66 74.7 41.6 30.176 14.09 0.0 0 0.00 0.00 0.00 0.00
02/19/19 9:17:34 PM 17 0.0 26.0 25 66 74.7 41.6 30.176 14.09 0.0 0 0.00 0.00 0.00 0.00
02/19/19 9:18:27 PM 17 0.0 26.0 25 67 74.7 41.5 30.176 14.09 0.0 0 0.00 0.00 0.00 0.00
02/19/19 9:19:20 PM 17 0.0 26.0 25 66 74.8 41.4 30.174 14.09 0.0 0 0.00 0.00 0.00 0.00
02/19/19 9:20:27 PM 17 0.0 26.0 25 67 74.8 41.4 30.173 14.09 0.0 0 0.00 0.00 0.00 0.00
02/19/19 9:21:20 PM 17 0.0 26.0 25 67 74.8 41.4 30.173 14.09 0.0 0 0.00 0.00 0.00 0.00
02/19/19 9:22:35 PM 17 2.0 26.0 25 67 74.8 41.4 30.175 14.09 0.0 0 0.00 0.00 0.00 0.00
02/19/19 9:23:28 PM 17 1.0 26.0 25 67 74.8 41.4 30.174 14.09 0.0 0 0.00 0.00 0.00 0.00
02/19/19 9:24:20 PM 17 0.0 26.0 25 67 74.8 41.3 30.174 14.09 0.0 0 0.00 0.00 0.00 0.00
02/19/19 9:25:31 PM 17 0.0 26.0 25 68 74.9 41.3 30.179 14.09 0.0 0 0.00 0.00 0.00 0.00
02/19/19 9:26:18 PM 17 0.0 26.0 25 68 74.9 41.3 30.179 14.09 0.0 0 0.00 0.00 0.00 0.00
02/19/19 9:27:32 PM 17 1.0 26.0 25 68 74.9 41.3 30.176 14.09 0.0 0 0.00 0.00 0.00 0.00
02/19/19 9:28:25 PM 17 1.0 26.0 25 68 74.9 41.3 30.176 14.09 0.0 0 0.00 0.00 0.00 0.00
02/19/19 9:29:36 PM 17 1.0 26.0 25 68 74.9 41.1 30.175 14.09 0.0 0 0.00 0.00 0.00 0.00
02/19/19 9:30:32 PM 17 0.0 26.0 25 68 74.9 41.0 30.176 14.09 0.0 0 0.00 0.00 0.00 0.00
02/19/19 9:31:18 PM 17 1.0 26.0 25 68 74.9 40.9 30.176 14.09 0.0 0 0.00 0.00 0.00 0.00
02/19/19 9:32:30 PM 17 0.0 26.0 26 68 75.0 40.9 30.177 14.09 0.0 0 0.00 0.00 0.00 0.00
02/19/19 9:33:23 PM 17 0.0 26.0 26 69 75.0 40.8 30.177 14.09 0.0 0 0.00 0.00 0.00 0.00
02/19/19 9:34:34 PM 17 0.0 26.0 26 69 75.0 40.8 30.174 14.09 0.0 0 0.00 0.00 0.00 0.00
02/19/19 9:35:27 PM 17 0.0 26.0 26 69 75.0 40.9 30.174 14.09 0.0 0 0.00 0.00 0.00 0.00
02/19/19 9:36:20 PM 17 0.0 26.0 26 69 75.1 40.9 30.177 14.09 0.0 0 0.00 0.00 0.00 0.00
02/19/19 9:37:25 PM 17 0.0 26.0 26 69 75.1 40.9 30.176 14.09 0.0 0 0.00 0.00 0.00 0.00
02/19/19 9:38:17 PM 17 0.0 26.0 26 68 75.1 40.9 30.180 14.09 0.0 0 0.00 0.00 0.00 0.00
02/19/19 9:39:32 PM 17 0.0 26.0 26 68 75.1 40.8 30.179 14.09 0.0 0 0.00 0.00 0.00 0.00
02/19/19 9:40:25 PM 17 2.0 26.0 26 68 75.1 40.7 30.179 14.09 0.0 0 0.00 0.00 0.00 0.00
02/19/19 9:41:21 PM 17 2.0 26.0 26 68 75.1 40.5 30.178 14.09 0.0 0 0.00 0.00 0.00 0.00
02/19/19 9:42:29 PM 17 1.0 26.0 26 69 75.2 40.4 30.178 14.09 0.0 0 0.00 0.00 0.00 0.00
02/19/19 9:43:22 PM 17 1.0 26.0 26 70 75.2 40.3 30.178 14.09 0.0 0 0.00 0.00 0.00 0.00
02/19/19 9:44:36 PM 17 1.0 26.0 26 70 75.2 40.3 30.176 14.09 0.0 0 0.00 0.00 0.00 0.00
02/19/19 9:45:29 PM 17 0.0 26.0 26 70 75.1 40.3 30.177 14.09 0.0 0 0.00 0.00 0.00 0.00
02/19/19 9:46:19 PM 17 0.0 26.0 26 70 75.1 40.3 30.177 14.09 0.0 0 0.00 0.00 0.00 0.00
02/19/19 9:47:30 PM 17 0.0 26.0 27 70 75.2 40.3 30.178 14.09 0.0 0 0.00 0.00 0.00 0.00

University Police wind advisory reference

For campus closure information please call the campus Emergency Hotline at (909) 537-5999

© All rights reserved. Unauthorized duplication or distribution is prohibited

Never base important decisions on this or any weather information obtained from the Internet

California State University, San Bernardino
5500 University Parkway, San Bernardino, CA. 92407
Phone: (909) 537-5108, Email: Weather Webmaster
Last Updated: